[[{"header":{"parameterUnit":"m.s-1","parameterCategory":1,"la1":30.6,"la2":29.2853,"lo1":-89.7004,"lo2":-87.6739,"dy":0.0162,"dx":0.0183,"nx":112,"ny":82,"refTime":"2026-04-24T12:00:00:Z","depth":0,"parameterNumber":2,"parameterNumberName":"U-component_of_WINDS"},"data":[0.0,0.0,0.0,0.0,0.0,0.0,0.0,0.0,0.0,0.0,0.0,0.0,0.0,0.0,0.0,0.0,0.0,0.0,0.0,0.0,0.0,0.0,0.0,0.0,0.0,0.0,0.0,0.0,0.0,0.0,0.0,0.0,0.0,0.0,0.0,0.0,0.0,0.0,0.0,0.0,0.0,0.0,0.0,0.0,0.0,0.0,0.0,0.0,0.0,0.0,0.0,0.0,0.0,0.0,0.0,0.0,0.0,0.0,0.0,0.0,0.0,0.0,0.0,0.0,0.0,0.0,0.0,0.0,0.0,0.0,0.0,0.0,0.0,0.0,0.0,0.0,0.0,0.0,0.0,0.0,0.0,0.0,0.0,0.0,0.0,0.0,0.0,0.0,0.0,0.0,-0.5798,-0.7644,-0.9322,-1.0129,-0.9657,-0.8994,-0.8352,-0.7778,0.0,0.0,0.0,0.0,0.0,0.0,0.0,0.0,0.0,0.0,0.0,0.0,0.0,0.0,0.0,0.0,0.0,0.0,0.0,0.0,0.0,0.0,0.0,0.0,0.0,0.0,0.0,0.0,0.0,0.0,0.0,0.0,0.0,0.0,0.0,0.0,0.0,0.0,0.0,0.0,0.0,0.0,0.0,0.0,0.0,0.0,0.0,0.0,0.0,0.0,0.0,0.0,0.0,0.0,0.0,0.0,0.0,0.0,0.0,0.0,0.0,0.0,0.0,0.0,0.0,0.0,0.0,0.0,0.0,0.0,0.0,0.0,0.0,0.0,0.0,0.0,0.0,0.0,0.0,0.0,0.0,0.0,0.0,0.0,0.0,0.0,0.0,0.0,0.0,0.0,0.0,0.0,0.0,0.0,0.0,0.0,0.0,0.0,0.0,0.0,0.0,0.0,0.0,0.0,-0.5966,-0.8216,-0.9569,-1.0273,-1.0182,-0.9204,-0.8532,-0.8373,0.0,0.0,0.0,0.0,0.0,0.0,0.0,0.0,0.0,0.0,0.0,0.0,0.0,0.0,0.0,0.0,0.0,0.0,0.0,0.0,0.0,0.0,0.0,0.0,0.0,0.0,0.0,0.0,0.0,0.0,0.0,0.0,0.0,0.0,0.0,0.0,0.0,0.0,0.0,0.0,0.0,0.0,0.0,0.0,0.0,0.0,0.0,0.0,0.0,0.0,0.0,0.0,0.0,0.0,0.0,0.0,0.0,0.0,0.0,0.0,0.0,0.0,0.0,0.0,0.0,0.0,0.0,0.0,0.0,0.0,0.0,0.0,0.0,0.0,0.0,0.0,0.0,0.0,0.0,0.0,0.0,0.0,0.0,0.0,0.0,0.0,0.0,0.0,0.0,0.0,0.0,0.0,0.0,0.0,0.0,0.0,0.0,0.0,0.0,0.0,0.0,0.0,0.0,-0.6038,-0.7413,-0.8487,-0.9621,-1.0182,-0.9893,-0.9085,-0.843,-0.8043,-0.6145,0.0,0.0,0.0,0.0,0.0,0.0,0.0,0.0,0.0,0.0,0.0,0.0,0.0,0.0,0.0,0.0,0.0,0.0,0.0,0.0,0.0,0.0,0.0,0.0,0.0,0.0,0.0,0.0,0.0,0.0,0.0,0.0,0.0,0.0,0.0,0.0,0.0,0.0,0.0,0.0,0.0,0.0,0.0,0.0,0.0,0.0,0.0,0.0,0.0,0.0,0.0,0.0,0.0,0.0,0.0,0.0,0.0,0.0,0.0,0.0,0.0,0.0,0.0,0.0,0.0,0.0,0.0,0.0,0.0,0.0,0.0,0.0,0.0,0.0,0.0,0.0,0.0,0.0,0.0,0.0,0.0,0.0,0.0,0.0,0.0,0.0,0.0,0.0,0.0,0.0,0.0,0.0,0.0,0.0,0.0,0.0,0.0,0.0,0.0,0.0,0.0,0.0,-0.7144,-0.8605,-0.8605,-0.9621,-1.009,-0.955,-0.8952,-0.8261,-0.7478,-0.595,0.0,0.0,0.0,0.0,0.0,0.0,0.0,0.0,0.0,0.0,0.0,0.0,0.0,0.0,0.0,0.0,0.0,0.0,0.0,0.0,0.0,0.0,0.0,0.0,0.0,0.0,0.0,0.0,0.0,0.0,0.0,0.0,0.0,0.0,0.0,0.0,0.0,0.0,0.0,0.0,0.0,0.0,0.0,0.0,0.0,0.0,0.0,0.0,0.0,0.0,0.0,0.0,0.0,0.0,0.0,0.0,0.0,0.0,0.0,0.0,0.0,0.0,0.0,0.0,0.0,0.0,0.0,0.0,0.0,0.0,0.0,0.0,0.0,0.0,0.0,0.0,0.0,0.0,0.0,0.0,0.0,0.0,0.0,0.0,0.0,0.0,0.0,0.0,0.0,0.0,0.0,0.0,0.0,0.0,0.0,0.0,0.0,0.0,0.0,0.0,0.0,0.0,-0.7144,-0.8605,-0.8605,-0.9621,-1.009,-0.955,-0.8952,-0.8125,-0.7019,-0.5731,0.0,0.0,0.0,0.0,0.0,0.0,0.0,0.0,0.0,0.0,0.0,0.0,0.0,0.0,0.0,0.0,0.0,0.0,0.0,0.0,0.0,0.0,0.0,0.0,0.0,0.0,0.0,0.0,0.0,0.0,0.0,0.0,0.0,0.0,0.0,0.0,0.0,0.0,0.0,0.0,0.0,0.0,0.0,0.0,0.0,0.0,0.0,0.0,0.0,0.0,0.0,0.0,0.0,0.0,0.0,0.0,0.0,0.0,0.0,0.0,0.0,0.0,0.0,0.0,0.0,0.0,0.0,0.0,0.0,0.0,0.0,0.0,0.0,0.0,0.0,0.0,0.0,0.0,0.0,0.0,0.0,0.0,0.0,0.0,0.0,0.0,0.0,0.0,0.0,0.0,0.0,0.0,0.0,0.0,0.0,0.0,0.0,0.0,0.0,0.0,0.0,0.0,-0.7114,-0.8526,0.0,-0.9539,-0.9861,-0.8948,-0.8711,-0.7933,-0.6377,0.0,0.0,0.0,0.0,0.0,0.0,0.0,0.0,0.0,0.0,0.0,0.0,0.0,0.0,0.0,0.0,0.0,0.0,0.0,0.0,0.0,0.0,0.0,0.0,0.0,0.0,0.0,0.0,0.0,0.0,0.0,0.0,0.0,0.0,0.0,0.0,0.0,0.0,0.0,0.0,0.0,0.0,0.0,0.0,0.0,0.0,0.0,0.0,0.0,0.0,0.0,0.0,0.0,0.0,0.0,0.0,0.0,0.0,0.0,0.0,0.0,0.0,0.0,0.0,0.0,0.0,0.0,0.0,0.0,0.0,0.0,0.0,0.0,0.0,0.0,0.0,0.0,0.0,0.0,0.0,0.0,0.0,0.0,0.0,0.0,0.0,0.0,0.0,0.0,0.0,0.0,0.0,0.0,0.0,0.0,0.0,0.0,0.0,0.0,0.0,0.0,0.0,-0.5099,-0.7031,-0.8397,0.0,-0.9408,-0.9661,-0.8562,-0.855,-0.7755,-0.5768,0.0,0.0,0.0,0.0,0.0,0.0,0.0,0.0,0.0,0.0,0.0,0.0,0.0,0.0,0.0,0.0,0.0,0.0,0.0,0.0,0.0,0.0,0.0,0.0,0.0,0.0,0.0,0.0,0.0,0.0,0.0,0.0,0.0,0.0,0.0,0.0,0.0,0.0,0.0,0.0,0.0,0.0,0.0,0.0,0.0,0.0,0.0,0.0,0.0,0.0,0.0,0.0,0.0,0.0,0.0,0.0,0.0,0.0,0.0,0.0,0.0,0.0,0.0,0.0,0.0,0.0,0.0,0.0,0.0,0.0,0.0,0.0,0.0,0.0,0.0,0.0,0.0,0.0,0.0,0.0,0.0,0.0,0.0,0.0,0.0,0.0,0.0,0.0,0.0,0.0,0.0,0.0,0.0,0.0,0.0,0.0,0.0,0.0,0.0,0.0,0.0,0.0,-0.5099,-0.691,-0.8229,-0.8293,-0.9252,-0.949,-0.8476,-0.8529,-0.7595,0.0,0.0,0.0,0.0,0.0,0.0,0.0,0.0,0.0,0.0,0.0,0.0,0.0,0.0,0.0,0.0,0.0,0.0,0.0,0.0,0.0,0.0,0.0,0.0,0.0,0.0,0.0,0.0,0.0,0.0,0.0,0.0,0.0,0.0,0.0,0.0,0.0,0.0,0.0,0.0,0.0,0.0,0.0,0.0,0.0,0.0,0.0,0.0,0.0,0.0,0.0,0.0,0.0,0.0,0.0,0.0,0.0,0.0,0.0,0.0,0.0,0.0,0.0,0.0,0.0,0.0,0.0,0.0,0.0,0.0,0.0,0.0,0.0,0.0,0.0,0.0,0.0,0.0,0.0,0.0,0.0,0.0,0.0,0.0,0.0,0.0,0.0,0.0,0.0,0.0,0.0,0.0,0.0,0.0,0.0,0.0,0.0,0.0,0.0,0.0,0.0,0.0,0.0,-0.4972,-0.6763,-0.8041,-0.8021,-0.9059,-0.933,-0.8285,-0.84,-0.7536,-0.5182,0.0,0.0,0.0,0.0,0.0,0.0,0.0,0.0,0.0,0.0,0.0,0.0,0.0,0.0,0.0,0.0,0.0,0.0,0.0,0.0,0.0,0.0,0.0,0.0,0.0,0.0,0.0,0.0,0.0,0.0,0.0,0.0,0.0,0.0,0.0,0.0,0.0,0.0,0.0,0.0,0.0,0.0,0.0,0.0,0.0,0.0,0.0,0.0,0.0,0.0,0.0,0.0,0.0,0.0,0.0,0.0,0.0,0.0,0.0,0.0,0.0,0.0,0.0,0.0,0.0,0.0,0.0,0.0,0.0,0.0,0.0,0.0,0.0,0.0,0.0,0.0,0.0,0.0,0.0,0.0,0.0,0.0,0.0,0.0,0.0,0.0,0.0,0.0,0.0,0.0,0.0,0.0,0.0,0.0,0.0,0.0,0.0,0.0,0.0,0.0,0.0,0.0,-0.5164,-0.6722,-0.78,-0.7778,-0.8788,-0.9054,-0.8064,-0.8427,-0.7729,-0.5464,0.0,0.0,0.0,0.0,0.0,0.0,0.0,0.0,0.0,0.0,0.0,0.0,0.0,0.0,0.0,0.0,0.0,0.0,0.0,0.0,0.0,0.0,0.0,0.0,0.0,0.0,0.0,0.0,0.0,0.0,0.0,0.0,0.0,0.0,0.0,0.0,0.0,0.0,0.0,0.0,0.0,0.0,0.0,0.0,0.0,0.0,0.0,0.0,0.0,0.0,0.0,0.0,0.0,0.0,0.0,0.0,0.0,0.0,0.0,0.0,0.0,0.0,0.0,0.0,0.0,0.0,0.0,0.0,0.0,0.0,0.0,0.0,0.0,0.0,0.0,0.0,0.0,0.0,0.0,0.0,0.0,0.0,0.0,0.0,0.0,0.0,0.0,0.0,0.0,0.0,0.0,0.0,0.0,0.0,0.0,0.0,0.0,0.0,0.0,0.0,0.0,0.0,-0.5604,-0.6753,-0.7577,-0.7668,-0.8547,-0.8795,-0.7955,-0.8519,-0.8053,-0.5985,0.0,0.0,0.0,0.0,0.0,0.0,0.0,0.0,0.0,0.0,0.0,0.0,0.0,0.0,0.0,0.0,0.0,0.0,0.0,0.0,0.0,0.0,0.0,0.0,0.0,0.0,0.0,0.0,0.0,0.0,0.0,0.0,0.0,0.0,0.0,0.0,0.0,0.0,0.0,0.0,0.0,0.0,0.0,0.0,0.0,0.0,0.0,0.0,0.0,0.0,0.0,0.0,0.0,0.0,0.0,0.0,0.0,0.0,0.0,0.0,-1.1456,0.0,0.0,0.0,0.0,0.0,0.0,0.0,0.0,0.0,0.0,0.0,0.0,0.0,0.0,0.0,0.0,0.0,0.0,0.0,0.0,0.0,0.0,0.0,0.0,0.0,0.0,0.0,0.0,0.0,0.0,0.0,0.0,0.0,0.0,0.0,0.0,0.0,0.0,0.0,0.0,0.0,-0.6128,-0.711,-0.7887,-0.8274,-0.8924,-0.9105,-0.8561,-0.8421,-0.7767,-0.6361,-0.5892,0.0,0.0,0.0,0.0,0.0,0.0,0.0,0.0,0.0,0.0,0.0,0.0,0.0,0.0,0.0,0.0,0.0,0.0,0.0,0.0,0.0,0.0,0.0,0.0,0.0,0.0,0.0,0.0,0.0,0.0,0.0,0.0,0.0,0.0,0.0,0.0,0.0,0.0,0.0,0.0,0.0,0.0,0.0,0.0,0.0,0.0,0.0,0.0,0.0,0.0,0.0,0.0,0.0,0.0,0.0,0.0,0.0,0.0,0.0,0.0,-1.241,0.0,0.0,0.0,0.0,0.0,0.0,0.0,0.0,0.0,0.0,0.0,0.0,0.0,0.0,0.0,0.0,0.0,0.0,0.0,0.0,0.0,0.0,0.0,0.0,0.0,0.0,0.0,0.0,0.0,0.0,0.0,0.0,0.0,0.0,0.0,0.0,0.0,0.0,0.0,0.0,-0.6791,-0.7701,-0.837,-0.8621,-0.9136,-0.9258,-0.8791,-0.879,-0.8241,-0.6875,-0.643,0.0,0.0,0.0,0.0,0.0,0.0,0.0,0.0,0.0,0.0,0.0,0.0,0.0,0.0,0.0,0.0,0.0,0.0,0.0,0.0,0.0,0.0,0.0,0.0,0.0,0.0,0.0,0.0,0.0,0.0,0.0,0.0,0.0,0.0,0.0,0.0,0.0,0.0,0.0,0.0,0.0,0.0,0.0,0.0,0.0,0.0,0.0,0.0,0.0,0.0,0.0,0.0,0.0,-1.3905,-1.4553,-1.5169,-1.5817,-1.6433,-1.6878,-1.5141,-1.46,-1.4869,-1.3689,0.0,0.0,0.0,0.0,0.0,0.0,0.0,0.0,0.0,0.0,0.0,0.0,0.0,0.0,0.0,0.0,0.0,0.0,0.0,0.0,0.0,0.0,-0.9928,-0.9273,-0.9111,-0.8947,-0.8353,0.0,0.0,0.0,0.0,0.0,0.0,0.0,0.0,0.0,0.0,0.0,-0.7623,-0.838,-0.8888,-0.8973,-0.9326,-0.9386,-0.8998,-0.9228,-0.8839,-0.7523,-0.7107,-0.645,0.0,0.0,0.0,0.0,0.0,0.0,0.0,0.0,0.0,0.0,0.0,0.0,0.0,0.0,0.0,0.0,0.0,0.0,0.0,0.0,0.0,0.0,0.0,0.0,0.0,0.0,0.0,0.0,0.0,0.0,0.0,0.0,-0.5919,-0.666,0.0,0.0,0.0,0.0,0.0,0.0,0.0,0.0,0.0,0.0,0.0,0.0,0.0,-1.3141,-1.411,-1.4837,-1.5469,-1.6073,-1.6799,-1.721,-1.732,-1.7997,-1.8345,-1.8424,-1.8125,0.0,-1.6325,-1.6136,0.0,0.0,0.0,0.0,0.0,0.0,0.0,0.0,0.0,0.0,0.0,0.0,0.0,0.0,0.0,0.0,0.0,0.0,0.0,0.0,0.0,0.0,-1.23,-1.1681,-1.155,-1.1394,-1.0834,-0.9497,-0.8358,-0.8296,-0.7364,-0.6595,0.0,0.0,0.0,0.0,0.0,0.0,-0.8763,-0.9024,-0.9217,-0.9627,-0.9726,-0.9712,-0.9587,-0.9206,-0.8815,-0.8442,-0.7464,-0.6573,-0.585,-0.5183,0.0,0.0,0.0,0.0,0.0,0.0,0.0,0.0,0.0,0.0,0.0,0.0,0.0,0.0,0.0,0.0,0.0,0.0,0.0,0.0,0.0,0.0,0.0,0.0,0.0,0.0,0.0,0.0,0.0,-0.6344,-0.7829,-0.8154,-0.8189,-0.8365,0.0,0.0,0.0,0.0,0.0,0.0,0.0,0.0,0.0,-1.3315,-1.4532,-1.5651,-1.6602,-1.7096,-1.7492,-1.7794,-1.8536,-1.8883,-1.8899,-1.9578,-1.9878,-1.9878,-1.9878,-1.953,-1.8882,-1.7699,-1.7063,-1.6736,0.0,0.0,0.0,0.0,-1.5019,-1.5087,-1.5155,-1.5188,-1.5227,-1.5244,0.0,0.0,0.0,0.0,0.0,0.0,0.0,-1.2266,-1.2536,-1.3012,-1.3239,-1.2651,-1.2505,-1.2363,-1.1774,-1.0795,-0.991,-0.9585,-0.8586,-0.7816,-0.7845,-0.7162,0.0,0.0,0.0,-0.8539,-0.9279,-0.9606,-0.9841,-1.0008,-0.9918,-0.9841,-0.9815,-0.9464,-0.9069,-0.8681,-0.8016,-0.7224,-0.6331,-0.5635,-0.4945,0.0,0.0,0.0,0.0,0.0,0.0,0.0,0.0,0.0,0.0,0.0,0.0,0.0,0.0,0.0,0.0,0.0,0.0,0.0,0.0,0.0,0.0,0.0,0.0,0.0,0.0,0.0,0.0,-0.8132,-0.9352,-0.976,-0.9813,-1.0041,0.0,0.0,0.0,0.0,0.0,0.0,-1.298,-1.4451,-1.5583,-1.6218,-1.7354,-1.8264,-1.8889,-1.9127,-1.9246,-1.9246,-1.9988,-2.0336,-2.0384,-2.1082,-2.1432,-2.1433,-2.1483,-2.1483,-2.1324,-1.9134,-1.8278,-1.8286,-1.7832,-1.769,-1.777,-1.799,-1.8095,-1.8165,-1.8228,-1.8231,-1.824,-1.8378,-1.7556,-1.6354,-1.5492,0.0,0.0,0.0,0.0,-1.3433,-1.3746,-1.4023,-1.4132,-1.3674,-1.3451,-1.316,-1.2596,-1.2023,-1.1423,-1.0677,-0.9607,-0.8837,-0.8837,-0.8331,0.0,-0.8145,-0.8924,-0.955,-0.9683,-1.0051,-1.0275,-1.0186,-1.0034,-0.9918,-0.988,-0.9673,-0.9358,-0.8909,-0.8377,-0.7678,-0.6813,-0.5954,-0.5283,-0.4805,0.0,0.0,0.0,0.0,0.0,0.0,0.0,0.0,0.0,0.0,0.0,0.0,0.0,0.0,0.0,0.0,0.0,0.0,0.0,0.0,0.0,0.0,0.0,0.0,0.0,0.0,0.0,0.0,0.0,-1.1306,-1.1487,0.0,0.0,0.0,0.0,-1.2564,-1.3854,-1.464,-1.4684,-1.661,-1.7969,-1.8509,-1.9635,-2.049,-2.1037,-2.0814,-2.0684,-2.0699,-2.1442,-2.1841,-2.1927,-2.2716,-2.3107,-2.3178,-2.3299,-2.3351,-2.3172,-2.0703,-1.9735,-1.9812,-1.9901,-1.9975,-2.0129,-2.0884,-2.1205,-2.1283,-2.1342,-2.1297,-2.1273,-2.1843,-2.0669,-1.8868,-1.7987,-1.6683,0.0,0.0,-1.52,-1.5308,-1.5067,-1.5207,-1.5408,-1.5388,-1.4925,-1.438,-1.3831,-1.3242,-1.2483,-1.1371,-1.0232,-0.9459,-0.9459,0.0,-0.8746,-0.9328,-0.9459,-0.9683,-1.0195,-1.0274,-1.0249,-1.0122,-1.0046,-0.9931,-0.9815,-0.9736,-0.9606,-0.9373,-0.8334,-0.7588,-0.728,-0.6136,-0.5283,-0.4805,-0.4732,0.0,0.0,0.0,0.0,0.0,0.0,0.0,0.0,0.0,0.0,0.0,0.0,0.0,0.0,0.0,0.0,0.0,0.0,0.0,0.0,0.0,0.0,0.0,0.0,0.0,0.0,0.0,0.0,-1.2955,-1.3507,0.0,-1.4508,-1.4332,-1.4395,-1.4905,-1.6335,-1.7373,-1.7803,-1.94,-2.0729,-2.1694,-2.1768,-2.2068,-2.2619,-2.2313,-2.2155,-2.2155,-2.2424,-2.2621,-2.278,-2.3212,-2.3481,-2.3634,-2.3769,-2.4133,-2.4597,-2.3704,-2.2965,-2.2411,-2.2459,-2.2508,-2.262,-2.2899,-2.2998,-2.2981,-2.3046,-2.2916,-2.2587,-2.1988,-2.1144,-2.0122,-1.8857,-1.8045,-1.742,-1.6697,-1.6329,-1.6156,-1.6236,-1.6165,-1.6075,-1.6075,-1.5905,-1.5487,-1.4507,-1.3866,-1.3242,-1.2444,-1.1644,-1.1108,-1.1108,-1.0925,-1.086,-1.1082,-1.1108,-1.1056,-1.0899,-1.0873,-1.0704,-1.0225,-1.0034,-0.9906,-0.9867,-0.9685,-0.9515,-0.9409,-0.8492,-0.7757,-0.7324,-0.6382,-0.5692,-0.5262,-0.4959,-0.4492,0.0,0.0,0.0,0.0,0.0,0.0,0.0,0.0,0.0,0.0,0.0,0.0,0.0,0.0,0.0,0.0,0.0,0.0,0.0,0.0,0.0,0.0,0.0,0.0,0.0,0.0,-1.3387,-1.4184,-1.4939,-1.5606,-1.615,-1.6194,-1.6405,-1.694,-1.8653,-1.9857,-2.0243,-2.1611,-2.2777,-2.3712,-2.3486,-2.3488,-2.377,-2.3485,-2.3229,-2.3042,-2.3317,-2.3572,-2.3819,-2.4256,-2.4577,-2.4796,-2.4945,-2.5495,-2.6235,-2.6235,-2.6034,-2.5631,-2.5046,-2.4846,-2.488,-2.483,-2.4746,-2.4661,-2.4508,-2.4213,-2.374,-2.2764,-2.2053,-2.1394,-2.0411,-1.9884,-1.9489,-1.8699,-1.8008,-1.7492,-1.7526,-1.7117,-1.6663,-1.6663,-1.6532,-1.6179,-1.5369,-1.4598,-1.3961,-1.3556,-1.2675,-1.2007,-1.2007,-1.2007,-1.2007,-1.2007,-1.2007,-1.1864,-1.1514,-1.1318,-1.1017,-1.0547,-1.0187,-0.9944,-0.9905,-0.9712,-0.9541,-0.9409,-0.8628,-0.7967,-0.7522,-0.6742,-0.6138,-0.5702,-0.5107,-0.4648,-0.4336,0.0,0.0,0.0,0.0,0.0,0.0,0.0,0.0,0.0,0.0,0.0,0.0,0.0,0.0,0.0,0.0,0.0,0.0,0.0,0.0,0.0,0.0,0.0,-1.0513,-1.2505,-1.4247,-1.4974,-1.5799,-1.6308,-1.6308,-1.7687,-1.8583,-1.8618,-2.0743,-2.1996,-2.1906,-2.3219,-2.4116,-2.4448,-2.4713,-2.4749,-2.4549,-2.4351,-2.3943,-2.3389,-2.4173,-2.4728,-2.5092,-2.5927,-2.6453,-2.6725,-2.694,-2.745,-2.8151,-2.8151,-2.8682,-2.9317,-2.7555,-2.6842,-2.6826,-2.6674,-2.6521,-2.6314,-2.5791,-2.5304,-2.4843,-2.4431,-2.3584,-2.2718,-2.2703,-2.2254,-2.163,-2.1126,-2.0253,-1.9335,-1.8933,-1.8024,-1.7225,-1.7199,-1.6807,-1.6415,-1.6388,-1.5474,-1.4655,-1.4598,-1.3236,-1.2086,-1.2059,-1.2059,-1.2059,-1.2059,-1.2059,0.0,-1.2033,-1.1579,-1.1213,-1.1105,-1.0521,-1.0072,-0.9931,-0.9841,-0.9685,-0.9422,-0.8704,-0.8176,-0.7909,-0.7195,-0.6581,-0.6126,-0.5276,-0.4836,-0.4836,0.0,0.0,0.0,0.0,0.0,0.0,0.0,0.0,0.0,0.0,0.0,0.0,0.0,0.0,0.0,0.0,0.0,0.0,0.0,0.0,0.0,-1.1446,-1.3006,-1.2953,-1.4453,-1.5843,-1.6571,-1.7879,-1.8731,-1.8731,-1.9601,-2.0409,-2.0989,-2.2136,-2.3258,-2.4279,-2.5065,-2.5695,-2.6131,-2.5725,-2.5519,-2.5513,-2.5281,-2.513,-2.5116,-2.5476,-2.5806,-2.61,-2.6489,-2.6808,-2.7069,-2.7277,-2.8132,-2.9412,-2.9412,-3.0245,-3.1341,-2.8852,-2.7827,-2.7657,-2.6945,-2.6503,-2.6205,-2.5809,-2.54,-2.4993,-2.463,-2.4055,-2.3414,-2.2911,-2.2615,-2.2247,-2.1395,-2.0755,-2.0139,-1.9253,-1.8573,-1.8012,-1.7476,-1.7169,-1.6872,-1.648,-1.6127,-1.5662,-1.4768,-1.4206,-1.3762,-1.337,-1.3304,-1.3304,-1.3304,-1.3304,-1.3147,-1.2716,-1.2507,-1.2116,-1.1252,-1.1003,-1.069,-1.0161,-0.997,-0.9776,-0.9566,-0.8667,-0.8077,-0.7909,-0.7195,-0.6736,-0.6612,-0.6044,-0.5744,0.0,0.0,0.0,0.0,0.0,0.0,0.0,0.0,0.0,0.0,0.0,0.0,0.0,0.0,0.0,0.0,0.0,0.0,0.0,0.0,0.0,0.0,-1.3434,-1.5109,-1.5377,-1.6132,-1.6817,-1.7246,-1.8721,-1.9819,-2.0128,-2.1129,-2.2113,-2.2903,-2.3962,-2.4923,-2.5761,-2.6355,-2.675,-2.6873,-2.6349,-2.6067,-2.61,-2.5923,-2.5943,-2.6191,-2.6686,-2.7063,-2.7317,-2.7809,-2.8129,-2.8339,-2.85,-2.9293,-3.0445,-3.0445,-3.1231,-3.2178,0.0,0.0,0.0,0.0,-2.6939,-2.6664,-2.6702,-2.6283,-2.5678,-2.53,-2.4642,-2.3912,-2.3449,-2.3203,-2.2939,-2.2279,-2.1697,-2.1061,-2.0238,-1.9331,-1.8499,-1.7988,-1.7508,-1.7107,-1.6794,-1.6558,-1.6179,-1.5487,-1.4956,0.0,-1.4197,-1.3961,-1.3804,-1.3804,-1.3804,-1.3674,-1.332,-1.3059,-1.2653,-1.1986,-1.1684,-1.1263,-1.0599,-1.0402,0.0,0.0,0.0,-0.8312,-0.8029,-0.7428,0.0,0.0,0.0,0.0,0.0,0.0,0.0,0.0,-0.5028,-0.508,0.0,0.0,0.0,0.0,0.0,0.0,0.0,0.0,0.0,0.0,0.0,0.0,0.0,0.0,0.0,0.0,-1.5577,-1.676,-1.7409,-1.746,-1.7466,-1.7571,-1.8984,-2.0251,-2.0989,-2.2452,-2.3699,-2.4502,-2.5823,-2.6605,-2.6618,0.0,0.0,0.0,0.0,-2.6453,-2.6487,-2.6401,-2.6538,-2.6894,-2.7759,-2.8303,-2.8588,-2.9364,-2.9793,-2.9923,-3.0056,-3.0527,-3.1194,-3.1194,-3.1616,-3.2125,-3.0739,-2.9995,-2.9606,-2.8373,-2.771,-2.7479,-2.7846,0.0,0.0,-2.607,-2.5196,-2.4261,-2.4067,-2.3818,-2.3551,-2.3385,-2.2761,-2.2011,-2.1472,-2.0134,-1.8868,-1.8586,-1.7843,-1.7199,-1.7199,-1.682,-1.6467,-1.6402,-1.5526,-1.4755,-1.4611,-1.4158,-1.3804,-1.3804,-1.3804,-1.3804,-1.3804,-1.3333,-1.298,-1.2915,-1.2413,0.0,-1.1164,-1.1015,-1.0592,-0.9729,-0.9216,-0.8753,-0.8298,-0.7825,-0.7576,-0.7576,-0.7173,-0.6953,-0.6953,-0.6953,-0.6953,-0.6943,-0.6426,-0.6209,0.0,0.0,0.0,0.0,0.0,0.0,0.0,0.0,0.0,0.0,0.0,0.0,0.0,0.0,0.0,-1.4941,-1.6378,-1.739,-1.7489,-1.7945,-1.8502,-1.917,-2.0609,-2.1838,-2.2581,-2.4037,-2.5296,-2.6104,-2.6423,-2.6844,-2.7441,-2.7545,-2.7526,-2.7419,-2.7003,-2.6856,-2.6956,-2.684,-2.7213,-2.8078,0.0,0.0,-2.9615,-2.9788,-2.9941,-3.0056,-3.009,-3.0527,-3.1194,-3.1194,-3.1282,-3.1405,-3.0921,-3.0162,-2.9247,-2.8845,-2.8483,-2.8108,-2.7493,-2.706,-2.66,-2.5721,-2.4961,-2.4333,-2.4141,-2.3867,0.0,-2.3494,-2.3252,-2.2834,-2.1865,-2.0731,-1.9616,-1.8781,-1.7879,-1.7199,-1.7199,-1.712,-1.6911,-1.648,-1.6205,-1.5735,-1.4768,-1.4158,-1.3804,-1.3804,-1.3804,-1.3804,-1.3804,-1.37,-1.3438,-1.2954,-1.281,-1.2448,-1.1774,-1.1518,-1.1216,-1.0822,-0.9802,-0.9081,-0.8776,-0.8315,-0.8077,-0.8077,-0.7969,-0.7932,-0.7932,-0.7932,-0.7932,-0.7911,-0.7069,-0.686,0.0,0.0,0.0,0.0,0.0,0.0,0.0,0.0,0.0,0.0,0.0,-1.2383,-1.3955,0.0,-1.62,-1.6463,-1.7466,-1.8173,-1.8055,-1.8307,-1.8793,-1.9591,-2.1059,-2.2447,-2.3576,-2.5103,-2.6332,-2.7087,-2.7157,-2.7315,-2.7683,-2.7674,-2.7615,-2.7557,-2.7654,-2.7766,-2.7896,-2.8178,-2.859,-2.9169,-2.9683,-3.0149,-3.055,-3.097,-3.1196,-3.1247,-3.1247,-3.1458,-3.1791,-3.1791,-3.1791,-3.1774,-3.162,-3.0595,-2.921,-2.9385,-2.9001,-2.8392,-2.8298,-2.7726,-2.6934,-2.6231,-2.5377,-2.4583,-2.4287,-2.3931,-2.3595,-2.3545,-2.3501,-2.3274,-2.249,-2.1282,-2.0074,-1.9317,-1.8148,-1.7199,-1.7199,-1.7199,-1.712,-1.6846,-1.6584,-1.6205,-1.5591,-1.4786,-1.4118,-1.3844,-1.3804,-1.3804,-1.3804,-1.3804,-1.3687,-1.3386,-1.3346,-1.3076,-1.2352,-1.1695,-1.114,-1.0775,-1.0091,-0.9557,-0.9211,-0.8978,-0.8854,-0.8854,-0.8653,-0.8554,-0.8554,-0.8315,-0.8201,-0.8191,-0.7711,-0.7752,0.0,0.0,0.0,0.0,0.0,0.0,0.0,0.0,-1.1396,-1.2209,-1.3528,-1.4825,-1.5784,-1.7022,-1.7904,-1.7934,-1.8431,-1.8779,-1.8641,-1.8563,-1.8803,-1.9612,-2.1182,-2.2815,-2.4361,-2.591,-2.7069,-2.7648,-2.7701,-2.7701,-2.7701,-2.7701,-2.7742,-2.7859,-2.8312,-2.8698,-2.8969,-2.9515,-2.9896,-3.0167,-3.0845,-3.1282,-3.1458,-3.209,-3.2406,-3.2406,-3.2406,-3.2406,-3.2406,-3.2406,-3.2406,-3.2388,-3.2249,-3.1098,-2.9555,-2.9897,-2.9441,-2.8661,-2.8903,-2.826,-2.721,-2.6664,-2.5769,-2.4823,-2.4426,-2.3973,-2.3595,-2.3595,-2.3595,-2.3486,-2.3024,-2.1649,-2.028,-1.9809,-1.8403,-1.7199,-1.7199,-1.7199,-1.7199,-1.7199,-1.6846,-1.6519,-1.6415,-1.5578,-1.4716,-1.4066,-1.387,-1.3804,-1.3804,-1.3804,-1.3804,-1.3804,-1.3804,-1.3526,-1.2839,-1.1962,-1.1212,-1.0707,-1.0393,-1.0063,-0.966,-0.9544,-0.9493,-0.9493,-0.9175,-0.902,-0.902,-0.8632,-0.8456,-0.8456,-0.8456,-0.8611,-1.2354,-1.1984,-1.183,-1.1665,-1.1631,-1.1626,0.0,0.0,-1.3058,-1.3864,-1.4733,-1.5838,-1.7356,-1.7773,-1.8093,-1.8661,-1.8834,-1.8843,-1.8706,-1.8638,-1.887,-1.961,-2.1633,-2.3581,-2.5138,-2.6665,-2.7613,-2.7683,-2.7701,-2.7701,-2.7701,-2.7701,-2.8017,-2.8721,-2.8829,-2.9215,-2.9951,-3.0023,-3.039,-3.1055,-3.1142,-3.1563,-3.2265,-3.2353,-3.2406,-3.2406,-3.2406,-3.2406,-3.2406,-3.2406,-3.2406,-3.2388,-3.2249,-3.1551,-3.0594,-3.0287,-2.9878,-2.9273,-2.7983,-2.7431,-2.7127,-2.6078,-2.5349,-2.4823,-2.4426,-2.3973,-2.3595,-2.3595,-2.3595,-2.3486,-2.3024,-2.1649,-2.028,-1.9809,-1.8403,-1.7199,-1.7199,-1.7199,-1.7199,-1.7199,-1.7146,-1.6963,-1.648,-1.6284,-1.58,-1.4676,-1.4105,-1.3804,-1.3804,-1.3804,-1.3804,-1.3804,-1.3804,-1.3619,-1.3192,-1.2817,-1.233,-1.1678,-1.1056,-1.054,-1.0146,-0.9726,-0.9493,-0.9493,-0.9458,-0.9437,-0.9437,-0.9386,-0.9355,-0.9355,-0.9355,-0.9195,-1.3684,-1.3813,-1.4089,0.0,-1.4386,-1.4698,-1.4685,-1.4945,-1.5422,-1.6237,-1.6653,-1.724,-1.8389,-1.8606,-1.8672,0.0,-1.894,-1.8878,-1.877,-1.8668,-1.8874,-1.9603,-2.0923,-2.2552,-2.4572,-2.6156,-2.7245,-2.7666,-2.7701,-2.7701,-2.7701,-2.7701,-2.807,-2.8877,-2.9351,-2.9966,-3.0738,-3.1194,-3.1598,-3.1897,-3.1897,-3.2072,-3.2406,-3.2406,-3.2406,-3.2388,-3.244,-3.2474,-3.2456,-3.2507,-3.2506,-3.2506,-3.2404,-3.2039,-3.1463,-3.0674,-2.9573,-2.8395,-2.7666,-2.7073,-2.6546,-2.5815,-2.5269,-2.4823,-2.4426,-2.3973,-2.3595,-2.3595,-2.3595,-2.3486,-2.3024,-2.1649,-2.028,-1.9809,-1.8403,-1.7199,-1.7199,-1.7199,-1.7199,-1.7199,-1.7199,-1.7133,-1.6898,-1.6598,-1.6219,-1.5722,-1.4859,-1.4141,-1.3844,-1.3804,-1.3804,-1.3804,-1.3691,-1.351,-1.3207,-1.2843,-1.2401,-1.1829,-1.1399,-1.099,-1.0621,-1.0417,-1.0314,-1.0314,-1.0126,-1.0033,-1.0074,-0.9801,-0.9676,-0.9676,-0.9676,-0.9734,-1.4651,-1.5115,-1.5622,-1.559,-1.6155,-1.6693,-1.6693,-1.6874,-1.7201,-1.7773,-1.79,-1.8153,-1.895,-1.8914,-1.8825,-1.8965,-1.8948,-1.8896,-1.8833,-1.8715,-1.8816,-1.9341,-2.0048,-2.141,-2.3746,-2.5366,-2.6683,-2.7631,-2.7701,-2.7701,-2.7701,-2.7701,-2.8175,-2.9211,-2.9808,-3.0562,-3.151,-3.2107,-3.2406,-3.2406,-3.2406,-3.2406,-3.2406,-3.2406,-3.2406,-3.2388,-3.2473,-3.2506,-3.254,-3.2623,-3.2672,-3.2672,-3.2574,-3.2247,-3.1742,-3.0887,-2.95,-2.7918,-2.7354,-2.6744,-2.6132,-2.5754,-2.5288,-2.4839,-2.4467,-2.3994,-2.3595,-2.3595,-2.3595,-2.3486,-2.3068,-2.1671,-2.028,-1.9867,-1.8446,-1.7199,-1.7199,-1.7199,-1.7199,-1.7199,-1.7199,-1.7199,-1.7199,-1.6872,-1.6558,-1.6415,-1.5513,-1.4655,-1.4092,-1.3896,-1.3804,-1.3804,-1.3611,-1.3412,-1.3185,-1.2756,-1.2282,-1.1774,-1.1519,-1.1241,-1.09,-1.091,-1.091,-1.091,-1.0709,-1.0676,-1.0791,-1.0437,-1.0265,-1.0265,-1.0265,-1.0458,-1.4722,-1.52,-1.5685,-1.5615,-1.6155,-1.6693,-1.6693,-1.7309,-1.7863,-1.7881,-1.79,-1.8153,-1.895,-1.8461,-1.8173,-1.8875,-1.901,-1.8976,-1.8914,-1.8779,-1.8678,-1.8639,-1.9283,-2.0627,-2.2914,-2.4541,-2.6068,-2.7596,-2.7701,-2.7701,-2.7701,-2.7701,-2.8421,-3.0002,-3.0088,-3.0843,-3.2353,-3.2388,-3.2406,-3.2406,-3.2406,-3.2406,-3.2406,-3.2406,-3.2406,-3.2388,-3.2473,-3.254,-3.2606,-3.274,-3.2838,-3.2868,-3.2672,-3.203,-3.1196,-3.089,-2.9933,-2.8525,-2.6901,-2.6292,-2.615,-2.5809,-2.5346,-2.4859,-2.4584,-2.4073,-2.3595,-2.3595,-2.3595,-2.3508,-2.3194,-2.1737,-2.0302,-1.9962,-1.8511,-1.7199,-1.7199,-1.7199,-1.7199,-1.7199,-1.7199,-1.7199,-1.7199,-1.7186,-1.699,-1.648,-1.5866,-1.5251,-1.465,-1.4132,-1.3804,-1.3804,-1.3611,-1.3395,-1.3126,-1.2726,-1.2246,-1.1641,-1.1431,-1.118,-1.09,-1.091,-1.091,-1.091,-1.108,-1.1266,-1.1475,-1.1464,-1.1454,-1.1454,-1.1454,-1.1464,-1.5412,-1.6435,-1.733,-1.7286,-1.7774,-1.828,-1.828,-1.8497,-1.8534,-1.8008,-1.8316,-1.8443,-1.7646,-1.8153,-1.8598,-1.831,-1.8726,-1.9036,-1.8931,-1.8825,-1.8724,-1.8604,-1.8772,0.0,-2.2826,-2.405,0.0,-2.7543,-2.7701,-2.7701,-2.7701,-2.821,-2.8983,-3.0071,-3.058,-3.1335,-3.2388,-3.2406,-3.2406,-3.2406,-3.2457,-3.249,-3.254,-3.254,-3.2591,-3.2675,-3.2691,-3.274,-3.282,-3.2902,-3.2963,-3.3008,-3.285,-3.2497,-3.1911,-3.0608,-2.9661,-2.8843,-2.7685,-2.6905,-2.6345,-2.5954,-2.5495,-2.5036,-2.467,-2.424,-2.3861,-2.3861,-2.3861,-2.3775,-2.3326,-2.1881,-2.0444,-1.9984,-1.8511,-1.7199,-1.7199,-1.7199,-1.7199,-1.7199,-1.7199,-1.7199,-1.7199,-1.7199,-1.6872,-1.5931,-1.5291,-1.4689,-1.4145,-1.3922,-1.3804,-1.3804,-1.359,-1.3293,-1.2931,-1.2532,-1.2102,-1.1634,-1.149,-1.1389,-1.1303,-1.126,-1.1195,-1.109,-1.1298,-1.1493,-1.17,-1.1744,-1.1811,-1.1902,-1.1902,-1.1902,-1.5868,-1.7077,-1.8181,-1.8111,-1.8591,-1.9095,-1.9095,-1.8878,-1.8516,-1.8008,-1.7845,-1.7584,-1.6838,-1.7545,-1.8171,-1.7936,-1.8588,-1.9043,-1.8913,-1.9326,-1.9587,-1.9471,-1.9864,-2.1136,0.0,0.0,0.0,-2.7543,-2.7701,-2.7701,-2.7701,-2.8193,-2.8983,-3.0071,-3.0562,-3.1317,-3.2388,-3.2406,-3.2406,-3.2406,-3.249,-3.2589,-3.2669,-3.2719,-3.2802,-3.2916,-3.29,-3.2932,-3.2979,-3.3075,-3.3152,-3.3196,-3.3024,-3.2818,-3.243,-3.0881,-2.985,-2.9075,-2.7826,-2.701,-2.6433,-2.6061,-2.5589,-2.5134,-2.4775,-2.4364,-2.4003,-2.4003,-2.4003,-2.3897,-2.3473,-2.2142,-2.0812,-2.0368,-1.9002,-1.7813,-1.7813,-1.7813,-1.7748,-1.7565,-1.7525,-1.7447,-1.7238,-1.7199,-1.6885,-1.5957,-1.5304,-1.4655,-1.3909,-1.3804,-1.3804,-1.3804,-1.3522,-1.3134,-1.2668,-1.2336,-1.1993,-1.1597,-1.1582,-1.1649,-1.1719,-1.1593,-1.1474,-1.1306,-1.1501,-1.1704,-1.1902,-1.2011,-1.2156,-1.2282,-1.2294,-1.2294,-1.6135,-1.717,-1.8255,-1.8184,-1.8627,-1.9095,-1.9059,-1.8443,-1.7881,-1.7791,-1.6606,-1.5766,0.0,0.0,-1.7001,-1.7726,-1.8552,-1.9043,-1.8913,-2.0165,-2.1071,0.0,0.0,0.0,0.0,0.0,0.0,-2.7526,0.0,-2.7648,-2.7701,-2.7736,-2.8473,-3.0037,-3.0194,-3.0931,-3.2388,-3.2388,-3.2423,-3.2405,-3.2557,-3.2685,-3.2827,-3.2957,-3.3068,-3.3126,-3.3132,-3.3117,-3.3117,-3.3262,-3.3337,-3.3378,-3.3196,-3.299,-3.2674,-3.1554,-3.0469,-2.9248,-2.7368,-2.6623,-2.6451,-2.6117,-2.5645,-2.5173,-2.4895,-2.4446,-2.4024,-2.4024,-2.4024,-2.394,-2.3596,-2.2513,-2.1393,-2.1013,-1.988,-1.8911,-1.8911,-1.8911,-1.8741,-1.8205,-1.8074,-1.7865,-1.7303,-1.7199,-1.7016,-1.648,-1.5905,-1.5121,-1.3988,-1.3817,-1.3804,-1.3804,-1.3455,-1.2978,-1.236,-1.2192,-1.1938,-1.1553,-1.1719,-1.192,-1.2113,-1.192,-1.1719,-1.1516,-1.1719,-1.1902,-1.2095,-1.2312,-1.2473,-1.262,-1.268,-1.268,-1.7632,-1.8432,-1.9073,-1.9018,-1.9054,-1.895,-1.8334,-1.8045,-1.7555,-1.6363,-1.6262,-1.6088,0.0,0.0,0.0,-1.7074,-1.8171,0.0,-1.8913,-2.0165,0.0,-2.1004,0.0,-2.3704,-2.5261,-2.5401,0.0,0.0,-2.6879,-2.7122,-2.7666,-2.8263,-2.907,-3.0071,-3.1212,-3.2002,-3.2406,-3.2457,-3.2507,-3.2557,-3.2834,-3.3065,-3.324,-3.3383,-3.3488,-3.3526,-3.339,-3.3334,-3.3319,-3.3307,-3.3337,-3.3396,-3.3292,-3.3135,-3.2749,-3.1127,-3.016,-2.9383,-2.7617,-2.6841,-2.659,-2.6277,-2.5813,-2.5368,-2.5048,-2.4609,-2.4219,-2.4219,-2.4219,-2.4114,-2.3696,-2.2593,-2.1453,-2.0999,-1.988,-1.8911,-1.8911,-1.8911,-1.8741,-1.8205,-1.7735,-1.7382,-1.7225,-1.7199,-1.7016,-1.648,-1.6258,-1.5735,-1.4563,-1.4053,-1.3804,-1.3804,-1.3539,-1.3121,-1.2567,-1.2443,-1.2276,-1.1968,-1.2131,-1.233,-1.2538,-1.2258,-1.1993,-1.1719,-1.1833,-1.1961,-1.2095,-1.2347,-1.2597,-1.2826,-1.2843,-1.2843,-1.8304,-1.8896,-1.9387,-1.9312,-1.8924,-1.8459,-1.7998,-1.7371,-1.6526,-1.5241,-1.5049,0.0,-1.3938,-1.5175,0.0,0.0,0.0,0.0,-1.8859,-2.0745,-2.2074,0.0,-2.3849,0.0,-2.6332,-2.6402,-2.6469,0.0,-2.6925,-2.7122,-2.721,-2.8298,-2.9263,-3.0055,-3.1247,-3.2037,-3.2406,-3.2507,-3.2589,-3.2685,-3.305,-3.3364,-3.3616,-3.3762,-3.3873,-3.3908,-3.3739,-3.3601,-3.352,-3.3466,-3.3408,-3.3411,-3.3367,-3.3274,-3.2988,-3.1474,-3.0474,-2.965,-2.8175,-2.7229,-2.6641,-2.6313,-2.5868,-2.5427,-2.5107,-2.467,-2.4302,-2.4302,-2.4302,-2.4198,-2.3724,-2.2842,-2.1947,-2.1416,-2.0509,-1.9753,-1.9706,-1.9693,-1.9433,-1.861,-1.7774,-1.7199,-1.7199,-1.7199,-1.7094,-1.6794,-1.6545,-1.6049,-1.5126,-1.4493,-1.4066,-1.3831,-1.359,-1.3259,-1.2766,-1.2691,-1.2567,-1.2336,-1.2508,-1.2715,-1.292,-1.2609,-1.2276,-1.195,-1.1968,-1.2016,-1.2095,-1.2419,-1.275,-1.303,-1.303,-1.303,-1.8591,-1.897,-1.935,-1.9191,-1.8528,-1.7837,-1.7506,-1.6402,-1.5169,-1.4192,0.0,-1.2948,-1.2948,-1.3684,-1.4759,-1.6142,0.0,-1.8103,-1.8661,-2.1253,-2.3146,-2.3283,-2.5715,-2.7473,-2.7683,-2.7701,-2.7414,-2.675,-2.7355,-2.7414,-2.6676,-2.8085,-2.9369,-3.0369,-3.1035,-3.172,-3.2422,-3.259,-3.2734,-3.289,-3.3284,-3.3662,-3.3959,-3.4086,-3.4173,-3.4221,-3.4086,-3.3908,-3.3726,-3.3629,-3.3534,-3.3408,-3.3393,-3.3393,-3.324,-3.2023,-3.0931,-2.9911,-2.867,-2.7552,-2.6641,-2.6313,-2.5868,-2.5427,-2.5107,-2.467,-2.4302,-2.4302,-2.4302,-2.4198,-2.3739,-2.3179,-2.2572,-2.1983,-2.1353,-2.0863,-2.0737,-2.0581,-2.0124,-1.9002,-1.7931,-1.7199,-1.7199,-1.7199,-1.7199,-1.7199,-1.6794,-1.6258,-1.5578,-1.4964,-1.4389,-1.3857,-1.3628,-1.3365,-1.298,-1.2936,-1.2843,-1.2656,-1.2826,-1.3012,-1.3181,-1.2885,-1.2538,-1.215,-1.215,-1.215,-1.215,-1.2538,-1.2885,-1.3198,-1.3198,-1.3198,-1.9482,-1.9448,-1.9247,-1.8554,-1.8185,-1.7464,-1.5456,-1.48,0.0,0.0,-1.2237,-1.2115,-1.2115,-1.3304,-1.439,-1.4662,0.0,0.0,0.0,0.0,-2.1949,0.0,0.0,0.0,0.0,-2.7701,0.0,0.0,-2.7469,-2.7604,-2.6812,-2.817,-2.9908,-3.1932,-3.2192,-3.2365,-3.2556,-3.2866,-3.3114,-3.3299,-3.3698,-3.4005,-3.4233,-3.4305,-3.4351,-3.4351,-3.4221,-3.4049,-3.3873,-3.3739,-3.3605,-3.3481,-3.3408,-3.3393,-3.3201,-3.1428,-3.0503,-2.9841,-2.8029,-2.7091,-2.6641,-2.6313,-2.5868,-2.5427,-2.5107,-2.467,-2.4302,-2.4302,-2.4302,-2.4219,-2.3846,-2.3246,-2.2603,-2.2217,-2.1485,-2.0888,-2.0863,-2.0,-1.9015,-1.8375,-1.7682,-1.7199,-1.7199,-1.7199,-1.7199,-1.7199,-1.712,-1.6676,-1.563,-1.4964,-1.4389,-1.3857,-1.3661,-1.3467,-1.3165,-1.3138,-1.3064,-1.2861,-1.2978,-1.3112,-1.3198,-1.2925,-1.2644,-1.2347,-1.2347,-1.2347,-1.2347,-1.2644,-1.2938,-1.3198,-1.3198,-1.3198,-1.907,-1.9252,-1.9246,-1.8416,-1.7805,-1.6897,-1.4866,0.0,0.0,0.0,-1.1307,-1.1287,-1.1287,-1.1921,0.0,0.0,0.0,0.0,0.0,0.0,0.0,0.0,0.0,0.0,0.0,0.0,-2.6929,-2.6238,-2.6601,-2.7023,-2.7398,-2.9203,-3.0872,-3.2353,-3.2507,-3.2605,-3.2749,-3.3096,-3.3422,-3.373,-3.4005,-3.4245,-3.4416,-3.4473,-3.4506,-3.4495,-3.4386,-3.4257,-3.4099,-3.3959,-3.3793,-3.3605,-3.352,-3.3466,-3.3222,-3.1718,-3.0734,-2.9876,-2.8341,-2.733,-2.6641,-2.6313,-2.5868,-2.5427,-2.5107,-2.467,-2.4302,-2.4302,-2.4302,-2.4219,-2.3882,-2.329,-2.2709,-2.2301,-2.1533,-2.0784,-2.0419,-1.9585,-1.8741,-1.8205,-1.7617,-1.7199,-1.7199,-1.7199,-1.7199,-1.7199,-1.7199,-1.6898,-1.6062,-1.5434,-1.4729,-1.3896,-1.3741,-1.3611,-1.3365,-1.3357,-1.3271,-1.3064,-1.3112,-1.3163,-1.3198,-1.2978,-1.2738,-1.2508,-1.2538,-1.2538,-1.2508,-1.2738,-1.2978,-1.3198,-1.3198,-1.3198,-1.8508,-1.9006,-1.9265,-1.8236,-1.7449,-1.6395,-1.4368,-1.3466,0.0,-1.0812,-1.0458,-1.0431,-1.0431,0.0,-1.1377,0.0,-1.4608,0.0,0.0,0.0,0.0,0.0,0.0,0.0,0.0,0.0,0.0,-2.6032,-2.6229,-2.6916,-2.8202,-3.0079,-3.1519,-3.2422,-3.2607,-3.2782,-3.2981,-3.3328,-3.3684,-3.4074,-3.4257,-3.4416,-3.4517,-3.4591,-3.4612,-3.4602,-3.4539,-3.445,-3.4305,-3.4173,-3.3959,-3.3712,-3.3629,-3.3524,-3.324,-3.1933,-3.0896,-2.9911,-2.86,-2.7501,-2.6641,-2.6313,-2.5868,-2.5427,-2.5107,-2.467,-2.4302,-2.4302,-2.4302,-2.4219,-2.3925,-2.337,-2.2731,-2.21,-2.1412,-2.069,-1.9797,-1.9237,-1.8702,-1.8035,-1.7525,-1.7199,-1.7199,-1.7199,-1.7199,-1.7199,-1.7199,-1.7003,-1.6467,-1.5983,-1.5238,-1.4092,-1.387,-1.3725,-1.3527,-1.3497,-1.3408,-1.3215,-1.3198,-1.3198,-1.3198,-1.303,-1.2861,-1.2673,-1.2715,-1.2715,-1.2656,-1.2843,-1.303,-1.3198,-1.3198,-1.3198,-1.8508,-1.902,-1.9203,-1.7603,-1.7108,-1.6165,-1.302,0.0,-1.1732,-1.0051,-0.9651,-0.9617,-0.9617,-1.0209,-1.1015,0.0,0.0,-1.495,0.0,0.0,0.0,0.0,0.0,0.0,0.0,0.0,0.0,-2.6972,-2.7712,-2.8461,-2.9151,-3.0003,-3.1131,-3.2554,-3.2816,-3.3068,-3.3258,-3.3662,-3.3998,-3.4269,-3.4397,-3.4517,-3.4583,-3.4602,-3.4612,-3.4602,-3.4583,-3.4517,-3.4374,-3.4245,-3.4036,-3.378,-3.3643,-3.3524,-3.3183,-3.1356,-3.045,-2.9823,-2.7962,-2.704,-2.6641,-2.6313,-2.5868,-2.5427,-2.5107,-2.467,-2.4302,-2.4302,-2.4302,-2.424,-2.4046,-2.3436,-2.2595,-2.1385,-2.1046,-2.0618,-1.9271,-1.8937,-1.8584,-1.7486,-1.7238,-1.7199,-1.7199,-1.7199,-1.7199,-1.7199,-1.7199,-1.7003,-1.6467,-1.6349,-1.5853,-1.465,-1.4092,-1.3725,-1.3527,-1.3497,-1.3408,-1.3215,-1.3198,-1.3198,-1.3198,-1.3112,-1.3025,-1.2878,-1.2878,-1.2878,-1.2861,-1.3012,-1.3112,-1.3198,-1.3198,-1.3198,-1.6919,-1.7599,-1.7882,-1.672,-1.6359,-1.5542,-1.2746,0.0,-1.1622,-0.9946,-0.9589,-0.9568,-0.9556,-0.9828,-1.0449,0.0,-1.2839,-1.4287,-1.6305,0.0,0.0,0.0,0.0,0.0,0.0,0.0,0.0,-2.5146,-2.5817,-2.6787,-2.8035,-2.964,-3.0769,-3.1315,-3.2076,-3.2589,-3.288,-3.3637,-3.4173,-3.4484,-3.4528,-3.4561,-3.4612,-3.4612,-3.4612,-3.4612,-3.4612,-3.4561,-3.4506,-3.4393,-3.4161,-3.3908,-3.378,-3.3281,-3.2513,-3.1105,-3.0077,-2.9176,-2.7719,-2.6972,-2.6641,-2.6313,-2.5868,-2.5427,-2.5107,-2.467,-2.4297,-2.4234,-2.425,-2.4166,-2.379,-2.3083,-2.224,-2.1229,-2.0742,-2.0215,-1.9127,-1.8649,-1.8179,-1.7356,-1.7199,-1.7199,-1.7199,-1.7199,-1.7199,-1.7199,-1.7199,-1.712,-1.6911,-1.6598,-1.6075,-1.5225,-1.4642,-1.4093,-1.359,-1.3564,-1.348,-1.3323,-1.3323,-1.3284,-1.3198,-1.3163,-1.3146,-1.3082,-1.3082,-1.3082,-1.3082,-1.3129,-1.3163,-1.3198,-1.3198,-1.3198,-1.554,-1.6466,-1.7032,-1.621,-1.574,-1.4889,0.0,-1.193,-1.1333,-0.9928,-0.9631,-0.9623,-0.9636,-0.9619,-1.0112,0.0,-1.2397,-1.357,-1.594,-1.6977,0.0,0.0,0.0,0.0,0.0,0.0,-2.4825,-2.3869,-2.4446,-2.548,-2.6904,-2.8702,-2.9968,-3.0588,-3.1437,-3.2124,-3.2654,-3.3426,-3.4093,-3.4612,-3.4612,-3.4612,-3.4612,-3.4612,-3.4612,-3.4612,-3.4612,-3.4612,-3.4602,-3.4461,-3.4245,-3.3967,-3.3598,-3.2917,-3.2043,-3.0729,-2.9671,-2.8739,-2.7598,-2.6972,-2.6641,-2.6313,-2.5868,-2.5427,-2.5107,-2.467,-2.4297,-2.4208,-2.4061,-2.3812,-2.3253,-2.2632,-2.1917,-2.0989,-2.046,-1.9907,-1.8901,-1.8375,-1.7917,-1.7316,-1.7199,-1.7199,-1.7199,-1.7199,-1.7199,-1.7199,-1.7199,-1.7199,-1.7199,-1.6872,-1.6336,-1.5578,-1.5108,-1.4523,-1.3679,-1.3598,-1.3531,-1.3408,-1.3408,-1.334,-1.3215,-1.3198,-1.3198,-1.3198,-1.3198,-1.3198,-1.3198,-1.3198,-1.3198,-1.3198,-1.3198,-1.3181,-1.4818,-1.6037,-1.7088,-1.6214,-1.5345,-1.4273,-1.2579,-1.1521,-1.068,-0.9869,-0.9706,-0.9699,-0.9699,-0.9654,-1.0123,-1.1748,-1.1952,-1.2767,-1.5162,-1.6189,0.0,0.0,0.0,0.0,0.0,0.0,-2.5516,-2.3922,-2.4538,0.0,-2.6156,-2.7041,-2.8565,-3.0828,-3.1156,-3.1799,-3.2798,-3.3073,-3.3676,-3.4612,-3.4612,-3.4612,-3.4612,-3.4612,-3.4612,-3.4612,-3.4612,-3.4612,-3.4602,-3.4461,-3.4245,-3.3911,-3.2985,-3.2437,-3.197,-3.0102,-2.921,-2.8739,-2.7598,-2.6972,-2.6641,-2.6313,-2.5868,-2.5427,-2.5107,-2.467,-2.4297,-2.4208,-2.3769,-2.3127,-2.2402,-2.2114,-2.1702,-2.0503,-2.0204,-1.9814,-1.8415,-1.81,-1.7917,-1.7316,-1.7199,-1.7199,-1.7199,-1.7199,-1.7199,-1.7199,-1.7199,-1.7199,-1.7199,-1.7199,-1.6754,-1.5617,-1.5487,-1.498,-1.3705,-1.3598,-1.3531,-1.3408,-1.3408,-1.334,-1.3215,-1.3198,-1.3198,-1.3198,-1.3198,-1.3198,-1.3198,-1.3198,-1.3198,-1.3198,-1.3198,-1.3163,-1.2996,-1.3541,-1.3879,-1.3612,-1.3306,-1.2777,-1.1695,-1.1209,-1.0747,-0.9939,-0.9772,-0.9746,-0.9702,-0.9692,-1.0182,-1.1752,-1.1973,0.0,0.0,0.0,0.0,0.0,0.0,0.0,0.0,0.0,-2.4936,-2.3868,-2.4556,-2.5353,-2.6168,-2.7035,-2.8118,-2.9489,-3.0241,-3.083,-3.1292,-3.1968,-3.2516,-3.2893,-3.2893,-3.2893,-3.2893,-3.2893,-3.2893,-3.2912,-3.3513,-3.3776,-3.3802,-3.4237,-3.391,-3.3142,-3.2746,-3.1756,-3.0469,-2.9689,-2.8841,-2.8005,-2.7392,-2.6972,-2.6641,-2.6313,-2.5868,-2.5427,-2.5107,-2.467,-2.4255,-2.3988,-2.348,-2.2926,-2.2463,-2.2114,-2.1704,-2.1048,-2.0224,-1.9451,-1.8909,-1.8101,-1.7421,-1.7238,-1.7199,-1.7199,-1.7199,-1.7199,-1.7199,-1.7199,-1.7199,-1.7199,-1.7199,-1.7199,-1.6754,-1.5617,-1.5487,-1.5029,-1.3846,-1.3741,-1.3657,-1.3493,-1.3476,-1.3391,-1.3215,-1.3198,-1.3198,-1.3198,-1.3198,-1.3198,-1.3198,-1.3198,-1.3198,-1.3198,-1.3198,-1.3112,-1.1685,-1.2158,-1.2407,-1.2407,-1.2113,-1.1726,-1.1206,-1.0833,-1.0442,-0.9942,-0.983,-0.9823,-0.9784,-0.9753,-1.0249,-1.1824,-1.2036,0.0,0.0,0.0,0.0,0.0,0.0,0.0,0.0,-2.4646,-2.5117,-2.4302,-2.5009,-2.5805,-2.6609,-2.721,-2.7988,-2.8955,-2.9572,-3.0135,-3.0617,-3.1231,-3.1715,-3.2105,-3.2105,-3.2105,-3.2105,-3.2105,-3.2105,-3.2123,-3.2668,-3.31,0.0,-3.3459,-3.3222,-3.2736,-3.1973,-3.0916,-2.9727,-2.9169,-2.8415,-2.7657,-2.7322,-2.6972,-2.6641,-2.6313,-2.5793,-2.525,-2.4851,-2.4523,-2.4193,-2.3824,-2.3414,-2.2949,-2.2449,-2.2114,-2.1714,-2.1042,-2.0134,-1.9279,-1.8883,-1.7995,-1.7253,-1.7199,-1.7199,-1.7199,-1.7199,-1.7199,-1.7199,-1.7199,-1.7199,-1.7199,-1.7199,-1.7199,-1.6754,-1.5617,-1.5487,-1.5047,-1.3909,-1.3804,-1.3708,-1.3514,-1.3497,-1.3408,-1.3215,-1.3198,-1.3198,-1.3198,-1.3198,-1.3198,-1.3198,-1.3198,-1.3198,-1.3198,-1.3198,-1.3077,0.0,-1.161,-1.2219,-1.2219,-1.161,-1.1017,-1.1017,-1.0445,0.0,-0.9903,-0.9903,-0.9919,-0.9975,-0.994,-1.0435,-1.2104,-1.2275,0.0,0.0,0.0,0.0,0.0,0.0,0.0,-2.2843,-2.4798,-2.5805,-2.5063,-2.5805,-2.6609,-2.7363,-2.7584,-2.8134,-2.9067,-2.9169,-2.9675,-3.0623,-3.0751,-3.1194,-3.1936,-3.1936,-3.1936,-3.1936,-3.1936,-3.1936,0.0,-3.1992,-3.248,-3.3164,-3.2337,-3.2255,-3.2459,-3.0845,-3.0002,-2.9595,-2.8564,-2.7989,-2.7657,-2.7322,-2.6972,-2.6641,-2.6278,-2.5624,-2.4906,-2.4426,-2.4234,-2.4103,-2.3717,-2.3458,-2.312,-2.2402,-2.2114,-2.1726,-2.0708,-1.9984,-1.9289,-1.8521,-1.784,-1.7363,-1.722,-1.7199,-1.7199,-1.7199,-1.7199,-1.7199,-1.7199,-1.7199,-1.7199,-1.7199,-1.7199,-1.6781,-1.567,-1.5526,-1.5042,-1.3961,-1.3817,-1.3708,-1.3514,-1.3497,-1.3408,-1.3215,-1.3198,-1.3198,-1.3198,-1.3198,-1.3198,-1.3198,-1.3198,-1.3198,-1.3198,-1.3198,-1.3072,-1.0129,0.0,-1.049,-1.049,-1.0336,-1.0182,0.0,-1.0044,-0.9903,-0.9903,-0.9903,-1.0088,-1.0695,-1.0814,-1.1527,-1.3742,-1.3995,-1.4755,-1.7179,0.0,0.0,0.0,-2.3246,-2.3723,-2.356,-2.4592,-2.5208,-2.5009,-2.6331,-2.7212,-2.7453,-2.823,-2.8835,-2.9177,-2.9343,-2.9586,-2.9926,-2.9974,-3.0077,-3.0265,-3.0265,-3.0265,-3.0265,-3.0265,-3.0265,-3.0302,-3.0922,-3.1306,-3.1503,-3.1869,-3.1585,-3.0907,-3.0403,-2.9661,-2.8827,-2.8367,-2.7989,-2.7657,-2.7322,-2.6972,-2.659,-2.5888,-2.5365,-2.4906,-2.4426,-2.4172,-2.4003,-2.3818,-2.3392,-2.2904,-2.2463,-2.2114,-2.1742,-2.1271,-2.0234,-1.9284,-1.9105,-1.8104,-1.7253,-1.7199,-1.7199,-1.7199,-1.7199,-1.7199,-1.7199,-1.7199,-1.7199,-1.7199,-1.7199,-1.7199,-1.6937,-1.6258,-1.5774,-1.5199,-1.4467,-1.404,-1.3708,-1.3514,-1.3497,-1.3408,-1.3215,-1.3198,-1.3198,-1.3198,-1.3198,-1.3198,-1.3198,-1.3198,-1.3198,-1.3198,-1.3198,-1.3217,-0.9938,-1.0215,-1.0398,-1.0009,-1.0203,-1.0398,-0.999,-0.9897,-0.9903,0.0,0.0,-1.0145,-1.0942,-1.1438,-1.2374,-1.4405,-1.4969,0.0,0.0,0.0,0.0,0.0,-2.3672,-2.3876,0.0,-2.4864,-2.5552,-2.5552,-2.7079,-2.7864,-2.7565,-2.8505,-2.8961,-2.8753,-2.9228,-2.9569,-2.9701,-2.9701,-2.9701,-2.9701,-2.9701,-2.9701,-2.9701,-2.9701,-2.9701,-2.972,-3.0152,-3.0555,-3.0902,-3.0878,-3.0674,-3.0353,-2.9846,-2.9229,-2.8574,-2.8295,-2.7989,-2.7657,-2.7322,-2.6874,-2.6366,-2.5707,-2.5269,-2.4906,-2.4426,-2.4172,-2.3961,-2.376,-2.3414,-2.2898,-2.2107,-2.1694,-2.1324,-2.0677,-1.9723,-1.8946,-1.8857,-1.8024,-1.7274,-1.722,-1.7199,-1.7199,-1.7199,-1.7199,-1.7199,-1.7199,-1.7199,-1.7199,-1.7199,-1.7199,-1.699,-1.6474,-1.6101,-1.567,-1.5055,-1.476,-1.4267,-1.3552,-1.3497,-1.3408,-1.3215,-1.3198,-1.3198,-1.3198,-1.3198,-1.3198,-1.3198,-1.3483,-1.3609,-1.3609,-1.3873,-1.3915,-0.9993,-1.0685,-1.1185,-1.0326,-1.0653,-1.104,-1.0433,0.0,0.0,0.0,0.0,0.0,0.0,-1.2275,0.0,0.0,0.0,0.0,0.0,0.0,0.0,-2.4023,-2.4056,0.0,-2.3837,-2.5176,-2.6088,-2.6215,-2.7532,-2.8124,-2.7638,-2.8334,-2.8508,-2.8034,-2.8754,-2.9205,-2.9326,-2.9439,-2.9495,-2.9495,-2.9495,-2.957,-2.9701,-2.9701,-2.9701,-2.9701,-2.9701,-3.0096,-3.064,-2.984,-2.9781,-3.012,-2.932,-2.8852,-2.8574,-2.8295,-2.7989,-2.7639,-2.726,-2.6708,-2.6118,-2.5649,-2.5269,-2.4906,-2.4426,-2.4172,-2.394,-2.3588,-2.337,-2.2915,-2.1605,-2.1145,-2.0789,-1.9773,-1.9046,-1.8529,-1.8336,-1.7821,-1.7329,-1.722,-1.7199,-1.7199,-1.7199,-1.7199,-1.7199,-1.7199,-1.7199,-1.7199,-1.7199,-1.7199,-1.7029,-1.6558,-1.6441,-1.6179,-1.567,-1.5539,-1.5014,-1.3865,-1.3801,-1.3659,-1.3358,-1.3253,-1.3198,-1.3198,-1.3198,-1.3248,-1.3341,-1.3858,-1.4141,-1.4223,-1.4689,-1.4688,-1.0005,-1.1133,-1.21,-1.1222,-1.1096,-1.1361,-1.1954,0.0,0.0,0.0,0.0,0.0,0.0,-1.443,-1.5287,0.0,0.0,-2.0753,0.0,0.0,-2.3424,-2.41,0.0,-2.4049,-2.3986,-2.4761,-2.5546,-2.6236,-2.6509,-2.697,-2.7658,-2.7353,-2.7155,-2.7186,-2.7416,-2.7563,-2.758,-2.8266,-2.8604,-2.8604,-2.8604,-2.8979,-2.9701,-2.9701,-2.9701,-2.9701,-2.9701,-2.9758,-2.9861,-2.9616,-2.9427,-2.9278,-2.9069,-2.8852,-2.8574,-2.8295,-2.7989,-2.7609,-2.6988,-2.6504,-2.6118,-2.5649,-2.5269,-2.4906,-2.4426,-2.4172,-2.3861,-2.3201,-2.2912,-2.2542,-2.1412,-2.0941,-2.0575,-1.9845,-1.9024,-1.8403,-1.8395,-1.7774,-1.722,-1.7199,-1.7199,-1.7199,-1.7199,-1.7199,-1.7199,-1.7199,-1.7199,-1.7199,-1.7199,-1.7199,-1.716,-1.7081,-1.6663,-1.6349,-1.6271,-1.5787,-1.5384,-1.5127,-1.5114,-1.4784,-1.408,-1.3488,-1.3198,-1.3198,-1.3198,-1.3441,-1.3959,-1.4053,-1.4324,-1.479,-1.4865,-1.4878,-0.9996,-1.1258,-1.2442,-1.2012,-1.2256,-1.2598,-1.2527,-1.2148,0.0,0.0,0.0,0.0,0.0,0.0,-1.7058,-1.9505,0.0,-2.2547,-2.3258,-2.3742,-2.4095,0.0,0.0,-2.4238,-2.4172,-2.4837,-2.5398,-2.5728,-2.6188,-2.6483,-2.651,-2.6725,-2.6721,-2.6461,-2.6935,-2.7204,-2.7204,-2.7571,-2.7965,-2.8407,-2.8885,-2.9307,-2.9701,-2.9701,-2.9701,-2.9701,-2.9701,-2.9701,-2.9701,-2.956,-2.9334,-2.9093,-2.9044,-2.8852,-2.8549,-2.8087,-2.773,-2.7369,-2.6874,-2.6487,-2.6118,-2.5649,-2.5269,-2.4906,-2.4426,-2.4172,-2.3855,-2.3113,-2.2754,-2.2252,-2.0728,-2.0238,-1.9894,-1.8854,-1.8304,-1.7984,-1.7879,-1.7576,-1.7287,-1.722,-1.7199,-1.7199,-1.7199,-1.7199,-1.7199,-1.7199,-1.7199,-1.7199,-1.7199,-1.7199,-1.7199,-1.7199,-1.6977,-1.6833,-1.6833,-1.6571,-1.6134,-1.5445,-1.526,-1.5031,-1.4651,-1.4305,-1.4124,-1.4124,-1.4124,-1.4268,-1.4525,-1.4828,-1.5085,-1.5349,-1.5618,-1.5657,-1.0025,-1.1136,-1.228,-1.223,0.0,-1.3678,-1.3192,-1.3043,0.0,0.0,0.0,0.0,0.0,-1.6999,0.0,-2.0941,-2.2381,-2.3351,-2.3739,-2.4309,-2.4666,-2.4547,-2.4486,-2.4408,-2.4321,-2.4829,-2.5212,-2.5314,-2.5797,-2.5923,-2.555,-2.6061,-2.616,-2.571,-2.6499,-2.6923,-2.6923,-2.7298,-2.7796,-2.8407,-2.9073,-2.9495,-2.9701,-2.9701,-2.9701,-2.9701,-2.9701,-2.9701,-2.9701,-2.956,-2.9334,-2.9093,-2.9044,-2.8798,-2.8427,-2.7904,-2.7491,-2.7149,-2.6825,-2.6487,-2.6118,-2.5649,-2.5269,-2.4906,-2.4426,-2.4172,-2.3855,-2.3113,-2.2694,-2.211,-2.0329,-1.9795,-1.9407,-1.8253,-1.7827,-1.7659,-1.7508,-1.7425,-1.7363,-1.7274,-1.722,-1.7199,-1.7199,-1.7199,-1.7199,-1.7199,-1.7199,-1.7199,-1.7199,-1.7199,-1.7199,-1.7199,-1.7199,-1.7199,-1.7199,-1.7199,-1.6812,-1.588,-1.544,-1.5228,-1.5228,-1.5017,-1.4896,-1.4896,-1.4896,-1.4959,-1.5085,-1.5512,-1.5756,-1.5906,-1.63,-1.6241,-1.0094,-1.0739,-1.1384,-1.1384,-1.26,0.0,-1.465,-1.4817,0.0,-1.5772,0.0,0.0,0.0,-1.9141,-2.0274,-2.1945,-2.2315,-2.2903,-2.4407,0.0,-2.4668,-2.4607,-2.4599,-2.452,-2.4417,-2.4439,-2.4727,-2.5359,-2.4875,-2.4848,-2.556,-2.5074,-2.4762,-2.4793,-2.5635,-2.6094,-2.6094,-2.7571,-2.8332,-2.8388,-2.8463,-2.8923,-2.9701,-2.9701,-2.9701,-2.9701,-2.9701,-2.9701,-2.9701,-2.956,-2.9334,-2.9093,-2.9044,-2.8682,-2.8187,-2.7832,-2.7491,-2.7149,-2.6825,-2.6487,-2.6118,-2.5649,-2.5269,-2.4906,-2.4426,-2.4172,-2.3855,-2.3113,-2.2694,-2.2172,-2.0785,-2.0071,-1.9524,-1.888,-1.8206,-1.7699,-1.7679,-1.7528,-1.7404,-1.7384,-1.7287,-1.7199,-1.7199,-1.7199,-1.7199,-1.7199,-1.7199,-1.7199,-1.7199,-1.7199,-1.7199,-1.7199,-1.7199,-1.7199,-1.7199,-1.7199,-1.716,-1.7081,-1.6357,-1.594,-1.594,-1.5278,-1.4896,-1.4896,-1.4896,-1.5148,-1.563,-1.568,-1.5957,-1.6437,-1.6475,-1.6241,-1.0096,-1.0684,-1.1424,-1.1976,-1.295,0.0,0.0,-1.5068,-1.5897,-1.6202,-1.7343,0.0,0.0,0.0,-2.1065,-2.2135,-2.2724,-2.3422,-2.4538,-2.47,-2.4692,-2.466,-2.466,-2.4645,-2.4594,-2.459,-2.4654,-2.4837,-2.4604,-2.4592,-2.4908,-2.4725,-2.4621,-2.47,-2.5027,-2.5448,-2.6,-2.7092,-2.7909,-2.8407,-2.8959,-2.9408,-2.9755,-2.9755,-2.9755,-2.9755,-2.9728,-2.9701,-2.9645,-2.9064,-2.8947,-2.9144,-2.8892,-2.8556,-2.816,-2.7832,-2.7491,-2.7149,-2.6825,-2.6487,-2.6118,-2.5649,-2.5269,-2.4906,-2.4426,-2.4172,-2.3855,-2.3113,-2.2694,-2.2186,-2.084,-2.0355,-1.9949,-1.9016,-1.8601,-1.8247,-1.78,-1.7638,-1.7549,-1.7425,-1.735,-1.7308,-1.722,-1.7199,-1.7199,-1.7199,-1.7199,-1.7199,-1.7199,-1.7199,-1.7199,-1.7199,-1.7199,-1.7199,-1.7199,-1.7199,-1.7199,-1.7199,-1.6804,-1.6563,-1.6563,-1.6131,-1.5894,-1.5894,-1.5894,-1.5994,-1.6208,-1.6208,-1.6266,-1.6436,-1.6362,-1.6044,-1.0096,-1.0496,-1.1121,-1.1976,0.0,0.0,-1.4159,-1.5518,-1.6787,-1.7045,-1.8202,0.0,-1.9935,0.0,0.0,0.0,-2.3028,-2.3842,-2.4614,-2.4738,-2.4738,-2.4738,-2.4738,-2.4738,-2.4738,-2.4734,-2.4687,-2.4569,-2.4586,-2.4586,-2.4526,-2.4613,-2.466,-2.47,-2.497,-2.541,-2.6,-2.6827,-2.7635,-2.8442,-2.9086,-2.9533,-2.9823,-2.9841,-2.9841,-2.9823,-2.9789,-2.9746,-2.9626,-2.8755,-2.8417,-2.8408,-2.8125,-2.7947,-2.7808,-2.7444,-2.7282,-2.7149,-2.6825,-2.6487,-2.6118,-2.5649,-2.5269,-2.4906,-2.4426,-2.4172,-2.3855,-2.3113,-2.2694,-2.2229,-2.1072,-2.0654,-2.0301,-1.9524,-1.9057,-1.8655,-1.8166,-1.7854,-1.7638,-1.7474,-1.7412,-1.735,-1.722,-1.7199,-1.7199,-1.7199,-1.7199,-1.7199,-1.7199,-1.7199,-1.7199,-1.7199,-1.7199,-1.7199,-1.7199,-1.7199,-1.7199,-1.7199,-1.7044,-1.6918,-1.6918,-1.6748,-1.6629,-1.6629,-1.6586,-1.6543,-1.6543,-1.6522,-1.6436,-1.634,-1.6154,-1.5824,-1.0096,-1.0116,-1.0304,0.0,0.0,0.0,-1.4924,-1.6414,-1.7844,-1.8645,-1.9454,-2.0011,-2.0088,-2.0757,0.0,-2.2274,-2.3133,-2.397,-2.4707,-2.4794,-2.4794,-2.4794,-2.4794,-2.4794,-2.4794,-2.4794,-2.4764,-2.4707,-2.4757,-2.4749,-2.4615,-2.4742,-2.4764,-2.4707,-2.5541,-2.6,-2.6,-2.6852,-2.7677,-2.8495,-2.8628,-2.912,-2.9897,-2.9964,-2.9964,-2.9897,-2.9901,-2.9827,-2.9626,-2.8755,-2.7774,-2.679,-2.6573,-2.6751,-2.7041,-2.6647,-2.68,-2.7149,-2.6825,-2.6487,-2.6118,-2.5649,-2.5269,-2.4906,-2.4426,-2.4172,-2.3855,-2.3113,-2.2694,-2.2328,-2.1602,-2.0965,-2.0495,-2.0495,-1.9646,-1.882,-1.8806,-1.822,-1.7659,-1.7529,-1.744,-1.735,-1.722,-1.7199,-1.7199,-1.7199,-1.7199,-1.7199,-1.7199,-1.7199,-1.7199,-1.7199,-1.7199,-1.7199,-1.7199,-1.7199,-1.7199,-1.7199,-1.7073,-1.7002,-1.7002,-1.6939,-1.6897,-1.6897,-1.6761,-1.6697,-1.6697,-1.6543,-1.6392,-1.6188,-1.591,-1.5557,-0.9924,-1.05,0.0,-1.1998,0.0,0.0,0.0,-1.7729,0.0,0.0,-1.9902,-2.0074,-2.0098,0.0,0.0,-2.2338,-2.3202,-2.4024,-2.478,-2.4867,-2.4867,-2.4867,-2.4867,-2.4867,-2.4867,-2.4867,-2.4861,-2.484,-2.4851,-2.4823,-2.4749,-2.478,-2.4764,-2.4707,-2.4951,-2.5083,-2.5083,-2.5949,-2.6817,-2.766,-2.8411,-2.9228,-3.0038,-3.0053,-3.0072,-3.003,-2.9932,-2.9841,-2.9698,-2.879,-2.7802,-2.6841,-2.6661,-2.6784,-2.7041,-2.6647,-2.68,-2.7149,-2.6825,-2.6487,-2.6118,-2.5649,-2.5269,-2.4906,-2.4426,-2.4172,-2.3855,-2.3113,-2.2694,-2.2328,-2.1602,-2.1263,-2.1033,-2.0613,-2.0247,-1.9781,-1.8962,-1.8628,-1.8287,-1.7617,-1.7475,-1.7406,-1.724,-1.7199,-1.7199,-1.7199,-1.7199,-1.7199,-1.7199,-1.7199,-1.7199,-1.7199,-1.7199,-1.7199,-1.7199,-1.7199,-1.7199,-1.7199,-1.7157,-1.7094,-1.7002,-1.6939,-1.6867,-1.6761,-1.6718,-1.6654,-1.6543,-1.6522,-1.6349,-1.6044,-1.5746,-1.53,-1.0289,-1.0962,0.0,-1.282,-1.4376,-1.6143,-1.8134,0.0,0.0,0.0,0.0,-2.0093,-2.0093,-2.1047,0.0,-2.2459,-2.3535,-2.4474,-2.4929,-2.498,-2.498,-2.498,-2.498,-2.498,-2.498,-2.498,-2.498,-2.498,-2.4953,-2.4912,-2.4889,-2.4853,-2.4817,-2.4746,-2.4746,-2.4746,-2.4746,-2.5288,-2.5993,-2.6862,-2.7497,-2.8272,-2.9167,-2.9849,-3.0135,-3.014,-2.9972,-2.9702,-2.9311,-2.8743,-2.7944,-2.7035,-2.6784,-2.6893,-2.7155,-2.6674,-2.68,-2.7149,-2.6825,-2.6487,-2.6118,-2.5649,-2.5269,-2.4906,-2.4426,-2.4172,-2.3855,-2.3113,-2.2694,-2.2328,-2.1602,-2.1399,-2.1304,-2.0938,-2.0681,-2.0315,-1.9619,-1.9315,-1.8979,-1.8345,-1.8222,-1.8137,-1.7922,-1.7695,-1.7565,-1.7565,-1.7356,-1.7199,-1.7199,-1.7199,-1.7199,-1.7199,-1.7199,-1.7199,-1.7199,-1.7199,-1.7199,-1.7199,-1.7199,-1.7157,-1.7073,-1.6981,-1.6897,-1.6825,-1.674,-1.6654,-1.6577,-1.6522,-1.6306,-1.5913,-1.5513,-1.5062,-1.091,0.0,0.0,-1.3503,-1.5216,0.0,-1.9563,-2.0093,-2.0093,-2.0093,0.0,-2.0093,-2.0093,-2.1467,-2.2601,-2.2601,-2.4008,-2.5108,-2.5108,-2.5108,-2.5108,-2.5108,-2.5108,-2.5108,-2.5108,-2.5108,-2.5108,-2.5108,-2.5044,-2.5005,-2.5017,-2.4945,-2.4877,-2.4808,-2.4808,-2.4808,-2.4808,-2.4877,-2.5355,-2.6205,-2.6274,-2.6797,-2.7759,-2.9276,-3.0021,-3.0082,-2.9965,-2.9496,-2.881,-2.8734,-2.8209,-2.7384,-2.6972,-2.7046,-2.7333,-2.6715,-2.68,-2.7149,-2.6825,-2.6487,-2.6118,-2.5649,-2.5269,-2.4906,-2.4426,-2.4172,-2.3855,-2.3113,-2.2694,-2.2328,-2.1602,-2.1399,-2.1399,-2.1399,-2.0979,-2.0586,-2.0495,-2.0111,-1.9687,-1.936,-1.9301,-1.9197,-1.8957,-1.8506,-1.8153,-1.8114,-1.7591,-1.7199,-1.7199,-1.7199,-1.7199,-1.7199,-1.7199,-1.7199,-1.7199,-1.7199,-1.7199,-1.7199,-1.7199,-1.7199,-1.7199,-1.7086,-1.7002,-1.6981,-1.6803,-1.6697,-1.6675,-1.6543,-1.6262,-1.5792,-1.5311,-1.4857,-1.0759,-1.1892,0.0,0.0,-1.5619,-1.7849,-1.9743,-2.0145,-2.0093,-2.0093,-2.0093,-2.0093,-2.0093,-2.1468,-2.259,-2.259,-2.4041,-2.5187,-2.5187,-2.5187,-2.5187,-2.5187,-2.5187,-2.5187,-2.5187,-2.5187,-2.5187,-2.5187,-2.5132,-2.5076,-2.5082,-2.5012,-2.4953,-2.4881,-2.4874,-2.4874,-2.4874,-2.4934,-2.5423,-2.6274,-2.6346,-2.6842,-2.772,-2.8071,-2.8586,-2.9208,-2.9809,-2.9958,-2.9749,-2.9064,-2.8594,-2.8225,-2.726,-2.7095,-2.7333,-2.6715,-2.68,-2.7149,-2.6825,-2.6487,-2.6118,-2.5649,-2.5269,-2.4906,-2.4426,-2.4172,-2.3855,-2.3113,-2.2694,-2.2328,-2.1602,-2.1399,-2.1399,-2.1399,-2.1304,-2.1087,-2.0613,-2.0423,-2.0124,-1.9426,-1.9301,-1.9197,-1.8957,-1.8806,-1.8597,-1.8166,-1.7591,-1.7199,-1.7199,-1.7199,-1.7199,-1.7199,-1.7199,-1.7199,-1.7199,-1.7199,-1.7199,-1.7199,-1.7199,-1.7199,-1.7199,-1.7086,-1.6981,-1.6918,-1.6782,-1.6654,-1.6543,-1.6522,-1.6262,-1.5792,-1.5311,-1.4857,-1.0704,0.0,0.0,-1.5254,0.0,-1.8098,-1.9813,-2.0171,-2.0144,-2.0117,-2.0093,-2.0093,-2.0093,-2.1168,-2.2147,-2.2543,-2.3709,-2.4727,-2.5134,-2.5191,-2.5191,-2.5191,-2.5191,-2.5191,-2.5191,-2.5191,-2.5191,-2.5191,-2.5131,-2.5101,-2.5101,-2.5076,-2.5031,-2.4993,-2.4993,-2.4993,-2.4993,-2.5025,-2.5279,-2.573,-2.5755,-2.6028,-2.6523,-2.7338,-2.7937,-2.8343,-2.8762,-2.9174,-2.9491,-2.9041,-2.9004,-2.9152,-2.8381,-2.8081,-2.7949,-2.7305,-2.7128,-2.7149,-2.6825,-2.6487,-2.6118,-2.5649,-2.5269,-2.4843,-2.4059,-2.3912,-2.3779,-2.2725,-2.2464,-2.2328,-2.1602,-2.1399,-2.1399,-2.1399,-2.1399,-2.1304,-2.1006,-2.0938,-2.0772,-2.0217,-2.0103,-2.0033,-1.9795,-1.9512,-1.9146,-1.8571,-1.8074,-1.7735,-1.7643,-1.7382,-1.7199,-1.7199,-1.746,-1.7512,-1.7225,-1.746,-1.7512,-1.7212,-1.7199,-1.7199,-1.7199,-1.7086,-1.6981,-1.6939,-1.6782,-1.6675,-1.6599,-1.6522,-1.6262,-1.5792,-1.5311,-1.497,-1.0538,0.0,-1.3667,-1.6792,-1.7529,0.0,-1.9608,-1.9987,-2.0016,-2.0097,-2.0117,-2.0093,-2.0093,-2.081,-2.1617,-2.2281,-2.3116,-2.3938,-2.465,-2.4752,-2.4752,-2.4752,-2.4752,-2.4752,-2.4752,-2.4752,-2.4752,-2.4752,-2.4698,-2.4674,-2.4674,-2.4803,-2.4885,-2.4885,-2.5044,-2.512,-2.512,-2.512,-2.5114,-2.5119,-2.5119,-2.5156,-2.5249,-2.6638,-2.7338,-2.7491,-2.7625,-2.8077,-2.8701,-2.8834,-2.9208,-2.9683,-2.9476,-2.9114,-2.8622,-2.7936,-2.7507,-2.7181,-2.6825,-2.6487,-2.6118,-2.5649,-2.5269,-2.4796,-2.3781,-2.3728,-2.3734,-2.2439,-2.2269,-2.2328,-2.1602,-2.1399,-2.1399,-2.1399,-2.1399,-2.1399,-2.1399,-2.1399,-2.1326,-2.1033,-2.0972,-2.0898,-2.0724,-2.0177,-1.959,-1.9081,-1.8702,-1.8436,-1.8257,-1.763,-1.7251,-1.7382,-1.7813,-1.7944,-1.7525,-1.7865,-1.7931,-1.7525,-1.7408,-1.7395,-1.7486,-1.7393,-1.7329,-1.7329,-1.7016,-1.6836,-1.6793,-1.6751,-1.648,-1.6,-1.551,-1.5237,0.0,0.0,-1.4274,0.0,-1.6668,-1.7092,0.0,0.0,-1.9362,0.0,-2.0144,-2.0093,-2.0093,-2.081,-2.1445,-2.1541,-2.2243,-2.2811,-2.2925,-2.2944,-2.2944,-2.2944,-2.2944,-2.2944,-2.2944,-2.2944,-2.2944,-2.2944,-2.2939,-2.2939,-2.2939,-2.3659,-2.4055,-2.4055,-2.4792,-2.5199,-2.5199,-2.5199,-2.5199,-2.518,-2.518,-2.5185,-2.521,-2.544,-2.5912,-2.6612,-2.7377,-2.7759,-2.7905,-2.8612,-2.8884,-2.8898,-2.927,-2.9153,-2.8688,-2.7968,-2.7552,-2.731,-2.6858,-2.6487,-2.6118,-2.5649,-2.5269,-2.489,-2.4338,-2.4095,-2.3824,-2.2988,-2.2637,-2.2328,-2.1602,-2.1399,-2.1399,-2.1399,-2.1399,-2.1399,-2.1399,-2.1399,-2.1326,-2.1033,-2.0848,-2.0724,-2.0699,-2.0048,-1.9501,-1.9423,-1.9094,-1.8819,-1.8806,-1.7865,-1.746,-1.8175,-1.8153,-1.8257,-1.8649,-1.8323,-1.8257,-1.8649,-1.8244,-1.8192,-1.8649,-1.8653,-1.8653,-1.8653,-1.7824,-1.7336,-1.7215,-1.7495,-1.7351,-1.6833,-1.6305,-1.5864,-1.02,-1.2106,-1.3857,0.0,-1.6568,-1.6878,-1.8061,0.0,-1.8561,-1.9354,-1.9504,-1.9611,-2.0071,-2.0469,-2.089,-2.1383,-2.1713,-2.2105,-2.2588,-2.2611,-2.2601,-2.2601,-2.2601,-2.2601,-2.2601,-2.2601,-2.2601,-2.2601,-2.2601,-2.2601,-2.2601,-2.2963,-2.3403,-2.3875,-2.4263,-2.4708,-2.5191,-2.5191,-2.5191,-2.5191,-2.5191,-2.5191,-2.5191,-2.5191,-2.5382,-2.574,-2.6122,-2.6561,-2.6995,-2.7358,-2.7691,-2.7987,-2.8022,-2.7813,-2.7381,-2.6752,-2.6643,-2.6732,-2.6293,-2.6185,-2.6171,-2.5652,-2.5269,-2.4827,-2.3997,-2.3866,-2.3764,-2.2651,-2.2421,-2.2328,-2.1602,-2.1399,-2.1399,-2.1399,-2.1399,-2.1399,-2.1399,-2.1399,-2.1326,-2.1033,-2.0911,-2.08,-2.0699,-2.0412,-2.0177,-2.0177,-2.0033,-1.9902,-1.9902,-1.947,-1.8973,-1.8463,-1.878,-1.9015,-1.8911,-1.8989,-1.9015,-1.8911,-1.8675,-1.8649,-1.8898,-1.8705,-1.8705,-1.8911,-1.838,-1.7976,-1.7756,-1.7591,-1.7242,-1.67,-1.616,-1.5905,-1.0363,-1.1807,-1.2986,-1.5094,-1.5808,-1.618,0.0,0.0,-1.7725,0.0,-1.8866,-1.92,-1.9808,-2.01,-2.0437,-2.1082,-2.1156,-2.1349,-2.1977,-2.2029,-2.1985,-2.197,-2.197,-2.197,-2.197,-2.197,-2.197,-2.197,-2.197,-2.197,-2.197,-2.2161,-2.2696,-2.3531,-2.3779,-2.432,-2.5191,-2.4981,-2.4861,-2.4861,-2.4656,-2.4541,-2.4541,-2.4541,-2.4541,-2.456,-2.5019,-2.5415,-2.5772,-2.6007,-2.625,-2.6472,-2.6631,-2.646,-2.6078,-2.5729,-2.5784,-2.6011,-2.5777,-2.5849,-2.5993,-2.5674,-2.5307,-2.4851,-2.3882,-2.3794,-2.3734,-2.2498,-2.2312,-2.2328,-2.1602,-2.1399,-2.1399,-2.1399,-2.1399,-2.1399,-2.1399,-2.1375,-2.1302,-2.1082,-2.0961,-2.0875,-2.0787,-2.0724,-2.0699,-2.0699,-2.0699,-2.0699,-2.0699,-2.0504,-2.0033,-1.9091,-1.946,-1.9682,-1.9368,-1.963,-1.9669,-1.9392,-1.9211,-1.9198,-1.9342,-1.9121,-1.9097,-1.9342,-1.9122,-1.8783,-1.8344,-1.7922,-1.746,-1.6965,-1.6451,-1.6255,-0.9788,-1.0903,-1.1792,-1.2766,0.0,0.0,0.0,0.0,0.0,-1.7705,-1.8517,-1.9103,-1.9158,-1.977,-2.031,-2.0367,-2.0369,-2.0342,-2.0326,-2.034,-2.0305,-2.0232,-2.0227,-2.0227,-2.0227,-2.0227,-2.0227,-2.0227,-2.0227,-2.0227,-2.0227,-2.102,-2.1822,-2.2639,-2.3479,-2.432,-2.5191,-2.4377,-2.397,-2.3951,-2.3135,-2.2734,-2.2734,-2.2734,-2.2734,-2.283,-2.4478,-2.4746,-2.4085,-2.4918,-2.4726,-2.4028,-2.5341,-2.5662,-2.5372,-2.5545,-2.5486,-2.5397,-2.5622,-2.5544,-2.5396,-2.5619,-2.5419,-2.5013,-2.4558,-2.4224,-2.3839,-2.3084,-2.268,-2.2328,-2.1602,-2.1399,-2.1399,-2.1399,-2.1399,-2.1399,-2.1399,-2.1302,-2.1204,-2.118,-2.1033,-2.0898,-2.0898,-2.0774,-2.0699,-2.0699,-2.0699,-2.0699,-2.0699,-2.0022,-1.9826,-2.0515,-2.01,-2.0009,-2.0543,-2.01,-2.0022,-2.0581,-2.0085,-1.9995,-2.0594,-2.0582,-2.0582,-2.062,-2.0269,-1.9737,-1.8958,-1.8934,-1.8703,-1.8286,-1.7825,-1.7479,-0.8287,-0.961,0.0,-1.1753,-1.2629,-1.3498,-1.4341,-1.4766,-1.5387,-1.6758,-1.7282,-1.7846,-1.8952,-1.982,-2.0366,-2.0366,-2.0334,-2.029,-2.0269,-2.0227,-2.0195,-2.0171,-2.0168,-2.0159,-2.0159,-2.0122,-2.0093,-2.0093,-2.0093,-2.0093,-2.0093,-2.0924,-2.1765,-2.2562,-2.2906,-2.3212,-2.3523,-2.3212,-2.3078,-2.3059,-2.2753,-2.2601,-2.2601,-2.2601,-2.2601,-2.2639,-2.3255,-2.3346,-2.3097,-2.3408,-2.3273,-2.2906,-2.3321,-2.3291,-2.2969,-2.2787,-2.3212,-2.3877,-2.3763,-2.4499,-2.5446,-2.5149,-2.516,-2.5185,-2.4666,-2.4297,-2.3909,-2.3113,-2.2694,-2.2328,-2.1602,-2.1399,-2.1399,-2.1399,-2.1399,-2.1399,-2.1399,-2.135,-2.1302,-2.1229,-2.1131,-2.1008,-2.0799,-2.0724,-2.0699,-2.0699,-2.0699,-2.0699,-2.0699,-2.0438,-2.0373,-2.0673,-2.0504,-2.0465,-2.0686,-2.0491,-2.0465,-2.0699,-2.0491,-2.0465,-2.0699,-2.0699,-2.0699,-2.0699,-2.0321,-1.9978,-1.9699,-1.923,-1.8827,-1.8467,-1.8116,-1.7815,-0.7459,-0.8721,0.0,0.0,0.0,-1.2512,-1.3092,0.0,-1.4411,-1.5522,-1.6203,-1.6942,-1.8105,-1.9005,-1.9754,-2.0335,-2.0385,-2.0328,-2.0327,-2.0303,-2.0258,-2.0242,-2.0237,-2.0216,-2.0203,-2.0158,-2.0112,-2.0093,-2.0093,-2.0093,-2.0093,-2.0652,-2.1345,-2.2166,-2.2467,-2.2601,-2.2601,-2.2338,-2.2204,-2.2185,-2.1894,-2.176,-2.176,-2.176,-2.176,-2.176,-2.176,-2.1932,-2.2204,-2.2204,-2.1964,-2.1605,-2.1725,-2.1567,-2.1292,-2.119,-2.1839,-2.2751,-2.266,-2.3796,-2.5238,-2.4876,-2.5078,-2.5339,-2.4726,-2.4323,-2.3937,-2.3238,-2.2822,-2.2397,-2.1722,-2.1471,-2.1399,-2.1399,-2.1399,-2.1399,-2.1399,-2.1399,-2.1375,-2.1277,-2.1277,-2.1204,-2.0972,-2.0799,-2.0699,-2.0699,-2.0699,-2.0699,-2.0699,-2.0699,-2.0699,-2.0699,-2.0699,-2.0699,-2.0699,-2.0699,-2.0699,-2.0699,-2.0699,-2.0699,-2.0699,-2.0699,-2.0699,-2.0699,-2.0397,-2.022,-2.0195,-1.9485,-1.9013,-1.8724,-1.8509,-1.8159,0.0,0.0,0.0,0.0,0.0,0.0,-1.1481,0.0,-1.4042,-1.4081,-1.5386,-1.6534,-1.6592,-1.729,-1.8412,-2.0138,-2.0383,-2.0368,-2.0393,-2.0395,-2.0373,-2.0301,-2.0299,-2.0273,-2.0215,-2.021,-2.0171,-2.0117,-2.0093,-2.0093,-2.0093,-2.0112,-2.0537,-2.1369,-2.2166,-2.2543,-2.2524,-2.1746,-2.1369,-2.1349,-2.0499,-2.0093,-2.0093,-2.0093,-2.0093,-2.0093,-2.0093,-2.0575,-2.1369,-2.1369,-2.0826,-2.0053,-2.0646,-2.0703,-2.0521,-2.105,-2.159,-2.2135,-2.2503,-2.3546,-2.4718,-2.4746,-2.5138,-2.5492,-2.4811,-2.4369,-2.3994,-2.3458,-2.3016,-2.2595,-2.1959,-2.1616,-2.1399,-2.1399,-2.1399,-2.1399,-2.1399,-2.1399,-2.1399,-2.1399,-2.1399,-2.1399,-2.1399,-2.1008,-2.0724,-2.0699,-2.0699,-2.0699,-2.0699,-2.0699,-2.0699,-2.0699,-2.0699,-2.0699,-2.0699,-2.0699,-2.0699,-2.0699,-2.0699,-2.0699,-2.0699,-2.0725,-2.0725,-2.0699,-2.0575,-2.0486,-2.0397,-1.9746,-1.9356,-1.9212,-1.9066,-1.8548,-0.7635,0.0,0.0,0.0,0.0,0.0,0.0,0.0,0.0,-1.3848,-1.4469,-1.5153,-1.6378,-1.6806,-1.7328,-1.8431,-1.9131,-1.9743,-2.0313,-2.0402,-2.0387,-2.0373,-2.0337,-2.0294,-2.0273,-2.0219,-2.0201,0.0,-2.0122,-2.0093,-2.0093,-2.069,-2.1153,-2.1388,-2.1617,-2.144,-2.08,-2.0575,-2.0461,-2.0461,-2.0227,-2.0093,-2.0093,-2.0093,-2.0093,-2.0093,-2.0093,-2.0246,-2.0461,-2.0461,-2.0283,-1.9996,-2.0013,-1.9901,-1.9692,-1.9645,-2.0366,-2.1356,-2.1266,-2.2838,-2.4752,-2.4248,-2.4869,-2.5661,-2.4851,-2.4503,-2.4276,-2.3674,-2.3326,-2.2949,-2.2147,-2.1688,-2.1399,-2.1399,-2.1399,-2.1399,-2.1399,-2.1399,-2.1399,-2.1399,-2.1399,-2.1399,-2.1399,-2.1302,-2.1082,-2.0749,-2.0699,-2.0699,-2.0699,-2.0699,-2.0699,-2.0699,-2.0699,-2.0699,-2.0699,-2.0699,-2.0699,-2.0699,-2.0699,-2.0699,-2.0699,-2.108,-2.1106,-2.0712,-2.0939,-2.0875,-2.0473,-2.0042,-1.981,-1.9772,-1.9251,-1.8629,-0.8547,-0.8859,0.0,0.0,0.0,0.0,-1.0837,-1.1247,0.0,0.0,-1.3306,-1.3968,-1.5308,-1.5561,-1.5949,-1.7152,-1.7775,-1.8529,-1.9736,-2.0216,-2.0441,-2.0441,-2.0374,-2.0334,-2.0334,-2.0283,-2.0239,-2.0193,-2.0162,-2.0135,-2.0093,-2.0575,-2.0867,-2.0867,-2.0867,-2.079,-2.0633,-2.0633,-2.0633,-2.0633,-2.0633,-2.0461,-2.0093,-2.0093,-2.0093,-2.0093,-2.0093,-2.0093,-2.0093,-2.0093,-2.0049,-1.9977,-1.9775,-1.9585,-1.9409,-1.9172,-1.9975,-2.1144,-2.0876,-2.2618,-2.4822,-2.4046,-2.4739,-2.5752,-2.493,-2.46,-2.44,-2.3931,-2.3399,-2.2822,-2.224,-2.1722,-2.1399,-2.1399,-2.1399,-2.1399,-2.1399,-2.1399,-2.1399,-2.1399,-2.1399,-2.1399,-2.1399,-2.1399,-2.1302,-2.1033,-2.0823,-2.0699,-2.0699,-2.0699,-2.0699,-2.0699,-2.0699,-2.0699,-2.0699,-2.0699,-2.0699,-2.0699,-2.0699,-2.0792,-2.1027,-2.1328,-2.1459,-2.1419,-2.1394,-2.1043,-2.0372,-2.0118,-1.9978,-1.9901,-1.9303,-1.8771,-1.008,-0.9966,-0.9775,-1.1267,-1.0994,0.0,-1.0331,-1.0876,-1.1383,0.0,-1.2123,-1.292,-1.3791,-1.3964,-1.4432,-1.5931,-1.632,-1.7058,-1.8805,-1.981,-2.0352,-2.0352,-2.0386,-2.0407,-2.0393,-2.0347,-2.0282,-2.0223,-2.0205,-2.0167,-2.0093,-2.0093,-2.0093,-2.0093,-2.0093,-2.048,-2.1254,-2.1254,-2.1254,-2.1254,-2.1254,-2.0848,-2.0093,-2.0093,-2.0093,-2.0093,-2.0093,-2.0093,-2.0093,-2.0093,-2.0049,-1.9977,-1.9775,-1.9624,-1.9489,-1.9287,-2.0101,-2.1265,-2.1001,-2.2705,-2.4878,-2.4062,-2.4739,-2.5752,-2.5025,-2.4681,-2.4477,-2.4183,-2.3363,-2.2503,-2.2287,-2.1817,-2.1399,-2.1399,-2.1399,-2.1399,-2.1399,-2.1399,-2.1399,-2.1399,-2.1399,-2.1399,-2.1399,-2.1399,-2.1399,-2.1399,-2.1033,-2.0749,-2.0699,-2.0699,-2.0699,-2.0699,-2.0699,-2.0699,-2.0699,-2.0699,-2.0699,-2.0699,-2.0699,-2.0909,-2.1394,-2.1538,-2.1786,-2.2192,-2.1668,-2.1004,-2.0207,-2.0093,-1.9952,-1.9798,-1.9277,-1.8899,-1.2201,-1.2183,-1.2144,-1.2455,-1.189,0.0,-1.1247,-1.0837,-1.0643,0.0,-1.1636,-1.2025,-1.2881,-1.3056,-1.3153,-1.3485,-1.4669,-1.6161,-1.7909,-1.89,-1.9444,-1.9444,-2.0061,-2.0456,-2.041,-2.0393,-2.0354,-2.03,-2.0225,-2.0168,-2.0093,-2.0093,-2.0093,-2.0093,-2.0093,-2.0189,-2.0341,-2.0341,-2.0341,-2.0341,-2.0341,-2.0265,-2.0093,-2.0093,-2.0093,-2.0093,-2.0093,-2.0093,-2.0093,-2.0093,-2.0049,-1.9977,-1.9775,-1.9656,-1.9562,-1.9346,-2.0169,-2.1344,-2.1077,-2.2786,-2.4948,-2.4094,-2.4739,-2.5752,-2.5025,-2.4762,-2.4645,-2.4224,-2.3471,-2.2777,-2.2526,-2.1921,-2.1399,-2.1399,-2.1399,-2.1399,-2.1399,-2.1399,-2.1399,-2.1399,-2.1399,-2.1399,-2.1399,-2.1399,-2.1399,-2.1399,-2.1326,-2.1131,-2.0749,-2.0699,-2.0699,-2.0699,-2.0699,-2.0699,-2.0699,-2.0699,-2.0699,-2.0699,-2.0699,-2.0751,-2.0844,-2.1734,-2.1838,-2.1053,-2.0909,-2.0627,-2.0207,-2.0182,-2.0054,-1.9798,-1.9417,-1.9066,-1.3327,-1.3134,-1.2902,-1.3346,-1.2472,0.0,0.0,-1.0837,-1.0312,-1.076,-1.084,-1.1116,-1.1991,-1.2151,-1.2288,-1.2733,-1.3509,-1.4516,-1.5815,-1.7464,-1.855,-1.855,-1.9327,-1.9845,-1.9796,-2.015,-2.0368,-2.0301,-2.0242,-2.018,-2.0153,-2.0126,-2.0093,-2.0093,-2.0093,-2.0303,-2.0747,-2.0747,-2.0747,-2.0747,-2.0747,-2.0518,-2.0093,-2.0093,-2.0093,-2.0093,-2.0093,-2.0093,-2.0093,-2.0093,-2.0049,-1.9977,-1.9775,-1.9656,-1.9569,-1.9368,-2.0185,-2.1356,-2.109,-2.2792,-2.4959,-2.4078,-2.4739,-2.577,-2.5103,-2.4862,-2.4722,-2.4323,-2.3702,-2.3076,-2.2785,-2.2156,-2.1592,-2.152,-2.1447,-2.1399,-2.1399,-2.1399,-2.1399,-2.1399,-2.1399,-2.1399,-2.1399,-2.1399,-2.1399,-2.1399,-2.1399,-2.1229,-2.0749,-2.0699,-2.0699,-2.0699,-2.0699,-2.0699,-2.0699,-2.0699,-2.0699,-2.0699,-2.0699,-2.0805,-2.1093,-2.1655,-2.1695,-2.1119,-2.1106,-2.086,-2.0347,-2.0347,-2.0156,-1.9798,-1.9406,-1.911,-1.4607,-1.4201,-1.3697,-1.4413,-1.3286,-1.2004,0.0,0.0,0.0,-1.0702,-1.0706,0.0,0.0,0.0,0.0,0.0,0.0,0.0,0.0,-1.5504,0.0,-1.7598,-1.8414,-1.896,-1.896,-1.9549,-1.9887,-1.9812,-1.9915,-1.9953,-1.9943,-2.0044,-2.0093,-2.0093,-2.0093,-2.0442,-2.1134,-2.1153,-2.1153,-2.1153,-2.1153,-2.079,-2.0093,-2.0093,-2.0093,-2.0093,-2.0093,-2.0093,-2.0093,-2.0093,-2.0049,-1.9977,-1.9775,-1.9656,-1.9569,-1.9368,-2.0193,-2.1366,-2.109,-2.2792,-2.4959,-2.4078,-2.467,-2.564,-2.5143,-2.4922,-2.4742,-2.4426,-2.3931,-2.3384,-2.3091,-2.2434,-2.1841,-2.1712,-2.1544,-2.1399,-2.1399,-2.1399,-2.1399,-2.1399,-2.1399,-2.1399,-2.1399,-2.1399,-2.1399,-2.1399,-2.1399,-2.1229,-2.0749,-2.0699,-2.0699,-2.0699,-2.0699,-2.0699,-2.0699,-2.0699,-2.0699,-2.0699,-2.0699,-2.0883,-2.1328,-2.1355,-2.1394,-2.1511,-2.1407,-2.1068,-2.0486,-2.0486,-2.0296,-1.9862,-1.9539,-1.9273,-1.7229,-1.6823,-1.6184,-1.6281,-1.5055,-1.3809,-1.3809,0.0,-1.2494,-1.2494,0.0,0.0,0.0,0.0,0.0,0.0,0.0,0.0,-1.1771,-1.2713,-1.4222,-1.6475,-1.7521,-1.8043,-1.8043,-1.8123,-1.8154,-1.8084,-1.875,-1.9112,-1.9057,-1.9719,-2.0093,-2.0093,-2.0093,-2.015,-2.0246,-2.0246,-2.0246,-2.0246,-2.0246,-2.0208,-2.0093,-2.0093,-2.0093,-2.0093,-2.0093,-2.0093,-2.0093,-2.0093,-2.0049,-1.9977,-1.9775,-1.9656,-1.9569,-1.9368,-2.0185,-2.1355,-2.108,-2.2792,-2.4959,-2.4078,-2.4405,-2.5084,-2.5025,-2.4922,-2.4782,-2.4609,-2.4162,-2.3696,-2.3406,-2.2754,-2.2114,-2.1996,-2.1688,-2.1399,-2.1399,-2.1399,-2.1399,-2.1399,-2.1399,-2.1399,-2.1399,-2.1399,-2.1399,-2.1399,-2.1399,-2.1229,-2.0749,-2.0699,-2.0699,-2.0699,-2.0699,-2.0699,-2.0699,-2.0699,-2.0699,-2.0699,-2.0699,-2.0738,-2.0804,-2.0804,-2.1014,-2.1498,-2.104,-2.0689,-2.0486,-2.0486,-2.0372,-2.0156,-2.0041,-1.9782,-1.7803,-1.7258,-1.6598,-1.6594,-1.5347,-1.41,-1.41,-1.3427,-1.2791,-1.2791,0.0,0.0,0.0,0.0,0.0,0.0,-1.113,0.0,0.0,0.0,-1.2623,0.0,0.0,0.0,-1.7791,-1.7435,-1.7342,-1.782,-1.8104,-1.8449,-1.8935,-1.9671,-2.0093,-2.0093,-2.0093,-2.0093,-2.0093,-2.0093,-2.0093,-2.0093,-2.0093,-2.0093,-2.0093,-2.0093,-2.0093,-2.0093,-2.0093,-2.0093,-2.0093,-2.0093,-2.0049,-1.9977,-1.9775,-1.9656,-1.9569,-1.9368,-2.0185,-2.1356,-2.109,-2.2523,-2.4444,-2.4347,-2.4636,-2.5005,-2.5005,-2.4946,-2.4902,-2.4746,-2.4405,-2.403,-2.3717,-2.3113,-2.254,-2.2301,-2.1926,-2.1616,-2.1544,-2.1447,-2.1399,-2.1399,-2.1399,-2.1399,-2.1399,-2.1399,-2.1399,-2.1399,-2.1399,-2.1326,-2.1131,-2.0873,-2.0699,-2.0699,-2.0699,-2.0699,-2.0699,-2.0699,-2.0699,-2.0699,-2.0699,-2.0699,-2.0699,-2.0699,-2.0817,-2.1027,-2.0805,-2.0687,-2.0612,-2.0612,-2.0574,-2.0473,-2.0195,-1.9963,-1.8551,-1.7792,-1.6951,-1.6963,-1.5675,-1.4431,-1.4431,-1.3953,-1.3515,-1.3517,-1.3508,0.0,0.0,0.0,0.0,0.0,0.0,-1.0781,0.0,-1.1177,0.0,0.0,0.0,0.0,0.0,-1.6285,-1.6277,-1.7129,-1.7084,-1.7398,-1.8273,-1.9248,-1.9773,-1.9768,-1.9998,-2.0093,-2.0093,-2.0093,-2.0093,-2.0093,-2.0093,-2.0093,-2.0093,-2.0093,-2.0093,-2.0093,-2.0093,-2.0093,-2.0093,-2.0093,-2.0049,-1.9977,-1.9775,-1.9656,-1.9569,-1.9368,-2.0193,-2.1356,-2.109,-2.2164,-2.3781,-2.448,-2.4694,-2.4732,-2.4938,-2.5005,-2.4966,-2.4882,-2.4625,-2.4323,-2.4051,-2.3545,-2.3024,-2.2737,-2.2278,-2.1864,-2.1722,-2.1544,-2.1399,-2.1399,-2.1399,-2.1399,-2.1399,-2.1399,-2.1399,-2.1399,-2.1399,-2.1399,-2.1399,-2.0997,-2.0699,-2.0699,-2.0699,-2.0699,-2.0699,-2.0699,-2.0699,-2.0699,-2.0699,-2.0699,-2.0699,-2.0699,-2.0699,-2.0699,-2.0699,-2.0699,-2.0699,-2.0699,-2.0699,-2.0687,-2.0347,-2.0195,-2.019,-1.9159,-1.7867,-1.7853,-1.6549,-1.5267,-1.5267,-1.5294,-1.5321,-1.5314,-1.5325,-1.5316,-1.5329,0.0,0.0,0.0,0.0,0.0,0.0,0.0,0.0,0.0,0.0,0.0,0.0,-1.4197,-1.4503,0.0,-1.5323,-1.5656,-1.6522,-1.808,-1.895,-1.8937,-1.9692,-2.0093,-2.0093,-2.0093,-2.0093,-2.0093,-2.0093,-2.0093,-2.0093,-2.0093,-2.0093,-2.0093,-2.0093,-2.0093,-2.0093,-2.0093,-2.0049,-1.9977,-1.9775,-1.9656,-1.9569,-1.9368,-2.0185,-2.1355,-2.108,-2.1811,-2.3043,-2.4293,-2.4356,-2.4062,-2.478,-2.5005,-2.5005,-2.4985,-2.4806,-2.4569,-2.4498,-2.403,-2.353,-2.3319,-2.2737,-2.2161,-2.202,-2.1688,-2.1399,-2.1399,-2.1399,-2.1399,-2.1399,-2.1399,-2.1399,-2.1399,-2.1399,-2.1399,-2.1399,-2.0997,-2.0699,-2.0699,-2.0699,-2.0699,-2.0699,-2.0699,-2.0699,-2.0699,-2.0699,-2.0699,-2.0699,-2.0699,-2.0699,-2.0699,-2.0699,-2.0699,-2.0699,-2.0699,-2.0699,-2.0699,-2.0674,-2.0575,-2.0423,-1.9646,-1.8624,-1.8047,-1.7055,-1.6086,-1.5503,-1.5371,-1.5553,-1.6148,-1.6252,-1.6435,-1.7011,0.0,0.0,0.0,0.0,0.0,0.0,0.0,0.0,0.0,0.0,0.0,0.0,0.0,-1.3803,-1.5191,-1.5283,-1.563,-1.6458,-1.7528,-1.811,-1.811,-1.8888,-1.9315,-1.9315,-1.9826,-2.0093,-2.0093,-2.0093,-2.0093,-2.0093,-2.0093,-2.0093,-2.0093,-2.0093,-2.0093,-2.0093,-2.0093,-2.0049,-1.9977,-1.9775,-1.9656,-1.9569,-1.9368,-2.0195,-2.1488,-2.2047,-2.2863,-2.3733,-2.4067,-2.456,-2.5072,-2.5218,-2.524,-2.5182,-2.5088,-2.489,-2.4701,-2.4539,-2.4219,-2.3846,-2.3516,-2.3038,-2.2595,-2.244,-2.2161,-2.1926,-2.1926,-2.1926,-2.1864,-2.164,-2.1496,-2.1399,-2.1399,-2.1399,-2.1399,-2.1399,-2.1057,-2.0823,-2.0823,-2.0749,-2.0699,-2.0699,-2.0699,-2.0699,-2.0699,-2.0699,-2.0699,-2.0699,-2.0699,-2.0699,-2.0699,-2.0699,-2.0699,-2.0699,-2.0699,-2.0699,-2.0699,-2.0699,-2.0524,-2.0498,-1.9878,-1.9091,-1.8515,-1.7756,-1.6922,-1.6065,-1.6109,-1.6408,-1.6647,-1.6944,-1.7321,-1.7894,0.0,0.0,0.0,0.0,0.0,0.0,-1.0295,0.0,0.0,0.0,0.0,0.0,0.0,-1.3491,-1.5172,-1.5018,0.0,0.0,-1.6795,-1.7247,-1.724,-1.8323,-1.8899,-1.8899,-1.9692,-2.0093,-2.0093,-2.0093,-2.0093,-2.0093,-2.0093,-2.0093,-2.0093,-2.0093,-2.0093,-2.0093,-2.0093,-2.0049,-1.9977,-1.9775,-1.9656,-1.9569,-1.9368,-2.0134,-2.1448,-2.2849,-2.3559,-2.3923,-2.4297,-2.4875,-2.5464,-2.5561,-2.5511,-2.5359,-2.5243,-2.5005,-2.4762,-2.4641,-2.4421,-2.4156,-2.3861,-2.3458,-2.3091,-2.2926,-2.2655,-2.2449,-2.2449,-2.2449,-2.2379,-2.2086,-2.1864,-2.1616,-2.1423,-2.1399,-2.1399,-2.1399,-2.118,-2.0997,-2.0947,-2.0799,-2.0699,-2.0699,-2.0699,-2.0699,-2.0699,-2.0699,-2.0699,-2.0699,-2.0699,-2.0804,-2.0975,-2.0804,-2.0779,-2.0988,-2.0779,-2.0699,-2.0699,-2.0699,-2.0549]},{"header":{"parameterUnit":"m.s-1","parameterCategory":1,"la1":30.6,"la2":29.2853,"lo1":-89.7004,"lo2":-87.6739,"dy":0.0162,"dx":0.0183,"nx":112,"ny":82,"refTime":"2026-04-24T12:00:00:Z","depth":0,"parameterNumber":3,"parameterNumberName":"V-component_of_WINDS"},"data":[0.0,0.0,0.0,0.0,0.0,0.0,0.0,0.0,0.0,0.0,0.0,0.0,0.0,0.0,0.0,0.0,0.0,0.0,0.0,0.0,0.0,0.0,0.0,0.0,0.0,0.0,0.0,0.0,0.0,0.0,0.0,0.0,0.0,0.0,0.0,0.0,0.0,0.0,0.0,0.0,0.0,0.0,0.0,0.0,0.0,0.0,0.0,0.0,0.0,0.0,0.0,0.0,0.0,0.0,0.0,0.0,0.0,0.0,0.0,0.0,0.0,0.0,0.0,0.0,0.0,0.0,0.0,0.0,0.0,0.0,0.0,0.0,0.0,0.0,0.0,0.0,0.0,0.0,0.0,0.0,0.0,0.0,0.0,0.0,0.0,0.0,0.0,0.0,0.0,0.0,-0.6553,-0.8545,-1.0398,-1.1274,-1.0701,-1.001,-0.9379,-0.8869,0.0,0.0,0.0,0.0,0.0,0.0,0.0,0.0,0.0,0.0,0.0,0.0,0.0,0.0,0.0,0.0,0.0,0.0,0.0,0.0,0.0,0.0,0.0,0.0,0.0,0.0,0.0,0.0,0.0,0.0,0.0,0.0,0.0,0.0,0.0,0.0,0.0,0.0,0.0,0.0,0.0,0.0,0.0,0.0,0.0,0.0,0.0,0.0,0.0,0.0,0.0,0.0,0.0,0.0,0.0,0.0,0.0,0.0,0.0,0.0,0.0,0.0,0.0,0.0,0.0,0.0,0.0,0.0,0.0,0.0,0.0,0.0,0.0,0.0,0.0,0.0,0.0,0.0,0.0,0.0,0.0,0.0,0.0,0.0,0.0,0.0,0.0,0.0,0.0,0.0,0.0,0.0,0.0,0.0,0.0,0.0,0.0,0.0,0.0,0.0,0.0,0.0,0.0,0.0,-0.6744,-0.9186,-1.0675,-1.146,-1.1358,-1.0267,-0.9559,-0.9464,0.0,0.0,0.0,0.0,0.0,0.0,0.0,0.0,0.0,0.0,0.0,0.0,0.0,0.0,0.0,0.0,0.0,0.0,0.0,0.0,0.0,0.0,0.0,0.0,0.0,0.0,0.0,0.0,0.0,0.0,0.0,0.0,0.0,0.0,0.0,0.0,0.0,0.0,0.0,0.0,0.0,0.0,0.0,0.0,0.0,0.0,0.0,0.0,0.0,0.0,0.0,0.0,0.0,0.0,0.0,0.0,0.0,0.0,0.0,0.0,0.0,0.0,0.0,0.0,0.0,0.0,0.0,0.0,0.0,0.0,0.0,0.0,0.0,0.0,0.0,0.0,0.0,0.0,0.0,0.0,0.0,0.0,0.0,0.0,0.0,0.0,0.0,0.0,0.0,0.0,0.0,0.0,0.0,0.0,0.0,0.0,0.0,0.0,0.0,0.0,0.0,0.0,0.0,-0.681,-0.8306,-0.9467,-1.0733,-1.1358,-1.0987,-1.0112,-0.9466,-0.9131,-0.7054,0.0,0.0,0.0,0.0,0.0,0.0,0.0,0.0,0.0,0.0,0.0,0.0,0.0,0.0,0.0,0.0,0.0,0.0,0.0,0.0,0.0,0.0,0.0,0.0,0.0,0.0,0.0,0.0,0.0,0.0,0.0,0.0,0.0,0.0,0.0,0.0,0.0,0.0,0.0,0.0,0.0,0.0,0.0,0.0,0.0,0.0,0.0,0.0,0.0,0.0,0.0,0.0,0.0,0.0,0.0,0.0,0.0,0.0,0.0,0.0,0.0,0.0,0.0,0.0,0.0,0.0,0.0,0.0,0.0,0.0,0.0,0.0,0.0,0.0,0.0,0.0,0.0,0.0,0.0,0.0,0.0,0.0,0.0,0.0,0.0,0.0,0.0,0.0,0.0,0.0,0.0,0.0,0.0,0.0,0.0,0.0,0.0,0.0,0.0,0.0,0.0,0.0,-0.8022,-0.9598,-0.9598,-1.0733,-1.1231,-1.056,-0.9942,-0.9276,-0.8509,-0.6784,0.0,0.0,0.0,0.0,0.0,0.0,0.0,0.0,0.0,0.0,0.0,0.0,0.0,0.0,0.0,0.0,0.0,0.0,0.0,0.0,0.0,0.0,0.0,0.0,0.0,0.0,0.0,0.0,0.0,0.0,0.0,0.0,0.0,0.0,0.0,0.0,0.0,0.0,0.0,0.0,0.0,0.0,0.0,0.0,0.0,0.0,0.0,0.0,0.0,0.0,0.0,0.0,0.0,0.0,0.0,0.0,0.0,0.0,0.0,0.0,0.0,0.0,0.0,0.0,0.0,0.0,0.0,0.0,0.0,0.0,0.0,0.0,0.0,0.0,0.0,0.0,0.0,0.0,0.0,0.0,0.0,0.0,0.0,0.0,0.0,0.0,0.0,0.0,0.0,0.0,0.0,0.0,0.0,0.0,0.0,0.0,0.0,0.0,0.0,0.0,0.0,0.0,-0.8022,-0.9598,-0.9598,-1.0733,-1.1231,-1.056,-0.9942,-0.9084,-0.7846,-0.6535,0.0,0.0,0.0,0.0,0.0,0.0,0.0,0.0,0.0,0.0,0.0,0.0,0.0,0.0,0.0,0.0,0.0,0.0,0.0,0.0,0.0,0.0,0.0,0.0,0.0,0.0,0.0,0.0,0.0,0.0,0.0,0.0,0.0,0.0,0.0,0.0,0.0,0.0,0.0,0.0,0.0,0.0,0.0,0.0,0.0,0.0,0.0,0.0,0.0,0.0,0.0,0.0,0.0,0.0,0.0,0.0,0.0,0.0,0.0,0.0,0.0,0.0,0.0,0.0,0.0,0.0,0.0,0.0,0.0,0.0,0.0,0.0,0.0,0.0,0.0,0.0,0.0,0.0,0.0,0.0,0.0,0.0,0.0,0.0,0.0,0.0,0.0,0.0,0.0,0.0,0.0,0.0,0.0,0.0,0.0,0.0,0.0,0.0,0.0,0.0,0.0,0.0,-0.8023,-0.9616,0.0,-1.0806,-1.1121,-1.0025,-0.9739,-0.8889,-0.724,0.0,0.0,0.0,0.0,0.0,0.0,0.0,0.0,0.0,0.0,0.0,0.0,0.0,0.0,0.0,0.0,0.0,0.0,0.0,0.0,0.0,0.0,0.0,0.0,0.0,0.0,0.0,0.0,0.0,0.0,0.0,0.0,0.0,0.0,0.0,0.0,0.0,0.0,0.0,0.0,0.0,0.0,0.0,0.0,0.0,0.0,0.0,0.0,0.0,0.0,0.0,0.0,0.0,0.0,0.0,0.0,0.0,0.0,0.0,0.0,0.0,0.0,0.0,0.0,0.0,0.0,0.0,0.0,0.0,0.0,0.0,0.0,0.0,0.0,0.0,0.0,0.0,0.0,0.0,0.0,0.0,0.0,0.0,0.0,0.0,0.0,0.0,0.0,0.0,0.0,0.0,0.0,0.0,0.0,0.0,0.0,0.0,0.0,0.0,0.0,0.0,0.0,-0.5789,-0.807,-0.9703,0.0,-1.0895,-1.1114,-0.9741,-0.9621,-0.8708,-0.6606,0.0,0.0,0.0,0.0,0.0,0.0,0.0,0.0,0.0,0.0,0.0,0.0,0.0,0.0,0.0,0.0,0.0,0.0,0.0,0.0,0.0,0.0,0.0,0.0,0.0,0.0,0.0,0.0,0.0,0.0,0.0,0.0,0.0,0.0,0.0,0.0,0.0,0.0,0.0,0.0,0.0,0.0,0.0,0.0,0.0,0.0,0.0,0.0,0.0,0.0,0.0,0.0,0.0,0.0,0.0,0.0,0.0,0.0,0.0,0.0,0.0,0.0,0.0,0.0,0.0,0.0,0.0,0.0,0.0,0.0,0.0,0.0,0.0,0.0,0.0,0.0,0.0,0.0,0.0,0.0,0.0,0.0,0.0,0.0,0.0,0.0,0.0,0.0,0.0,0.0,0.0,0.0,0.0,0.0,0.0,0.0,0.0,0.0,0.0,0.0,0.0,0.0,-0.5789,-0.8199,-0.9872,-0.9818,-1.1002,-1.1235,-0.9815,-0.964,-0.851,0.0,0.0,0.0,0.0,0.0,0.0,0.0,0.0,0.0,0.0,0.0,0.0,0.0,0.0,0.0,0.0,0.0,0.0,0.0,0.0,0.0,0.0,0.0,0.0,0.0,0.0,0.0,0.0,0.0,0.0,0.0,0.0,0.0,0.0,0.0,0.0,0.0,0.0,0.0,0.0,0.0,0.0,0.0,0.0,0.0,0.0,0.0,0.0,0.0,0.0,0.0,0.0,0.0,0.0,0.0,0.0,0.0,0.0,0.0,0.0,0.0,0.0,0.0,0.0,0.0,0.0,0.0,0.0,0.0,0.0,0.0,0.0,0.0,0.0,0.0,0.0,0.0,0.0,0.0,0.0,0.0,0.0,0.0,0.0,0.0,0.0,0.0,0.0,0.0,0.0,0.0,0.0,0.0,0.0,0.0,0.0,0.0,0.0,0.0,0.0,0.0,0.0,0.0,-0.5925,-0.8296,-0.9975,-1.0016,-1.1162,-1.1394,-1.0028,-0.9727,-0.8536,-0.6028,0.0,0.0,0.0,0.0,0.0,0.0,0.0,0.0,0.0,0.0,0.0,0.0,0.0,0.0,0.0,0.0,0.0,0.0,0.0,0.0,0.0,0.0,0.0,0.0,0.0,0.0,0.0,0.0,0.0,0.0,0.0,0.0,0.0,0.0,0.0,0.0,0.0,0.0,0.0,0.0,0.0,0.0,0.0,0.0,0.0,0.0,0.0,0.0,0.0,0.0,0.0,0.0,0.0,0.0,0.0,0.0,0.0,0.0,0.0,0.0,0.0,0.0,0.0,0.0,0.0,0.0,0.0,0.0,0.0,0.0,0.0,0.0,0.0,0.0,0.0,0.0,0.0,0.0,0.0,0.0,0.0,0.0,0.0,0.0,0.0,0.0,0.0,0.0,0.0,0.0,0.0,0.0,0.0,0.0,0.0,0.0,0.0,0.0,0.0,0.0,0.0,0.0,-0.6349,-0.8603,-1.0165,-1.0182,-1.1401,-1.1615,-1.0206,-1.0088,-0.899,-0.6455,0.0,0.0,0.0,0.0,0.0,0.0,0.0,0.0,0.0,0.0,0.0,0.0,0.0,0.0,0.0,0.0,0.0,0.0,0.0,0.0,0.0,0.0,0.0,0.0,0.0,0.0,0.0,0.0,0.0,0.0,0.0,0.0,0.0,0.0,0.0,0.0,0.0,0.0,0.0,0.0,0.0,0.0,0.0,0.0,0.0,0.0,0.0,0.0,0.0,0.0,0.0,0.0,0.0,0.0,0.0,0.0,0.0,0.0,0.0,0.0,0.0,0.0,0.0,0.0,0.0,0.0,0.0,0.0,0.0,0.0,0.0,0.0,0.0,0.0,0.0,0.0,0.0,0.0,0.0,0.0,0.0,0.0,0.0,0.0,0.0,0.0,0.0,0.0,0.0,0.0,0.0,0.0,0.0,0.0,0.0,0.0,0.0,0.0,0.0,0.0,0.0,0.0,-0.6998,-0.9022,-1.0381,-1.0386,-1.1631,-1.1885,-1.0415,-1.0543,-0.9662,-0.7165,0.0,0.0,0.0,0.0,0.0,0.0,0.0,0.0,0.0,0.0,0.0,0.0,0.0,0.0,0.0,0.0,0.0,0.0,0.0,0.0,0.0,0.0,0.0,0.0,0.0,0.0,0.0,0.0,0.0,0.0,0.0,0.0,0.0,0.0,0.0,0.0,0.0,0.0,0.0,0.0,0.0,0.0,0.0,0.0,0.0,0.0,0.0,0.0,0.0,0.0,0.0,0.0,0.0,0.0,0.0,0.0,0.0,0.0,0.0,0.0,-0.8323,0.0,0.0,0.0,0.0,0.0,0.0,0.0,0.0,0.0,0.0,0.0,0.0,0.0,0.0,0.0,0.0,0.0,0.0,0.0,0.0,0.0,0.0,0.0,0.0,0.0,0.0,0.0,0.0,0.0,0.0,0.0,0.0,0.0,0.0,0.0,0.0,0.0,0.0,0.0,0.0,0.0,-0.7704,-0.9266,-1.0466,-1.103,-1.1788,-1.192,-1.1057,-1.0446,-0.9443,-0.7943,-0.7292,0.0,0.0,0.0,0.0,0.0,0.0,0.0,0.0,0.0,0.0,0.0,0.0,0.0,0.0,0.0,0.0,0.0,0.0,0.0,0.0,0.0,0.0,0.0,0.0,0.0,0.0,0.0,0.0,0.0,0.0,0.0,0.0,0.0,0.0,0.0,0.0,0.0,0.0,0.0,0.0,0.0,0.0,0.0,0.0,0.0,0.0,0.0,0.0,0.0,0.0,0.0,0.0,0.0,0.0,0.0,0.0,0.0,0.0,0.0,0.0,-0.9037,0.0,0.0,0.0,0.0,0.0,0.0,0.0,0.0,0.0,0.0,0.0,0.0,0.0,0.0,0.0,0.0,0.0,0.0,0.0,0.0,0.0,0.0,0.0,0.0,0.0,0.0,0.0,0.0,0.0,0.0,0.0,0.0,0.0,0.0,0.0,0.0,0.0,0.0,0.0,0.0,-0.8349,-0.9747,-1.0786,-1.1159,-1.1773,-1.1876,-1.1151,-1.1002,-1.0291,-0.8682,-0.8286,0.0,0.0,0.0,0.0,0.0,0.0,0.0,0.0,0.0,0.0,0.0,0.0,0.0,0.0,0.0,0.0,0.0,0.0,0.0,0.0,0.0,0.0,0.0,0.0,0.0,0.0,0.0,0.0,0.0,0.0,0.0,0.0,0.0,0.0,0.0,0.0,0.0,0.0,0.0,0.0,0.0,0.0,0.0,0.0,0.0,0.0,0.0,0.0,0.0,0.0,0.0,0.0,0.0,-1.0103,-1.0573,-1.1021,-1.1492,-1.1939,-1.2291,-1.1026,-1.0608,-1.0803,-0.9968,0.0,0.0,0.0,0.0,0.0,0.0,0.0,0.0,0.0,0.0,0.0,0.0,0.0,0.0,0.0,0.0,0.0,0.0,0.0,0.0,0.0,0.0,-1.093,-1.0389,-1.0298,-1.0157,-0.9483,0.0,0.0,0.0,0.0,0.0,0.0,0.0,0.0,0.0,0.0,0.0,-0.9105,-1.0279,-1.1099,-1.123,-1.1724,-1.1826,-1.1236,-1.1627,-1.1212,-0.9564,-0.9367,-0.8736,0.0,0.0,0.0,0.0,0.0,0.0,0.0,0.0,0.0,0.0,0.0,0.0,0.0,0.0,0.0,0.0,0.0,0.0,0.0,0.0,0.0,0.0,0.0,0.0,0.0,0.0,0.0,0.0,0.0,0.0,0.0,0.0,-0.2879,-0.3275,0.0,0.0,0.0,0.0,0.0,0.0,0.0,0.0,0.0,0.0,0.0,0.0,0.0,-0.9223,-1.0018,-1.0681,-1.1239,-1.1704,-1.2233,-1.2532,-1.2613,-1.3076,-1.3328,-1.3386,-1.3199,0.0,-1.1888,-1.175,0.0,0.0,0.0,0.0,0.0,0.0,0.0,0.0,0.0,0.0,0.0,0.0,0.0,0.0,0.0,0.0,0.0,0.0,0.0,0.0,0.0,0.0,-1.363,-1.3031,-1.2912,-1.2738,-1.2059,-1.0687,-0.953,-0.9377,-0.8323,-0.7438,0.0,0.0,0.0,0.0,0.0,0.0,-1.0238,-1.0683,-1.1082,-1.1731,-1.1878,-1.1914,-1.1865,-1.1419,-1.1082,-1.0928,-0.9905,-0.8985,-0.8278,-0.7577,0.0,0.0,0.0,0.0,0.0,0.0,0.0,0.0,0.0,0.0,0.0,0.0,0.0,0.0,0.0,0.0,0.0,0.0,0.0,0.0,0.0,0.0,0.0,0.0,0.0,0.0,0.0,0.0,0.0,-0.3077,-0.3819,-0.3999,-0.4016,-0.4102,0.0,0.0,0.0,0.0,0.0,0.0,0.0,0.0,0.0,-0.8361,-0.9573,-1.0606,-1.1464,-1.2222,-1.2709,-1.2958,-1.3498,-1.3751,-1.3762,-1.4224,-1.4442,-1.4442,-1.4442,-1.4189,-1.3719,-1.2889,-1.2368,-1.202,0.0,0.0,0.0,0.0,-1.0492,-1.0393,-1.0294,-1.0245,-1.0222,-1.0162,0.0,0.0,0.0,0.0,0.0,0.0,0.0,-1.2509,-1.2982,-1.3984,-1.4703,-1.405,-1.3919,-1.3731,-1.3105,-1.2042,-1.1103,-1.0739,-0.9641,-0.8757,-0.8732,-0.7954,0.0,0.0,0.0,-0.9631,-1.0488,-1.0929,-1.1321,-1.1692,-1.1794,-1.1859,-1.188,-1.1713,-1.1504,-1.1212,-1.0784,-1.0081,-0.9062,-0.8473,-0.7688,0.0,0.0,0.0,0.0,0.0,0.0,0.0,0.0,0.0,0.0,0.0,0.0,0.0,0.0,0.0,0.0,0.0,0.0,0.0,0.0,0.0,0.0,0.0,0.0,0.0,0.0,0.0,0.0,-0.3955,-0.4574,-0.476,-0.4786,-0.4897,0.0,0.0,0.0,0.0,0.0,0.0,-0.6956,-0.8093,-0.9065,-0.9793,-1.1109,-1.2146,-1.2861,-1.3612,-1.3983,-1.3983,-1.4522,-1.4775,-1.4742,-1.5177,-1.5358,-1.5324,-1.5288,-1.5253,-1.514,-1.3838,-1.3188,-1.3043,-1.2602,-1.2329,-1.2213,-1.2307,-1.2292,-1.2223,-1.2093,-1.2124,-1.2216,-1.2396,-1.235,-1.2212,-1.2022,0.0,0.0,0.0,0.0,-1.358,-1.4203,-1.5071,-1.566,-1.5153,-1.4906,-1.4616,-1.402,-1.3353,-1.2659,-1.1885,-1.0693,-0.9836,-0.9836,-0.9293,0.0,-0.9066,-0.9889,-1.056,-1.073,-1.1187,-1.1537,-1.159,-1.1696,-1.1794,-1.1826,-1.1971,-1.1897,-1.148,-1.1295,-1.0765,-0.9821,-0.9082,-0.8352,-0.7615,0.0,0.0,0.0,0.0,0.0,0.0,0.0,0.0,0.0,0.0,0.0,0.0,0.0,0.0,0.0,0.0,0.0,0.0,0.0,0.0,0.0,0.0,0.0,0.0,0.0,0.0,0.0,0.0,0.0,-0.5468,-0.5541,0.0,0.0,0.0,0.0,-0.623,-0.7097,-0.7662,-0.7746,-0.9112,-1.0322,-1.1176,-1.2509,-1.3594,-1.4391,-1.4812,-1.5028,-1.5039,-1.5579,-1.576,-1.564,-1.598,-1.6067,-1.593,-1.5753,-1.5676,-1.5593,-1.4699,-1.424,-1.4099,-1.387,-1.3729,-1.3641,-1.3954,-1.4036,-1.3954,-1.3827,-1.3896,-1.4181,-1.4803,-1.4914,-1.4775,-1.4565,-1.3875,0.0,0.0,-1.4456,-1.5241,-1.5534,-1.6343,-1.7113,-1.7052,-1.6576,-1.5936,-1.5327,-1.4674,-1.3833,-1.2601,-1.1339,-1.0459,-1.0459,0.0,-0.9734,-1.0314,-1.0459,-1.073,-1.1373,-1.1486,-1.1534,-1.1593,-1.1659,-1.1757,-1.188,-1.197,-1.205,-1.2133,-1.101,-1.042,-1.0543,-0.9359,-0.8352,-0.7615,-0.7499,0.0,0.0,0.0,0.0,0.0,0.0,0.0,0.0,0.0,0.0,0.0,0.0,0.0,0.0,0.0,0.0,0.0,0.0,0.0,0.0,0.0,0.0,0.0,0.0,0.0,0.0,0.0,0.0,-0.6319,-0.6569,0.0,-0.7056,-0.6971,-0.7021,-0.731,-0.8077,-0.8709,-0.9071,-1.0234,-1.1431,-1.262,-1.3668,-1.4572,-1.5329,-1.5806,-1.606,-1.606,-1.6254,-1.6248,-1.6025,-1.5916,-1.5763,-1.5532,-1.5252,-1.519,-1.5295,-1.4992,-1.4878,-1.4904,-1.483,-1.4722,-1.462,-1.4729,-1.4864,-1.4924,-1.4788,-1.4953,-1.5307,-1.5756,-1.6078,-1.6149,-1.5476,-1.5108,-1.4911,-1.4935,-1.5394,-1.605,-1.674,-1.7373,-1.7853,-1.7853,-1.7664,-1.72,-1.6111,-1.54,-1.4674,-1.379,-1.2932,-1.2364,-1.2364,-1.2187,-1.2114,-1.2335,-1.2364,-1.2306,-1.2105,-1.2076,-1.1966,-1.1634,-1.1696,-1.1779,-1.1837,-1.1986,-1.2097,-1.2179,-1.1502,-1.0925,-1.0608,-0.9828,-0.9064,-0.8319,-0.7841,-0.7119,0.0,0.0,0.0,0.0,0.0,0.0,0.0,0.0,0.0,0.0,0.0,0.0,0.0,0.0,0.0,0.0,0.0,0.0,0.0,0.0,0.0,0.0,0.0,0.0,0.0,0.0,-0.6547,-0.6918,-0.7286,-0.7612,-0.7877,-0.7876,-0.7979,-0.8262,-0.9072,-0.9766,-1.0175,-1.119,-1.2367,-1.3656,-1.4604,-1.5399,-1.6033,-1.6482,-1.6607,-1.6398,-1.6517,-1.6391,-1.6066,-1.5903,-1.5657,-1.5307,-1.4988,-1.498,-1.5223,-1.5223,-1.5335,-1.5477,-1.5311,-1.5226,-1.5172,-1.5253,-1.5426,-1.5598,-1.5802,-1.6179,-1.6662,-1.7076,-1.7424,-1.7557,-1.6938,-1.6685,-1.6608,-1.6653,-1.683,-1.7227,-1.7991,-1.8355,-1.8506,-1.8506,-1.8361,-1.7969,-1.7069,-1.6213,-1.5472,-1.5022,-1.4107,-1.3394,-1.3394,-1.3394,-1.3394,-1.3394,-1.3394,-1.3234,-1.2787,-1.2543,-1.2262,-1.1948,-1.1796,-1.1747,-1.1805,-1.194,-1.2076,-1.2179,-1.1741,-1.1326,-1.097,-1.0456,-0.9822,-0.9081,-0.8094,-0.7367,-0.6872,0.0,0.0,0.0,0.0,0.0,0.0,0.0,0.0,0.0,0.0,0.0,0.0,0.0,0.0,0.0,0.0,0.0,0.0,0.0,0.0,0.0,0.0,0.0,-0.5043,-0.6082,-0.6968,-0.7303,-0.7706,-0.7954,-0.7954,-0.8603,-0.9038,-0.9055,-1.0089,-1.0817,-1.1041,-1.1991,-1.3094,-1.4294,-1.5368,-1.6111,-1.652,-1.6775,-1.661,-1.6037,-1.6343,-1.6251,-1.5793,-1.6005,-1.5816,-1.5352,-1.501,-1.5098,-1.5484,-1.5484,-1.5613,-1.5753,-1.5352,-1.5264,-1.5332,-1.5595,-1.5778,-1.6046,-1.6909,-1.7595,-1.8174,-1.8789,-1.9013,-1.902,-1.9008,-1.8632,-1.8311,-1.8773,-1.8804,-1.8835,-1.9266,-1.9244,-1.913,-1.9101,-1.8666,-1.823,-1.8201,-1.7185,-1.624,-1.6213,-1.4732,-1.3481,-1.3452,-1.3452,-1.3452,-1.3452,-1.3452,0.0,-1.3423,-1.286,-1.248,-1.2497,-1.1971,-1.1663,-1.1783,-1.1859,-1.1986,-1.2169,-1.1709,-1.1489,-1.1698,-1.1186,-1.0558,-0.9852,-0.8403,-0.7664,-0.7664,0.0,0.0,0.0,0.0,0.0,0.0,0.0,0.0,0.0,0.0,0.0,0.0,0.0,0.0,0.0,0.0,0.0,0.0,0.0,0.0,0.0,-0.5216,-0.603,-0.6144,-0.6991,-0.7749,-0.8127,-0.8744,-0.9136,-0.9136,-0.9534,-0.9927,-1.0209,-1.0797,-1.1438,-1.2105,-1.3013,-1.3951,-1.4935,-1.5997,-1.6612,-1.6727,-1.6972,-1.695,-1.6585,-1.6426,-1.6125,-1.5644,-1.5525,-1.5206,-1.4736,-1.4389,-1.4567,-1.5067,-1.5067,-1.5369,-1.5754,-1.5422,-1.5345,-1.5449,-1.5478,-1.5807,-1.6335,-1.6881,-1.7457,-1.8034,-1.856,-1.9049,-1.9344,-1.8971,-1.8808,-1.8792,-1.8763,-1.8894,-1.9069,-1.9085,-1.9317,-1.9443,-1.9113,-1.8943,-1.8738,-1.8303,-1.7911,-1.7357,-1.6401,-1.5777,-1.5284,-1.4848,-1.4776,-1.4776,-1.4776,-1.4776,-1.4602,-1.4123,-1.389,-1.3427,-1.2524,-1.2274,-1.203,-1.1689,-1.1751,-1.1912,-1.2107,-1.1712,-1.1535,-1.1698,-1.1186,-1.0807,-1.0608,-0.9673,-0.9193,0.0,0.0,0.0,0.0,0.0,0.0,0.0,0.0,0.0,0.0,0.0,0.0,0.0,0.0,0.0,0.0,0.0,0.0,0.0,0.0,0.0,0.0,-0.6034,-0.6926,-0.7232,-0.7781,-0.8248,-0.8481,-0.9156,-0.9666,-0.979,-1.0277,-1.0755,-1.114,-1.1687,-1.2257,-1.2809,-1.3538,-1.4298,-1.505,-1.595,-1.6407,-1.6428,-1.6634,-1.6567,-1.6208,-1.6035,-1.5743,-1.5337,-1.5296,-1.5075,-1.4635,-1.4404,-1.4565,-1.5014,-1.5014,-1.5317,-1.5738,0.0,0.0,0.0,0.0,-1.6107,-1.6742,-1.7299,-1.7686,-1.798,-1.8509,-1.8994,-1.9321,-1.9116,-1.917,-1.9334,-1.9324,-1.9365,-1.9426,-1.9586,-1.9586,-1.9494,-1.9332,-1.919,-1.8999,-1.8651,-1.839,-1.7969,-1.72,-1.6574,0.0,-1.5733,-1.5472,-1.5298,-1.5298,-1.5298,-1.5153,-1.4761,-1.4471,-1.4022,-1.3282,-1.2976,-1.2592,-1.2059,-1.2126,0.0,0.0,0.0,-1.2038,-1.2275,-1.1687,0.0,0.0,0.0,0.0,0.0,0.0,0.0,0.0,-0.8028,-0.8111,0.0,0.0,0.0,0.0,0.0,0.0,0.0,0.0,0.0,0.0,0.0,0.0,0.0,0.0,0.0,0.0,-0.6935,-0.7638,-0.8141,-0.8398,-0.8566,-0.8617,-0.9285,-0.985,-1.0209,-1.0951,-1.1559,-1.1917,-1.2595,-1.3084,-1.3235,0.0,0.0,0.0,0.0,-1.5777,-1.5758,-1.5902,-1.5749,-1.5371,-1.5387,-1.5247,-1.5001,-1.5245,-1.518,-1.4878,-1.4741,-1.4889,-1.5215,-1.5215,-1.542,-1.5668,-1.5034,-1.4996,-1.5289,-1.593,-1.6568,-1.7171,-1.7868,0.0,0.0,-1.851,-1.8814,-1.904,-1.9316,-1.9591,-1.985,-2.0105,-1.9961,-1.9863,-2.0331,-1.9916,-1.9411,-1.9628,-1.9387,-1.9101,-1.9101,-1.868,-1.8288,-1.8216,-1.7243,-1.6387,-1.6227,-1.5689,-1.5298,-1.5298,-1.5298,-1.5298,-1.5298,-1.4776,-1.4384,-1.4312,-1.3817,0.0,-1.2758,-1.2784,-1.2707,-1.2425,-1.2569,-1.2825,-1.3216,-1.2522,-1.2124,-1.2124,-1.1478,-1.1155,-1.1155,-1.1155,-1.1155,-1.1138,-1.0309,-0.9961,0.0,0.0,0.0,0.0,0.0,0.0,0.0,0.0,0.0,0.0,0.0,0.0,0.0,0.0,0.0,-0.6439,-0.7249,-0.7902,-0.8155,-0.8607,-0.9024,-0.935,-1.0052,-1.0651,-1.1044,-1.1756,-1.2338,-1.2732,-1.2923,-1.3129,-1.3421,-1.3696,-1.395,-1.416,-1.4776,-1.504,-1.4942,-1.507,-1.5123,-1.5087,0.0,0.0,-1.4927,-1.4974,-1.4887,-1.4741,-1.4717,-1.4889,-1.5215,-1.5215,-1.5257,-1.5317,-1.5459,-1.5701,-1.6045,-1.6444,-1.6988,-1.7564,-1.7515,-1.7573,-1.7774,-1.7885,-1.8344,-1.8883,-1.916,-1.95,0.0,-1.9978,-2.008,-2.0114,-2.0168,-1.9976,-1.9744,-1.9576,-1.9299,-1.9101,-1.9101,-1.9014,-1.8782,-1.8303,-1.7998,-1.7475,-1.6401,-1.5689,-1.5298,-1.5298,-1.5298,-1.5298,-1.5298,-1.5182,-1.4892,-1.4355,-1.4196,-1.3917,-1.3366,-1.3485,-1.3636,-1.3728,-1.3616,-1.3687,-1.3977,-1.3275,-1.2894,-1.2894,-1.2754,-1.2662,-1.2662,-1.2662,-1.2662,-1.2629,-1.1313,-1.1006,0.0,0.0,0.0,0.0,0.0,0.0,0.0,0.0,0.0,0.0,0.0,-0.5066,-0.5762,0.0,-0.6669,-0.7052,-0.7685,-0.821,-0.8419,-0.8756,-0.9141,-0.9555,-1.0243,-1.0918,-1.1499,-1.2244,-1.2843,-1.3211,-1.3245,-1.3322,-1.3502,-1.361,-1.3731,-1.389,-1.4511,-1.4802,-1.4638,-1.4983,-1.5082,-1.4942,-1.4921,-1.495,-1.5065,-1.5273,-1.53,-1.524,-1.524,-1.5343,-1.5506,-1.5506,-1.5506,-1.554,-1.5808,-1.6012,-1.6275,-1.6837,-1.7339,-1.7699,-1.7812,-1.7621,-1.7408,-1.7693,-1.8102,-1.8525,-1.8975,-1.9422,-1.9798,-1.9888,-1.9939,-2.0054,-2.0294,-2.002,-1.9727,-1.9873,-1.9503,-1.9101,-1.9101,-1.9101,-1.9014,-1.8709,-1.8419,-1.7998,-1.7316,-1.6385,-1.5646,-1.5341,-1.5298,-1.5298,-1.5298,-1.5298,-1.5167,-1.4834,-1.479,-1.4587,-1.4054,-1.4,-1.4099,-1.4331,-1.4345,-1.4473,-1.4741,-1.4403,-1.4205,-1.4205,-1.3847,-1.3655,-1.3655,-1.3275,-1.3093,-1.3076,-1.234,-1.2406,0.0,0.0,0.0,0.0,0.0,0.0,0.0,0.0,-0.4691,-0.5026,-0.5517,-0.6008,-0.6397,-0.6878,-0.7302,-0.7636,-0.8062,-0.8435,-0.8643,-0.8854,-0.912,-0.9512,-1.0303,-1.1097,-1.1849,-1.2637,-1.3202,-1.3485,-1.3511,-1.3511,-1.3511,-1.3511,-1.3606,-1.3852,-1.4387,-1.4662,-1.4602,-1.5038,-1.5151,-1.4959,-1.5128,-1.5257,-1.5343,-1.5651,-1.5805,-1.5805,-1.5805,-1.5805,-1.5805,-1.5805,-1.5805,-1.5841,-1.6035,-1.6145,-1.6256,-1.7044,-1.7516,-1.7822,-1.8061,-1.7616,-1.7085,-1.7607,-1.7918,-1.8201,-1.8827,-1.937,-1.9798,-1.9798,-1.9798,-1.9927,-2.0459,-2.0056,-1.9627,-2.0158,-1.9692,-1.9101,-1.9101,-1.9101,-1.9101,-1.9101,-1.8709,-1.8346,-1.823,-1.7301,-1.6343,-1.5588,-1.537,-1.5298,-1.5298,-1.5298,-1.5298,-1.5298,-1.5298,-1.5154,-1.477,-1.4641,-1.4711,-1.501,-1.5087,-1.5239,-1.5497,-1.5386,-1.5303,-1.5303,-1.4718,-1.44,-1.44,-1.3814,-1.3532,-1.3532,-1.3532,-1.3781,-0.4194,-0.4421,-0.466,-0.4757,-0.4788,-0.4801,0.0,0.0,-0.5375,-0.5725,-0.6027,-0.6419,-0.699,-0.7158,-0.7356,-0.7873,-0.8116,-0.8291,-0.85,-0.8741,-0.9026,-0.938,-1.0493,-1.1533,-1.2261,-1.3006,-1.3468,-1.3502,-1.3511,-1.3511,-1.3511,-1.3511,-1.3665,-1.4047,-1.4139,-1.4328,-1.4689,-1.4765,-1.4904,-1.5188,-1.5189,-1.5394,-1.5737,-1.578,-1.5805,-1.5805,-1.5805,-1.5805,-1.5805,-1.5805,-1.5805,-1.5841,-1.6035,-1.6076,-1.6096,-1.6788,-1.7468,-1.7983,-1.7359,-1.7099,-1.7033,-1.722,-1.7667,-1.8201,-1.8827,-1.937,-1.9798,-1.9798,-1.9798,-1.9927,-2.0459,-2.0056,-1.9627,-2.0158,-1.9692,-1.9101,-1.9101,-1.9101,-1.9101,-1.9101,-1.9043,-1.884,-1.8303,-1.8085,-1.7548,-1.63,-1.5631,-1.5298,-1.5298,-1.5298,-1.5298,-1.5298,-1.5298,-1.5359,-1.5548,-1.5758,-1.6068,-1.6524,-1.6124,-1.6,-1.6276,-1.5641,-1.5303,-1.5303,-1.5209,-1.5176,-1.5176,-1.5093,-1.5043,-1.5043,-1.5043,-1.4751,-0.4529,-0.4993,-0.5426,0.0,-0.5739,-0.5957,-0.5989,-0.6076,-0.6251,-0.6581,-0.6749,-0.6965,-0.7406,-0.7494,-0.7591,0.0,-0.8015,-0.816,-0.8406,-0.8631,-0.8927,-0.935,-1.012,-1.0969,-1.1951,-1.2757,-1.3288,-1.3494,-1.3511,-1.3511,-1.3511,-1.3511,-1.3691,-1.4084,-1.4316,-1.4615,-1.4992,-1.5215,-1.5411,-1.5557,-1.5557,-1.5643,-1.5805,-1.5805,-1.5805,-1.5797,-1.5691,-1.562,-1.5611,-1.5505,-1.5461,-1.5461,-1.5674,-1.5931,-1.6204,-1.6611,-1.6902,-1.702,-1.6829,-1.6713,-1.6709,-1.7086,-1.7611,-1.8201,-1.8827,-1.937,-1.9798,-1.9798,-1.9798,-1.9927,-2.0459,-2.0056,-1.9627,-2.0158,-1.9692,-1.9101,-1.9101,-1.9101,-1.9101,-1.9101,-1.9101,-1.9029,-1.8767,-1.8433,-1.8013,-1.7461,-1.6503,-1.5705,-1.5341,-1.5298,-1.5298,-1.5298,-1.5373,-1.5507,-1.574,-1.6038,-1.6382,-1.6776,-1.6742,-1.6803,-1.7039,-1.6752,-1.6586,-1.6586,-1.6127,-1.5863,-1.5814,-1.5385,-1.5188,-1.5188,-1.5188,-1.5243,-0.4778,-0.5353,-0.5899,-0.5984,-0.6364,-0.6702,-0.6702,-0.6775,-0.6906,-0.7158,-0.7209,-0.7311,-0.7632,-0.7618,-0.763,-0.7855,-0.7946,-0.807,-0.8311,-0.8529,-0.8774,-0.9173,-0.9643,-1.0414,-1.155,-1.2372,-1.3014,-1.3476,-1.3511,-1.3511,-1.3511,-1.3511,-1.3742,-1.4247,-1.4538,-1.4906,-1.5369,-1.566,-1.5805,-1.5805,-1.5805,-1.5805,-1.5805,-1.5805,-1.5805,-1.5797,-1.5576,-1.5461,-1.539,-1.5213,-1.5062,-1.5062,-1.5319,-1.5641,-1.6043,-1.6337,-1.6436,-1.6486,-1.6477,-1.6429,-1.6488,-1.6965,-1.7584,-1.8213,-1.8774,-1.9344,-1.9798,-1.9798,-1.9798,-1.9927,-2.0409,-2.0033,-1.9627,-2.0128,-1.9652,-1.9101,-1.9101,-1.9101,-1.9101,-1.9101,-1.9101,-1.9101,-1.9101,-1.8738,-1.839,-1.823,-1.7229,-1.624,-1.5617,-1.5399,-1.5298,-1.5298,-1.5418,-1.5566,-1.5784,-1.6108,-1.6448,-1.6815,-1.7038,-1.7269,-1.7486,-1.7503,-1.7503,-1.7503,-1.6891,-1.6518,-1.642,-1.5881,-1.562,-1.562,-1.562,-1.5914,-0.4748,-0.5289,-0.5845,-0.5974,-0.6364,-0.6702,-0.6702,-0.695,-0.7195,-0.7202,-0.7209,-0.7311,-0.7632,-0.7435,-0.7366,-0.7818,-0.7899,-0.7981,-0.8175,-0.8386,-0.8561,-0.8692,-0.9249,-1.006,-1.1207,-1.197,-1.2714,-1.3459,-1.3511,-1.3511,-1.3511,-1.3511,-1.3862,-1.4674,-1.4675,-1.5043,-1.578,-1.5797,-1.5805,-1.5805,-1.5805,-1.5805,-1.5805,-1.5805,-1.5805,-1.5797,-1.5576,-1.539,-1.5204,-1.5007,-1.4792,-1.4677,-1.5062,-1.5235,-1.53,-1.5824,-1.6379,-1.6802,-1.6284,-1.623,-1.6459,-1.6881,-1.7501,-1.8186,-1.8652,-1.9277,-1.9798,-1.9798,-1.9798,-1.9901,-2.0296,-1.9962,-1.9605,-2.0006,-1.9591,-1.9101,-1.9101,-1.9101,-1.9101,-1.9101,-1.9101,-1.9101,-1.9101,-1.9087,-1.8869,-1.8303,-1.7621,-1.6938,-1.6271,-1.566,-1.5298,-1.5298,-1.5418,-1.558,-1.5782,-1.6107,-1.6474,-1.686,-1.7027,-1.7216,-1.7486,-1.7503,-1.7503,-1.7503,-1.735,-1.7183,-1.6973,-1.6957,-1.6941,-1.6941,-1.6941,-1.6957,-0.4767,-0.5479,-0.6179,-0.6356,-0.689,-0.7362,-0.7362,-0.745,-0.7465,-0.7253,-0.7377,-0.7428,-0.7107,-0.7311,-0.7514,-0.7444,-0.7613,-0.7836,-0.8036,-0.8283,-0.8508,-0.8675,-0.9004,0.0,-1.1164,-1.173,0.0,-1.3434,-1.3511,-1.3511,-1.3511,-1.3759,-1.4136,-1.4667,-1.4915,-1.5283,-1.5797,-1.5805,-1.5805,-1.5805,-1.5655,-1.5541,-1.539,-1.539,-1.5328,-1.5193,-1.5114,-1.5007,-1.4784,-1.4649,-1.4461,-1.431,-1.4669,-1.5067,-1.5392,-1.5386,-1.5896,-1.6527,-1.6226,-1.6087,-1.6144,-1.6694,-1.7318,-1.7941,-1.8506,-1.9066,-1.9539,-1.9539,-1.9539,-1.9642,-2.0144,-1.9832,-1.9485,-1.9984,-1.9591,-1.9101,-1.9101,-1.9101,-1.9101,-1.9101,-1.9101,-1.9101,-1.9101,-1.9101,-1.8738,-1.7693,-1.6982,-1.6314,-1.5675,-1.5428,-1.5298,-1.5298,-1.5462,-1.5668,-1.5968,-1.6258,-1.6581,-1.6888,-1.7034,-1.7125,-1.7158,-1.7257,-1.7322,-1.7366,-1.7232,-1.7079,-1.6866,-1.6812,-1.6789,-1.6725,-1.6725,-1.6725,-0.4813,-0.559,-0.6349,-0.6547,-0.716,-0.7691,-0.7691,-0.7603,-0.7457,-0.7253,-0.7187,-0.7104,-0.676,-0.7044,-0.7319,-0.7224,-0.7486,-0.7767,-0.7979,-0.8453,-0.8875,-0.908,-0.9528,-1.0309,0.0,0.0,0.0,-1.3434,-1.3511,-1.3511,-1.3511,-1.375,-1.4136,-1.4667,-1.4906,-1.5274,-1.5797,-1.5805,-1.5805,-1.5805,-1.5541,-1.524,-1.4974,-1.4911,-1.4776,-1.4569,-1.4605,-1.4533,-1.4425,-1.4253,-1.4072,-1.392,-1.4274,-1.474,-1.5165,-1.5145,-1.5539,-1.6075,-1.5904,-1.5871,-1.6,-1.6563,-1.7179,-1.7804,-1.8333,-1.8907,-1.9394,-1.9394,-1.9394,-1.9525,-2.0003,-1.9893,-1.975,-2.0235,-2.0068,-1.9783,-1.9783,-1.9783,-1.9711,-1.9508,-1.9464,-1.9377,-1.9145,-1.9101,-1.8753,-1.7722,-1.6996,-1.624,-1.5414,-1.5298,-1.5298,-1.5298,-1.5522,-1.5827,-1.6177,-1.6407,-1.6659,-1.6914,-1.6971,-1.6949,-1.6853,-1.6987,-1.7092,-1.7203,-1.705,-1.6911,-1.6725,-1.6646,-1.6541,-1.6448,-1.6463,-1.6463,-0.4875,-0.562,-0.6375,-0.6574,-0.7174,-0.7691,-0.7676,-0.7428,-0.7202,-0.7165,-0.6709,-0.639,0.0,0.0,-0.6826,-0.7117,-0.7472,-0.7767,-0.7979,-0.8873,-0.9575,0.0,0.0,0.0,0.0,0.0,0.0,-1.3425,0.0,-1.3485,-1.3511,-1.3528,-1.3887,-1.4691,-1.4726,-1.5086,-1.5797,-1.5797,-1.577,-1.5761,-1.5355,-1.4939,-1.453,-1.433,-1.4122,-1.3934,-1.4021,-1.4057,-1.4057,-1.3863,-1.3681,-1.3528,-1.392,-1.4302,-1.4633,-1.5008,-1.5316,-1.5551,-1.5405,-1.5604,-1.5933,-1.6438,-1.7095,-1.7749,-1.817,-1.8801,-1.9368,-1.9368,-1.9368,-1.9473,-1.9888,-2.0093,-2.0301,-2.0694,-2.0904,-2.1003,-2.1003,-2.1003,-2.0814,-2.0219,-2.0074,-1.9841,-1.9217,-1.9101,-1.8898,-1.8303,-1.7664,-1.6793,-1.5501,-1.5312,-1.5298,-1.5298,-1.558,-1.5955,-1.6365,-1.6514,-1.6699,-1.6968,-1.6853,-1.6712,-1.6596,-1.6712,-1.6853,-1.6993,-1.6853,-1.6725,-1.661,-1.645,-1.6328,-1.619,-1.6193,-1.6193,-0.5391,-0.6033,-0.6637,-0.6852,-0.7314,-0.7632,-0.7384,-0.7268,-0.7071,-0.6632,-0.657,-0.648,0.0,0.0,0.0,-0.6855,-0.7319,0.0,-0.7979,-0.8873,0.0,-0.9767,0.0,-1.1593,-1.2321,-1.2389,0.0,0.0,-1.3146,-1.3228,-1.3494,-1.3785,-1.4179,-1.4667,-1.5223,-1.5608,-1.5805,-1.5655,-1.5505,-1.5355,-1.4705,-1.4078,-1.3557,-1.3361,-1.3149,-1.2996,-1.3448,-1.3637,-1.3674,-1.3754,-1.3681,-1.3535,-1.379,-1.4065,-1.4367,-1.4308,-1.4751,-1.5336,-1.4995,-1.5147,-1.5623,-1.6181,-1.6803,-1.7435,-1.7991,-1.8587,-1.9093,-1.9093,-1.9093,-1.9225,-1.9708,-1.9945,-2.0181,-2.0681,-2.0904,-2.1003,-2.1003,-2.1003,-2.0814,-2.0219,-1.9696,-1.9304,-1.913,-1.9101,-1.8898,-1.8303,-1.8056,-1.7475,-1.6139,-1.5573,-1.5298,-1.5298,-1.5507,-1.5812,-1.6231,-1.6326,-1.6477,-1.6701,-1.6583,-1.6436,-1.6303,-1.649,-1.6659,-1.6853,-1.6821,-1.673,-1.661,-1.6423,-1.6232,-1.6052,-1.6038,-1.6038,-0.5596,-0.6185,-0.6747,-0.6958,-0.7217,-0.7388,-0.7226,-0.6952,-0.6593,-0.6177,-0.608,0.0,-0.5649,-0.6131,0.0,0.0,0.0,0.0,-0.7957,-0.9155,-1.006,0.0,-1.1471,0.0,-1.2843,-1.2877,-1.2874,0.0,-1.3096,-1.3228,-1.3271,-1.3802,-1.4273,-1.4699,-1.524,-1.5625,-1.5805,-1.5505,-1.524,-1.4939,-1.4114,-1.3353,-1.2652,-1.2372,-1.212,-1.1966,-1.2489,-1.2856,-1.3119,-1.3309,-1.3455,-1.3499,-1.3608,-1.3783,-1.396,-1.4013,-1.4413,-1.4945,-1.4863,-1.5093,-1.5497,-1.6085,-1.6719,-1.7313,-1.7909,-1.8506,-1.8987,-1.8987,-1.8987,-1.9119,-1.9643,-2.0076,-2.051,-2.1092,-2.1518,-2.1794,-2.1837,-2.1823,-2.1583,-2.0669,-1.974,-1.9101,-1.9101,-1.9101,-1.8985,-1.8651,-1.8375,-1.7824,-1.6762,-1.6097,-1.5588,-1.5327,-1.5462,-1.5696,-1.605,-1.6134,-1.6231,-1.6407,-1.6301,-1.6165,-1.6026,-1.6248,-1.6477,-1.6714,-1.6701,-1.6691,-1.661,-1.6369,-1.6137,-1.5912,-1.5912,-1.5912,-0.5662,-0.621,-0.6734,-0.689,-0.6996,-0.7049,-0.6984,-0.6482,-0.5937,-0.5698,0.0,-0.5231,-0.5231,-0.5546,-0.5963,-0.6501,0.0,-0.7383,-0.7873,-0.9407,-1.0579,-1.0888,-1.2369,-1.3399,-1.3502,-1.3511,-1.3297,-1.2831,-1.3195,-1.3297,-1.2939,-1.366,-1.4324,-1.4812,-1.5095,-1.5385,-1.5726,-1.5284,-1.4832,-1.4386,-1.3448,-1.2586,-1.1818,-1.1446,-1.1186,-1.1037,-1.1446,-1.1966,-1.2526,-1.2783,-1.3083,-1.3455,-1.3492,-1.3492,-1.3557,-1.3882,-1.4219,-1.4548,-1.4845,-1.5155,-1.5497,-1.6085,-1.6719,-1.7313,-1.7909,-1.8506,-1.8987,-1.8987,-1.8987,-1.9119,-1.9656,-2.0283,-2.0957,-2.1602,-2.2306,-2.2818,-2.288,-2.2757,-2.2301,-2.1104,-1.9914,-1.9101,-1.9101,-1.9101,-1.9101,-1.9101,-1.8651,-1.8056,-1.7301,-1.6619,-1.598,-1.5356,-1.5403,-1.558,-1.5852,-1.5939,-1.6038,-1.6162,-1.6052,-1.5926,-1.5813,-1.6055,-1.6303,-1.657,-1.657,-1.657,-1.657,-1.6303,-1.6055,-1.5799,-1.5799,-1.5799,-0.5886,-0.6319,-0.6674,-0.6525,-0.6686,-0.666,-0.5952,-0.5644,0.0,0.0,-0.4851,-0.4895,-0.4895,-0.5392,-0.5832,-0.5942,0.0,0.0,0.0,0.0,-1.0003,0.0,0.0,0.0,0.0,-1.3511,0.0,0.0,-1.2955,-1.2945,-1.2609,-1.3437,-1.4466,-1.5574,-1.5484,-1.5394,-1.5311,-1.4633,-1.4013,-1.3411,-1.2432,-1.1626,-1.0999,-1.0775,-1.0625,-1.0625,-1.1037,-1.1558,-1.212,-1.2489,-1.29,-1.3273,-1.3455,-1.3492,-1.3498,-1.3584,-1.3981,-1.4514,-1.4552,-1.494,-1.5497,-1.6085,-1.6719,-1.7313,-1.7909,-1.8506,-1.8987,-1.8987,-1.8987,-1.9093,-1.9526,-2.0207,-2.0894,-2.1361,-2.2152,-2.2795,-2.2818,-2.2019,-2.1119,-2.0407,-1.9638,-1.9101,-1.9101,-1.9101,-1.9101,-1.9101,-1.9014,-1.8521,-1.7359,-1.6619,-1.598,-1.5356,-1.5374,-1.5492,-1.5724,-1.5797,-1.5884,-1.6024,-1.5955,-1.587,-1.5799,-1.5997,-1.622,-1.6423,-1.6423,-1.6423,-1.6423,-1.622,-1.6012,-1.5799,-1.5799,-1.5799,-0.5694,-0.6163,-0.6557,-0.6386,-0.6415,-0.6339,-0.5744,0.0,0.0,0.0,-0.4497,-0.4546,-0.4546,-0.4801,0.0,0.0,0.0,0.0,0.0,0.0,0.0,0.0,0.0,0.0,0.0,0.0,-1.2772,-1.227,-1.2228,-1.2386,-1.2739,-1.3812,-1.4849,-1.578,-1.5505,-1.5161,-1.4752,-1.4006,-1.3208,-1.2402,-1.1626,-1.0962,-1.0481,-1.0293,-1.018,-1.0218,-1.0513,-1.0925,-1.1409,-1.1818,-1.2342,-1.29,-1.3119,-1.3309,-1.3549,-1.375,-1.4087,-1.4531,-1.4714,-1.5033,-1.5497,-1.6085,-1.6719,-1.7313,-1.7909,-1.8506,-1.8987,-1.8987,-1.8987,-1.9093,-1.9512,-2.0156,-2.0809,-2.1302,-2.2105,-2.2731,-2.243,-2.1657,-2.0814,-2.0219,-1.9566,-1.9101,-1.9101,-1.9101,-1.9101,-1.9101,-1.9101,-1.8767,-1.7838,-1.7142,-1.6358,-1.5399,-1.5328,-1.5418,-1.558,-1.5639,-1.5711,-1.5884,-1.587,-1.5827,-1.5799,-1.5955,-1.6122,-1.6301,-1.6303,-1.6303,-1.6301,-1.6122,-1.5955,-1.5799,-1.5799,-1.5799,-0.546,-0.597,-0.6376,-0.619,-0.6136,-0.6008,-0.5515,-0.5085,0.0,-0.4259,-0.4199,-0.4214,-0.4214,0.0,-0.4582,0.0,-0.592,0.0,0.0,0.0,0.0,0.0,0.0,0.0,0.0,0.0,0.0,-1.1829,-1.1678,-1.2054,-1.3001,-1.4106,-1.4991,-1.5638,-1.5248,-1.4724,-1.4127,-1.3339,-1.2469,-1.1484,-1.0925,-1.0481,-1.0143,-0.996,-0.9884,-0.9922,-1.0067,-1.0368,-1.0775,-1.1186,-1.1818,-1.2562,-1.2783,-1.3163,-1.3557,-1.3843,-1.4202,-1.4548,-1.4809,-1.5127,-1.5497,-1.6085,-1.6719,-1.7313,-1.7909,-1.8506,-1.8987,-1.8987,-1.8987,-1.9093,-1.946,-2.0093,-2.0784,-2.1482,-2.2222,-2.2579,-2.1939,-2.1365,-2.077,-2.003,-1.9464,-1.9101,-1.9101,-1.9101,-1.9101,-1.9101,-1.9101,-1.8883,-1.8288,-1.7751,-1.6924,-1.5617,-1.537,-1.5343,-1.5492,-1.5492,-1.5595,-1.5784,-1.5799,-1.5799,-1.5799,-1.5912,-1.6024,-1.6148,-1.6165,-1.6165,-1.6162,-1.6038,-1.5912,-1.5799,-1.5799,-1.5799,-0.546,-0.586,-0.6124,-0.5677,-0.5745,-0.5665,-0.4659,0.0,-0.4314,-0.3846,-0.385,-0.3934,-0.3934,-0.4138,-0.4436,0.0,0.0,-0.6116,0.0,0.0,0.0,0.0,0.0,0.0,0.0,0.0,0.0,-1.1833,-1.1942,-1.2375,-1.3132,-1.3713,-1.4393,-1.5223,-1.4697,-1.4122,-1.3564,-1.2586,-1.1706,-1.0887,-1.0475,-1.0143,-0.9916,-0.9922,-0.9884,-0.9922,-0.9916,-1.0143,-1.055,-1.0962,-1.1595,-1.2378,-1.2746,-1.3163,-1.3491,-1.3553,-1.3957,-1.4506,-1.4556,-1.4911,-1.5497,-1.6085,-1.6719,-1.7313,-1.7909,-1.8506,-1.8987,-1.8987,-1.8987,-1.9066,-1.9342,-2.0016,-2.0932,-2.2194,-2.2569,-2.2353,-2.1309,-2.1032,-2.064,-1.942,-1.9145,-1.9101,-1.9101,-1.9101,-1.9101,-1.9101,-1.9101,-1.8883,-1.8288,-1.8158,-1.7606,-1.6271,-1.5617,-1.5343,-1.5492,-1.5492,-1.5595,-1.5784,-1.5799,-1.5799,-1.5799,-1.587,-1.5942,-1.601,-1.601,-1.601,-1.6024,-1.5926,-1.587,-1.5799,-1.5799,-1.5799,-0.4911,-0.5297,-0.5574,-0.5232,-0.5335,-0.5314,-0.4436,0.0,-0.4273,-0.3793,-0.3741,-0.3793,-0.3825,-0.3933,-0.4169,0.0,-0.5187,-0.5827,-0.6775,0.0,0.0,0.0,0.0,0.0,0.0,0.0,0.0,-1.0641,-1.0959,-1.1474,-1.2081,-1.3042,-1.382,-1.4271,-1.3906,-1.3291,-1.2498,-1.1911,-1.1186,-1.0255,-1.0105,-0.9992,-0.9884,-0.9884,-0.9884,-0.9884,-0.9884,-0.9992,-1.018,-1.0556,-1.1223,-1.1966,-1.2378,-1.2817,-1.3219,-1.3444,-1.3786,-1.423,-1.443,-1.4913,-1.5497,-1.6085,-1.6719,-1.7313,-1.7909,-1.8506,-1.9025,-1.9105,-1.9117,-1.9223,-1.9655,-2.0422,-2.1337,-2.237,-2.2292,-2.1821,-2.115,-2.0712,-2.019,-1.9275,-1.9101,-1.9101,-1.9101,-1.9101,-1.9101,-1.9101,-1.9101,-1.9014,-1.8782,-1.8433,-1.7853,-1.6909,-1.6226,-1.5721,-1.5462,-1.5433,-1.5507,-1.5668,-1.5668,-1.5726,-1.5799,-1.5827,-1.5842,-1.587,-1.587,-1.587,-1.587,-1.5856,-1.5827,-1.5799,-1.5799,-1.5799,-0.4475,-0.4858,-0.5146,-0.4898,-0.4963,-0.4928,0.0,-0.4166,-0.4097,-0.3675,-0.3577,-0.3598,-0.3675,-0.3717,-0.3958,0.0,-0.4977,-0.5517,-0.6582,-0.6989,0.0,0.0,0.0,0.0,0.0,0.0,-1.0346,-0.9795,-1.0188,-1.0652,-1.1144,-1.211,-1.2875,-1.3459,-1.3062,-1.2452,-1.1644,-1.1265,-1.0668,-0.9884,-0.9884,-0.9884,-0.9884,-0.9884,-0.9884,-0.9884,-0.9884,-0.9884,-0.9922,-1.0331,-1.0962,-1.1737,-1.2021,-1.2512,-1.3027,-1.3282,-1.3639,-1.4056,-1.4366,-1.4913,-1.5497,-1.6085,-1.6719,-1.7313,-1.7909,-1.8506,-1.9025,-1.917,-1.9354,-1.9629,-2.0258,-2.0921,-2.1585,-2.2167,-2.1941,-2.1441,-2.0854,-2.0407,-1.9899,-1.9232,-1.9101,-1.9101,-1.9101,-1.9101,-1.9101,-1.9101,-1.9101,-1.9101,-1.9101,-1.8738,-1.8143,-1.7301,-1.6779,-1.6201,-1.5462,-1.5404,-1.5463,-1.5595,-1.5595,-1.5653,-1.5784,-1.5799,-1.5799,-1.5799,-1.5799,-1.5799,-1.5799,-1.5799,-1.5799,-1.5799,-1.5799,-1.5813,-0.4302,-0.4655,-0.496,-0.4745,-0.4655,-0.4483,-0.4011,-0.3855,-0.3717,-0.3374,-0.3307,-0.3328,-0.3387,-0.3514,-0.3822,-0.4495,-0.4723,-0.5158,-0.6164,-0.6541,0.0,0.0,0.0,0.0,0.0,0.0,-1.0309,-0.9665,-0.9914,0.0,-1.0601,-1.0754,-1.1469,-1.2848,-1.2194,-1.1653,-1.1293,-1.0587,-1.0095,-0.9884,-0.9884,-0.9884,-0.9884,-0.9884,-0.9884,-0.9884,-0.9884,-0.9884,-0.9922,-1.0331,-1.0962,-1.1718,-1.1762,-1.2289,-1.2998,-1.301,-1.3427,-1.4056,-1.4366,-1.4913,-1.5497,-1.6085,-1.6719,-1.7313,-1.7909,-1.8506,-1.9025,-1.917,-1.9681,-2.0372,-2.1166,-2.1496,-2.1608,-2.1605,-2.1619,-2.1341,-2.0318,-2.0103,-1.9899,-1.9232,-1.9101,-1.9101,-1.9101,-1.9101,-1.9101,-1.9101,-1.9101,-1.9101,-1.9101,-1.9101,-1.8608,-1.7345,-1.72,-1.671,-1.5491,-1.5404,-1.5463,-1.5595,-1.5595,-1.5653,-1.5784,-1.5799,-1.5799,-1.5799,-1.5799,-1.5799,-1.5799,-1.5799,-1.5799,-1.5799,-1.5799,-1.5827,-0.3711,-0.3867,-0.3963,-0.3903,-0.3973,-0.3967,-0.3631,-0.3615,-0.3583,-0.3289,-0.3234,-0.3249,-0.3317,-0.3408,-0.3719,-0.4482,-0.4671,0.0,0.0,0.0,0.0,0.0,0.0,0.0,0.0,0.0,-1.0075,-0.9643,-0.9921,-1.0243,-1.0572,-1.0718,-1.1005,-1.1468,-1.1194,-1.0766,-1.013,-1.0003,-0.9747,-0.9432,-0.9432,-0.9432,-0.9432,-0.9432,-0.9432,-0.9437,-0.961,-0.9685,-0.9733,-1.0263,-1.0855,-1.1371,-1.1676,-1.1992,-1.2388,-1.2832,-1.3296,-1.3735,-1.4297,-1.4913,-1.5497,-1.6085,-1.6719,-1.7313,-1.7909,-1.8506,-1.9078,-1.9382,-1.9965,-2.0598,-2.1131,-2.1496,-2.1799,-2.2084,-2.1546,-2.0905,-2.0635,-1.9971,-1.9348,-1.9145,-1.9101,-1.9101,-1.9101,-1.9101,-1.9101,-1.9101,-1.9101,-1.9101,-1.9101,-1.9101,-1.8608,-1.7345,-1.72,-1.6692,-1.5445,-1.5328,-1.5403,-1.5522,-1.5536,-1.561,-1.5784,-1.5799,-1.5799,-1.5799,-1.5799,-1.5799,-1.5799,-1.5799,-1.5799,-1.5799,-1.5799,-1.587,-0.3323,-0.3443,-0.3499,-0.3499,-0.3531,-0.3529,-0.3359,-0.3312,-0.3255,-0.3087,-0.3052,-0.3074,-0.3132,-0.3228,-0.3529,-0.4289,-0.456,0.0,0.0,0.0,0.0,0.0,0.0,0.0,0.0,-0.9958,-1.0148,-0.9819,-1.0104,-1.0426,-1.0784,-1.0753,-1.0638,-1.0503,-1.04,-1.0083,-0.9544,-0.9474,-0.9357,-0.9206,-0.9206,-0.9206,-0.9206,-0.9206,-0.9206,-0.9211,-0.9367,-0.9491,0.0,-1.007,-1.0634,-1.1232,-1.1401,-1.1674,-1.2086,-1.2608,-1.3099,-1.3601,-1.4261,-1.4913,-1.5497,-1.6085,-1.687,-1.7639,-1.8263,-1.8732,-1.9158,-1.9552,-2.0042,-2.0573,-2.1118,-2.1496,-2.1762,-2.1981,-2.1309,-2.0584,-2.0473,-1.9724,-1.9078,-1.9101,-1.9101,-1.9101,-1.9101,-1.9101,-1.9101,-1.9101,-1.9101,-1.9101,-1.9101,-1.9101,-1.8608,-1.7345,-1.72,-1.6675,-1.5414,-1.5298,-1.5358,-1.5477,-1.5492,-1.5595,-1.5784,-1.5799,-1.5799,-1.5799,-1.5799,-1.5799,-1.5799,-1.5799,-1.5799,-1.5799,-1.5799,-1.5899,0.0,-0.3302,-0.3446,-0.3446,-0.3302,-0.3172,-0.3172,-0.297,0.0,-0.2805,-0.2805,-0.2821,-0.2908,-0.3027,-0.334,-0.402,-0.4422,0.0,0.0,0.0,0.0,0.0,0.0,0.0,-0.9258,-1.0051,-1.0426,-1.0126,-1.0426,-1.0784,-1.1055,-1.0762,-1.0414,-1.0009,-0.9831,-0.9606,-0.9326,-0.9036,-0.8981,-0.9157,-0.9157,-0.9157,-0.9157,-0.9157,-0.9157,0.0,-0.9174,-0.9314,-0.9549,-0.9732,-1.0325,-1.1137,-1.0961,-1.1329,-1.1995,-1.2383,-1.2903,-1.3601,-1.4261,-1.4913,-1.5497,-1.6142,-1.7162,-1.822,-1.8827,-1.9105,-1.9302,-1.9682,-1.9991,-2.041,-2.1166,-2.1496,-2.1584,-2.149,-2.0967,-2.0415,-2.0036,-1.9469,-1.9031,-1.9082,-1.9101,-1.9101,-1.9101,-1.9101,-1.9101,-1.9101,-1.9101,-1.9101,-1.9101,-1.9101,-1.8637,-1.7403,-1.7243,-1.6706,-1.5472,-1.5312,-1.5358,-1.5477,-1.5492,-1.5595,-1.5784,-1.5799,-1.5799,-1.5799,-1.5799,-1.5799,-1.5799,-1.5799,-1.5799,-1.5799,-1.5799,-1.5928,-0.2797,0.0,-0.2884,-0.2884,-0.2854,-0.2824,0.0,-0.2809,-0.2805,-0.2805,-0.2805,-0.2869,-0.3092,-0.3242,-0.3579,-0.4349,-0.4768,-0.5316,-0.6253,0.0,0.0,0.0,-0.9304,-0.9585,-0.9519,-0.9936,-1.0185,-1.0104,-1.0638,-1.096,-1.0883,-1.066,-1.0317,-0.9869,-0.9428,-0.9045,-0.8723,-0.863,-0.8624,-0.8678,-0.8678,-0.8678,-0.8678,-0.8678,-0.8678,-0.8689,-0.8867,-0.9014,-0.9108,-0.9592,-1.0111,-1.0604,-1.0804,-1.1238,-1.1757,-1.2298,-1.2903,-1.3601,-1.4261,-1.4913,-1.5584,-1.6652,-1.7473,-1.822,-1.8827,-1.9184,-1.9394,-1.9591,-2.0067,-2.0623,-2.1131,-2.1496,-2.1789,-2.1978,-2.1322,-2.0634,-2.0533,-1.9757,-1.9078,-1.9101,-1.9101,-1.9101,-1.9101,-1.9101,-1.9101,-1.9101,-1.9101,-1.9101,-1.9101,-1.9101,-1.8811,-1.8056,-1.7519,-1.688,-1.6068,-1.5559,-1.5358,-1.5477,-1.5492,-1.5595,-1.5784,-1.5799,-1.5799,-1.5799,-1.5799,-1.5799,-1.5799,-1.5799,-1.5799,-1.5799,-1.5799,-1.6213,-0.2605,-0.2701,-0.2774,-0.2717,-0.2746,-0.2774,-0.2712,-0.2756,-0.2805,0.0,0.0,-0.2885,-0.3151,-0.3334,-0.368,-0.4387,-0.481,0.0,0.0,0.0,0.0,0.0,-0.9235,-0.9465,0.0,-1.0046,-1.0324,-1.0324,-1.0872,-1.1011,-1.065,-1.0481,-1.0078,-0.9412,-0.9145,-0.8829,-0.8517,-0.8517,-0.8517,-0.8517,-0.8517,-0.8517,-0.8517,-0.8517,-0.8517,-0.8522,-0.8646,-0.8798,-0.8934,-0.9293,-0.9819,-1.0414,-1.0679,-1.111,-1.1654,-1.2266,-1.2903,-1.3601,-1.4261,-1.5089,-1.596,-1.6894,-1.7611,-1.822,-1.8827,-1.9184,-1.9447,-1.963,-2.0042,-2.0483,-2.0796,-2.1087,-2.1324,-2.1412,-2.0784,-2.0228,-2.031,-1.967,-1.9059,-1.9082,-1.9101,-1.9101,-1.9101,-1.9101,-1.9101,-1.9101,-1.9101,-1.9101,-1.9101,-1.9101,-1.8869,-1.8256,-1.7882,-1.7403,-1.6721,-1.6356,-1.5985,-1.5522,-1.5492,-1.5595,-1.5784,-1.5799,-1.5799,-1.5799,-1.5799,-1.5799,-1.5799,-1.6069,-1.6219,-1.6219,-1.6533,-1.7031,-0.2468,-0.2677,-0.2854,-0.2743,-0.2805,-0.2868,-0.2795,0.0,0.0,0.0,0.0,0.0,0.0,-0.3462,0.0,0.0,0.0,0.0,0.0,0.0,0.0,-0.8862,-0.9054,0.0,-0.951,-1.0108,-1.0507,-1.0558,-1.0949,-1.0937,-1.0402,-1.0208,-0.9712,-0.8839,-0.8825,-0.8685,-0.8409,-0.8441,-0.8458,-0.8458,-0.8458,-0.8479,-0.8517,-0.8517,-0.8517,-0.8517,-0.8517,-0.863,-0.8858,-0.8945,-0.9533,-1.0371,-1.0527,-1.1003,-1.1654,-1.2266,-1.2903,-1.3593,-1.438,-1.5381,-1.64,-1.7017,-1.7611,-1.822,-1.8827,-1.9184,-1.9473,-1.9837,-2.0093,-2.0318,-2.0503,-2.0643,-2.0698,-2.052,-2.0026,-1.9654,-1.9835,-1.9406,-1.9036,-1.9082,-1.9101,-1.9101,-1.9101,-1.9101,-1.9101,-1.9101,-1.9101,-1.9101,-1.9101,-1.9101,-1.8912,-1.839,-1.8259,-1.7969,-1.7403,-1.7258,-1.6784,-1.5845,-1.5771,-1.5817,-1.5919,-1.5829,-1.5799,-1.5799,-1.5799,-1.5858,-1.5934,-1.6443,-1.6741,-1.6876,-1.7428,-1.7937,-0.2333,-0.257,-0.2808,-0.2785,-0.2805,-0.2872,-0.3078,0.0,0.0,0.0,0.0,0.0,0.0,-0.3951,-0.4222,0.0,0.0,-0.6469,0.0,0.0,-0.798,-0.8593,0.0,-0.8961,-0.9237,-0.9722,-1.0127,-1.0401,-1.0509,-1.0454,-1.0238,-0.9586,-0.8955,-0.8409,-0.8121,-0.7969,-0.7908,-0.8138,-0.8236,-0.8236,-0.8236,-0.8344,-0.8517,-0.8517,-0.8517,-0.8517,-0.8517,-0.8533,-0.8598,-0.8878,-0.942,-1.0117,-1.0473,-1.1003,-1.1654,-1.2266,-1.2903,-1.3653,-1.4844,-1.5729,-1.64,-1.7017,-1.7611,-1.822,-1.8827,-1.9184,-1.9539,-2.0258,-2.0585,-2.0701,-2.0677,-2.085,-2.0938,-2.0505,-2.0047,-1.9692,-1.9727,-1.9397,-1.9082,-1.9101,-1.9101,-1.9101,-1.9101,-1.9101,-1.9101,-1.9101,-1.9101,-1.9101,-1.9101,-1.9101,-1.9058,-1.897,-1.8506,-1.8158,-1.8071,-1.7534,-1.7161,-1.7023,-1.7009,-1.6858,-1.6485,-1.6039,-1.5799,-1.5799,-1.5799,-1.6054,-1.6562,-1.6636,-1.6995,-1.7548,-1.7637,-1.821,-0.2285,-0.2547,-0.2801,-0.2842,-0.2914,-0.2995,-0.3123,-0.3184,0.0,0.0,0.0,0.0,0.0,0.0,-0.4631,-0.5455,0.0,-0.6679,-0.7028,-0.7315,-0.7626,0.0,0.0,-0.8435,-0.8738,-0.9194,-0.9591,-0.9876,-0.9987,-0.9869,-0.9453,-0.9072,-0.8521,-0.7838,-0.7819,-0.7801,-0.7801,-0.7938,-0.8052,-0.8213,-0.8317,-0.8404,-0.8517,-0.8517,-0.8517,-0.8517,-0.8517,-0.8517,-0.8517,-0.8861,-0.939,-1.0053,-1.0428,-1.1003,-1.1716,-1.2689,-1.345,-1.4172,-1.5089,-1.5797,-1.64,-1.7017,-1.7611,-1.822,-1.8827,-1.9184,-1.9577,-2.0359,-2.0759,-2.0842,-2.0593,-2.0639,-2.0511,-1.9696,-1.933,-1.9202,-1.9299,-1.9181,-1.9074,-1.9082,-1.9101,-1.9101,-1.9101,-1.9101,-1.9101,-1.9101,-1.9101,-1.9101,-1.9101,-1.9101,-1.9101,-1.9101,-1.8854,-1.8695,-1.8695,-1.8404,-1.7958,-1.7342,-1.7401,-1.7368,-1.7154,-1.6935,-1.6832,-1.6832,-1.6832,-1.6966,-1.7234,-1.7593,-1.7938,-1.8252,-1.8612,-1.9163,-0.2245,-0.2469,-0.2722,-0.2767,0.0,-0.3095,-0.3198,-0.3312,0.0,0.0,0.0,0.0,0.0,-0.4475,0.0,-0.5906,-0.6339,-0.6641,-0.6779,-0.7057,-0.7365,-0.7622,-0.775,-0.7931,-0.8256,-0.864,-0.9021,-0.937,-0.9357,-0.918,-0.8766,-0.8531,-0.8092,-0.7342,-0.7567,-0.772,-0.772,-0.7828,-0.8003,-0.8213,-0.8371,-0.8458,-0.8517,-0.8517,-0.8517,-0.8517,-0.8517,-0.8517,-0.8517,-0.8861,-0.939,-1.0053,-1.0428,-1.109,-1.1957,-1.3086,-1.3932,-1.4588,-1.5177,-1.5797,-1.64,-1.7017,-1.7611,-1.822,-1.8827,-1.9184,-1.9577,-2.0359,-2.0795,-2.0936,-2.0687,-2.0498,-2.014,-1.9109,-1.8786,-1.8731,-1.8898,-1.8974,-1.9031,-1.9059,-1.9082,-1.9101,-1.9101,-1.9101,-1.9101,-1.9101,-1.9101,-1.9101,-1.9101,-1.9101,-1.9101,-1.9101,-1.9101,-1.9101,-1.9101,-1.9101,-1.8713,-1.7792,-1.7762,-1.7791,-1.7791,-1.7739,-1.7713,-1.7713,-1.7713,-1.7788,-1.7938,-1.8446,-1.8777,-1.8957,-1.9468,-1.9922,-0.2111,-0.227,-0.2433,-0.2433,-0.2721,0.0,-0.3483,-0.3626,0.0,-0.3914,0.0,0.0,0.0,-0.4928,-0.5385,-0.6086,-0.6215,-0.6432,-0.6999,0.0,-0.7219,-0.7494,-0.7521,-0.7643,-0.7904,-0.8148,-0.8514,-0.9074,-0.8626,-0.8404,-0.8614,-0.7966,-0.7453,-0.7139,-0.7321,-0.7421,-0.7421,-0.7938,-0.8191,-0.8207,-0.8229,-0.8328,-0.8517,-0.8517,-0.8517,-0.8517,-0.8517,-0.8517,-0.8517,-0.8861,-0.939,-1.0053,-1.0428,-1.1334,-1.2513,-1.3238,-1.3932,-1.4588,-1.5177,-1.5797,-1.64,-1.7017,-1.7611,-1.822,-1.8827,-1.9184,-1.9577,-2.0359,-2.0795,-2.104,-2.1197,-2.0829,-2.0217,-1.9508,-1.9018,-1.8692,-1.8711,-1.8879,-1.8993,-1.9012,-1.9074,-1.9101,-1.9101,-1.9101,-1.9101,-1.9101,-1.9101,-1.9101,-1.9101,-1.9101,-1.9101,-1.9101,-1.9101,-1.9101,-1.9101,-1.9101,-1.9058,-1.897,-1.8569,-1.8337,-1.8337,-1.7928,-1.7713,-1.7713,-1.7713,-1.8012,-1.8627,-1.8687,-1.9016,-1.9633,-1.9678,-1.9922,-0.21,-0.2247,-0.2428,-0.2559,-0.2767,0.0,0.0,-0.3496,-0.3725,-0.3796,-0.4064,0.0,0.0,0.0,-0.5448,-0.5983,-0.6275,-0.6606,-0.7036,-0.7112,-0.7139,-0.7246,-0.7246,-0.73,-0.7402,-0.7547,-0.7803,-0.819,-0.8024,-0.7931,-0.8033,-0.7707,-0.7381,-0.7112,-0.7176,-0.7267,-0.7394,-0.7768,-0.8036,-0.8213,-0.8201,-0.819,-0.8182,-0.8182,-0.8182,-0.8182,-0.8279,-0.8376,-0.8501,-0.8609,-0.9127,-0.9964,-1.073,-1.1646,-1.2574,-1.3238,-1.3932,-1.4588,-1.5177,-1.5797,-1.64,-1.7017,-1.7611,-1.822,-1.8827,-1.9184,-1.9577,-2.0359,-2.0795,-2.1054,-2.1253,-2.1125,-2.0703,-1.9649,-1.9262,-1.9061,-1.8758,-1.875,-1.886,-1.8974,-1.9017,-1.9055,-1.9082,-1.9101,-1.9101,-1.9101,-1.9101,-1.9101,-1.9101,-1.9101,-1.9101,-1.9101,-1.9101,-1.9101,-1.9101,-1.9101,-1.9101,-1.9101,-1.9035,-1.9012,-1.9012,-1.8971,-1.8942,-1.8942,-1.8942,-1.9061,-1.9316,-1.9316,-1.9471,-1.9762,-1.9848,-2.008,-0.21,-0.2195,-0.2351,-0.2559,0.0,0.0,-0.309,-0.3458,-0.3779,-0.3876,-0.4161,0.0,-0.4557,0.0,0.0,0.0,-0.6197,-0.6556,-0.6913,-0.6977,-0.6977,-0.6977,-0.6977,-0.6977,-0.6977,-0.7063,-0.7225,-0.7482,-0.7429,-0.7429,-0.7557,-0.7408,-0.7246,-0.7112,-0.716,-0.7256,-0.7394,-0.7629,-0.7859,-0.8089,-0.7964,-0.7879,-0.7852,-0.7787,-0.7787,-0.7852,-0.7982,-0.8214,-0.8495,-0.8415,-0.8858,-0.9643,-1.0551,-1.1433,-1.2308,-1.3054,-1.3826,-1.4588,-1.5177,-1.5797,-1.64,-1.7017,-1.7611,-1.822,-1.8827,-1.9184,-1.9577,-2.0359,-2.0795,-2.1094,-2.149,-2.1434,-2.1068,-2.0217,-1.9691,-1.9318,-1.8976,-1.8814,-1.875,-1.8903,-1.896,-1.9017,-1.9082,-1.9101,-1.9101,-1.9101,-1.9101,-1.9101,-1.9101,-1.9101,-1.9101,-1.9101,-1.9101,-1.9101,-1.9101,-1.9101,-1.9101,-1.9101,-1.9265,-1.9376,-1.9376,-1.9523,-1.9599,-1.9599,-1.9636,-1.9672,-1.9672,-1.969,-1.9762,-1.9866,-1.9993,-2.0254,-0.21,-0.2104,-0.2155,0.0,0.0,0.0,-0.3155,-0.3564,-0.3976,-0.424,-0.4469,-0.4574,-0.4499,-0.4816,0.0,-0.5528,-0.5875,-0.6227,-0.6649,-0.6701,-0.6701,-0.6701,-0.6701,-0.6701,-0.6701,-0.6701,-0.681,-0.7085,-0.6837,-0.6864,-0.7262,-0.7036,-0.6955,-0.7085,-0.7294,-0.7394,-0.7394,-0.7541,-0.7708,-0.7902,-0.7404,-0.7294,-0.7489,-0.7297,-0.7297,-0.7489,-0.7629,-0.7992,-0.8495,-0.8415,-0.8624,-0.9061,-0.9737,-1.0639,-1.1723,-1.2639,-1.3655,-1.4588,-1.5177,-1.5797,-1.64,-1.7017,-1.7611,-1.822,-1.8827,-1.9184,-1.9577,-2.0359,-2.0795,-2.1188,-2.1983,-2.1758,-2.1316,-2.1316,-2.0344,-1.9404,-1.939,-1.9033,-1.8731,-1.8798,-1.8908,-1.9017,-1.9082,-1.9101,-1.9101,-1.9101,-1.9101,-1.9101,-1.9101,-1.9101,-1.9101,-1.9101,-1.9101,-1.9101,-1.9101,-1.9101,-1.9101,-1.9101,-1.9213,-1.9302,-1.9302,-1.9358,-1.9395,-1.9395,-1.9538,-1.9593,-1.9593,-1.9672,-1.9797,-1.999,-2.0137,-2.0412,-0.2064,-0.2172,0.0,-0.255,0.0,0.0,0.0,-0.3768,0.0,0.0,-0.4344,-0.4381,-0.4364,0.0,0.0,-0.526,-0.5597,-0.5934,-0.6293,-0.6344,-0.6344,-0.6344,-0.6344,-0.6344,-0.6344,-0.6344,-0.6372,-0.6453,-0.6485,-0.6593,-0.6864,-0.6901,-0.6955,-0.7085,-0.7155,-0.7192,-0.7192,-0.7288,-0.7374,-0.7476,-0.715,-0.7017,-0.7073,-0.7007,-0.7012,-0.7106,-0.7428,-0.7787,-0.8166,-0.8222,-0.84,-0.8721,-0.9376,-1.0449,-1.1723,-1.2639,-1.3655,-1.4588,-1.5177,-1.5797,-1.64,-1.7017,-1.7611,-1.822,-1.8827,-1.9184,-1.9577,-2.0359,-2.0795,-2.1188,-2.1983,-2.2067,-2.1828,-2.1392,-2.1012,-2.0484,-1.9593,-1.929,-1.9103,-1.885,-1.8822,-1.8912,-1.9064,-1.9101,-1.9101,-1.9101,-1.9101,-1.9101,-1.9101,-1.9101,-1.9101,-1.9101,-1.9101,-1.9101,-1.9101,-1.9101,-1.9101,-1.9101,-1.9139,-1.9195,-1.9302,-1.9358,-1.9446,-1.9538,-1.9574,-1.9629,-1.9672,-1.969,-1.9833,-2.008,-2.0291,-2.0629,-0.2035,-0.2156,0.0,-0.2623,-0.3007,-0.3431,-0.3834,0.0,0.0,0.0,0.0,-0.4294,-0.4294,-0.4594,0.0,-0.5082,-0.5461,-0.5819,-0.6014,-0.6055,-0.6055,-0.6055,-0.6055,-0.6055,-0.6055,-0.6055,-0.6055,-0.6055,-0.6164,-0.6327,-0.6495,-0.663,-0.6766,-0.695,-0.695,-0.695,-0.695,-0.6894,-0.6904,-0.6978,-0.6697,-0.656,-0.65,-0.6583,-0.6646,-0.6716,-0.7265,-0.7543,-0.7649,-0.7735,-0.7914,-0.8169,-0.8897,-1.0055,-1.1457,-1.258,-1.3655,-1.4588,-1.5177,-1.5797,-1.64,-1.7017,-1.7611,-1.822,-1.8827,-1.9184,-1.9577,-2.0359,-2.0795,-2.1188,-2.1983,-2.2208,-2.2109,-2.1729,-2.1462,-2.1082,-2.0316,-1.9957,-1.9739,-1.9587,-1.9541,-1.962,-1.9817,-1.9653,-1.9508,-1.9508,-1.9275,-1.9101,-1.9101,-1.9101,-1.9101,-1.9101,-1.9101,-1.9101,-1.9101,-1.9101,-1.9101,-1.9101,-1.9101,-1.9139,-1.9213,-1.9321,-1.9395,-1.9483,-1.9556,-1.9629,-1.9669,-1.969,-1.9869,-2.0185,-2.0494,-2.0827,-0.201,0.0,0.0,-0.2594,-0.3096,0.0,-0.4158,-0.4294,-0.4294,-0.4294,0.0,-0.4294,-0.4294,-0.4686,-0.4985,-0.4985,-0.5405,-0.5768,-0.5768,-0.5768,-0.5768,-0.5768,-0.5768,-0.5768,-0.5768,-0.5768,-0.5768,-0.5768,-0.5868,-0.6032,-0.615,-0.6277,-0.6463,-0.6647,-0.6647,-0.6647,-0.6647,-0.6463,-0.641,-0.6473,-0.6187,-0.6002,-0.59,-0.6089,-0.6244,-0.6429,-0.7125,-0.732,-0.7083,-0.7064,-0.723,-0.7594,-0.8375,-0.9577,-1.1078,-1.2493,-1.3655,-1.4588,-1.5177,-1.5797,-1.64,-1.7017,-1.7611,-1.822,-1.8827,-1.9184,-1.9577,-2.0359,-2.0795,-2.1188,-2.1983,-2.2208,-2.2208,-2.2208,-2.1772,-2.1364,-2.1316,-2.0872,-2.0521,-2.067,-2.0698,-2.0768,-2.0961,-2.0553,-2.0161,-2.0117,-1.9537,-1.9101,-1.9101,-1.9101,-1.9101,-1.9101,-1.9101,-1.9101,-1.9101,-1.9101,-1.9101,-1.9101,-1.9101,-1.9101,-1.9101,-1.9228,-1.9302,-1.9321,-1.9501,-1.9593,-1.9611,-1.9672,-1.9904,-2.0304,-2.0645,-2.0974,-0.197,-0.2177,0.0,0.0,-0.3071,-0.3672,-0.4062,-0.4236,-0.4294,-0.4294,-0.4294,-0.4294,-0.4294,-0.4588,-0.4853,-0.4853,-0.5165,-0.5411,-0.5411,-0.5411,-0.5411,-0.5411,-0.5411,-0.5411,-0.5411,-0.5411,-0.5411,-0.5411,-0.5572,-0.5732,-0.5877,-0.6005,-0.6164,-0.629,-0.6317,-0.6317,-0.6317,-0.6159,-0.6133,-0.6187,-0.5961,-0.5889,-0.5892,-0.5935,-0.6141,-0.6408,-0.6848,-0.6985,-0.6936,-0.6777,-0.7063,-0.7629,-0.8302,-0.9495,-1.1078,-1.2493,-1.3655,-1.4588,-1.5177,-1.5797,-1.64,-1.7017,-1.7611,-1.822,-1.8827,-1.9184,-1.9577,-2.0359,-2.0795,-2.1188,-2.1983,-2.2208,-2.2208,-2.2208,-2.2109,-2.1884,-2.1392,-2.1195,-2.1022,-2.0741,-2.0698,-2.0768,-2.0961,-2.0886,-2.0654,-2.0175,-1.9537,-1.9101,-1.9101,-1.9101,-1.9101,-1.9101,-1.9101,-1.9101,-1.9101,-1.9101,-1.9101,-1.9101,-1.9101,-1.9101,-1.9101,-1.9228,-1.9321,-1.9376,-1.952,-1.9629,-1.9672,-1.969,-1.9904,-2.0304,-2.0645,-2.0974,-0.1827,0.0,0.0,-0.257,0.0,-0.3416,-0.3806,-0.4012,-0.4144,-0.4276,-0.4294,-0.4294,-0.4294,-0.4499,-0.4682,-0.4792,-0.5039,-0.5228,-0.5285,-0.5297,-0.5297,-0.5297,-0.5297,-0.5297,-0.5297,-0.5297,-0.5297,-0.5297,-0.5485,-0.5622,-0.5709,-0.5818,-0.5923,-0.6,-0.6,-0.6,-0.6,-0.595,-0.5894,-0.5852,-0.5739,-0.5681,-0.5607,-0.5811,-0.6002,-0.6154,-0.6343,-0.6468,-0.6572,-0.6438,-0.6863,-0.7641,-0.844,-0.9635,-1.1115,-1.266,-1.3785,-1.4588,-1.5177,-1.5797,-1.64,-1.7017,-1.7611,-1.8174,-1.8503,-1.8978,-1.9515,-2.0061,-2.0584,-2.1188,-2.1983,-2.2208,-2.2208,-2.2208,-2.2208,-2.2109,-2.18,-2.1729,-2.1699,-2.1633,-2.1605,-2.1671,-2.1888,-2.167,-2.1264,-2.0625,-2.0074,-1.9696,-1.9595,-1.9304,-1.9101,-1.9101,-1.9391,-1.9449,-1.913,-1.9391,-1.9449,-1.9116,-1.9101,-1.9101,-1.9101,-1.9228,-1.9321,-1.9358,-1.952,-1.9611,-1.965,-1.969,-1.9904,-2.0304,-2.0645,-2.1182,-0.1634,0.0,-0.2104,-0.2603,-0.2816,0.0,-0.3524,-0.3727,-0.3891,-0.418,-0.4276,-0.4294,-0.4294,-0.4399,-0.4546,-0.4711,-0.4914,-0.5088,-0.5212,-0.5205,-0.5205,-0.5205,-0.5205,-0.5205,-0.5205,-0.5205,-0.5205,-0.5205,-0.5362,-0.547,-0.547,-0.5612,-0.5688,-0.5688,-0.5696,-0.5713,-0.5713,-0.5713,-0.5654,-0.554,-0.554,-0.5462,-0.5309,-0.5632,-0.5811,-0.5843,-0.5872,-0.6,-0.6166,-0.6195,-0.6676,-0.7538,-0.8592,-0.9812,-1.1166,-1.2879,-1.3902,-1.4529,-1.5177,-1.5797,-1.64,-1.7017,-1.7611,-1.814,-1.8289,-1.8832,-1.9478,-1.9853,-2.045,-2.1188,-2.1983,-2.2208,-2.2208,-2.2208,-2.2208,-2.2208,-2.2208,-2.2208,-2.2278,-2.2555,-2.2638,-2.2706,-2.2865,-2.2359,-2.1757,-2.1191,-2.077,-2.0431,-2.0277,-1.958,-1.9159,-1.9304,-1.9783,-1.9928,-1.9464,-1.9841,-1.9914,-1.9464,-1.9333,-1.9319,-1.942,-1.953,-1.9587,-1.9587,-1.9705,-1.9756,-1.9793,-2.0007,-2.0306,-2.0711,-2.1057,-2.171,0.0,0.0,-0.2006,0.0,-0.251,-0.2707,0.0,0.0,-0.3567,0.0,-0.4144,-0.4294,-0.4294,-0.4399,-0.4509,-0.4529,-0.4702,-0.4849,-0.4873,-0.4877,-0.4877,-0.4877,-0.4877,-0.4877,-0.4877,-0.4877,-0.4877,-0.4877,-0.4902,-0.4902,-0.4902,-0.5083,-0.5195,-0.5195,-0.5298,-0.5356,-0.5356,-0.5356,-0.5356,-0.5352,-0.5352,-0.5325,-0.5301,-0.5349,-0.5478,-0.5657,-0.5819,-0.59,-0.5963,-0.6114,-0.6602,-0.7373,-0.8531,-0.9755,-1.1048,-1.2856,-1.3812,-1.4369,-1.5118,-1.5797,-1.64,-1.7017,-1.7611,-1.8209,-1.8717,-1.9123,-1.9552,-2.0294,-2.0743,-2.1188,-2.1983,-2.2208,-2.2208,-2.2208,-2.2208,-2.2208,-2.2208,-2.2208,-2.2278,-2.2555,-2.2752,-2.2865,-2.2888,-2.2265,-2.1706,-2.1619,-2.1206,-2.0901,-2.0886,-1.9841,-1.9391,-2.0141,-2.0161,-2.0277,-2.0712,-2.0349,-2.0277,-2.0712,-2.0262,-2.0204,-2.0712,-2.0762,-2.0762,-2.0762,-2.0504,-2.0433,-2.0561,-2.1318,-2.1911,-2.2287,-2.2701,-2.3082,-0.1377,-0.1567,-0.1732,0.0,-0.2089,-0.2278,-0.2699,0.0,-0.3044,-0.3391,-0.3549,-0.3723,-0.4015,-0.4118,-0.4203,-0.4326,-0.4467,-0.4598,-0.4673,-0.4755,-0.4804,-0.4804,-0.4804,-0.4804,-0.4804,-0.4804,-0.4804,-0.4804,-0.4804,-0.4804,-0.4804,-0.4881,-0.4974,-0.5102,-0.5157,-0.5224,-0.5297,-0.5297,-0.5297,-0.5297,-0.5297,-0.5297,-0.5297,-0.5297,-0.5337,-0.5442,-0.5523,-0.5615,-0.5738,-0.5815,-0.6298,-0.7075,-0.8068,-0.9205,-1.0476,-1.2086,-1.3139,-1.3916,-1.4687,-1.5501,-1.6314,-1.6978,-1.7611,-1.8163,-1.8455,-1.8941,-1.9503,-1.9996,-2.0545,-2.1188,-2.1983,-2.2208,-2.2208,-2.2208,-2.2208,-2.2208,-2.2208,-2.2208,-2.2278,-2.2555,-2.2721,-2.2849,-2.2888,-2.262,-2.2359,-2.2359,-2.22,-2.2055,-2.2055,-2.1576,-2.1025,-2.046,-2.0857,-2.1119,-2.1003,-2.109,-2.1119,-2.1003,-2.0741,-2.0712,-2.0988,-2.1003,-2.1003,-2.1003,-2.1004,-2.1094,-2.1255,-2.1869,-2.2368,-2.2776,-2.3186,-2.3691,-0.1341,-0.1437,-0.1451,-0.157,-0.1696,-0.1879,0.0,0.0,-0.257,0.0,-0.2988,-0.3127,-0.3515,-0.3657,-0.3765,-0.3931,-0.4064,-0.4198,-0.4347,-0.4482,-0.4598,-0.467,-0.467,-0.467,-0.467,-0.467,-0.467,-0.467,-0.467,-0.467,-0.467,-0.471,-0.4824,-0.5029,-0.5082,-0.5169,-0.5297,-0.5253,-0.5256,-0.5256,-0.5185,-0.516,-0.516,-0.516,-0.516,-0.5165,-0.5261,-0.5373,-0.5478,-0.5498,-0.594,-0.6692,-0.7605,-0.8693,-0.9945,-1.1455,-1.2541,-1.3396,-1.4289,-1.5188,-1.6046,-1.6873,-1.7556,-1.8097,-1.8284,-1.8842,-1.9478,-1.9904,-2.049,-2.1188,-2.1983,-2.2208,-2.2208,-2.2208,-2.2208,-2.2208,-2.2208,-2.2231,-2.2301,-2.2509,-2.2675,-2.2781,-2.2834,-2.2865,-2.2888,-2.2888,-2.2888,-2.2888,-2.2888,-2.2722,-2.22,-2.1156,-2.1612,-2.1859,-2.1511,-2.1801,-2.1844,-2.1489,-2.1336,-2.1322,-2.1481,-2.147,-2.1491,-2.1481,-2.1756,-2.1895,-2.1959,-2.2531,-2.3013,-2.3404,-2.3769,-2.4327,-0.1213,-0.1266,-0.1226,-0.13,0.0,0.0,0.0,0.0,0.0,-0.2567,-0.2685,-0.2727,-0.2756,-0.3021,-0.3239,-0.3249,-0.3363,-0.3518,-0.3721,-0.3862,-0.4039,-0.43,-0.4322,-0.4322,-0.4322,-0.4322,-0.4322,-0.4322,-0.4322,-0.4322,-0.4322,-0.4444,-0.4614,-0.4812,-0.4991,-0.5169,-0.5297,-0.5182,-0.5122,-0.5118,-0.4918,-0.4832,-0.4832,-0.4832,-0.4832,-0.4853,-0.5175,-0.5232,-0.5147,-0.5268,-0.5595,-0.6158,-0.7356,-0.8431,-0.9549,-1.134,-1.2259,-1.2836,-1.4166,-1.4934,-1.5525,-1.6637,-1.7429,-1.8007,-1.859,-1.9054,-1.9565,-2.0333,-2.0782,-2.1188,-2.1983,-2.2208,-2.2208,-2.2208,-2.2208,-2.2208,-2.2208,-2.2301,-2.2394,-2.2417,-2.2555,-2.2706,-2.2706,-2.282,-2.2888,-2.2888,-2.2888,-2.2888,-2.2888,-2.2236,-2.2019,-2.2685,-2.2323,-2.2222,-2.2765,-2.2323,-2.2236,-2.2757,-2.2258,-2.2207,-2.2772,-2.2809,-2.2809,-2.2801,-2.3062,-2.3007,-2.2643,-2.3697,-2.4374,-2.4712,-2.5047,-2.5313,-0.0935,-0.1053,0.0,-0.1222,-0.1299,-0.1434,-0.1634,-0.1699,-0.177,-0.1983,-0.2045,-0.2093,-0.2222,-0.2675,-0.2998,-0.2998,-0.3084,-0.3236,-0.3483,-0.3612,-0.3788,-0.4012,-0.4126,-0.417,-0.417,-0.4254,-0.4294,-0.4294,-0.4294,-0.4294,-0.4294,-0.4424,-0.4601,-0.4796,-0.4869,-0.4934,-0.4973,-0.4934,-0.4905,-0.4901,-0.4836,-0.4804,-0.4804,-0.4804,-0.4804,-0.4812,-0.4917,-0.4962,-0.4909,-0.4949,-0.5293,-0.5817,-0.6605,-0.7512,-0.8559,-0.9849,-1.0947,-1.1904,-1.2802,-1.3932,-1.5139,-1.6176,-1.7011,-1.7799,-1.8545,-1.9025,-1.9448,-2.0359,-2.0795,-2.1188,-2.1983,-2.2208,-2.2208,-2.2208,-2.2208,-2.2208,-2.2208,-2.2254,-2.2301,-2.237,-2.2463,-2.2578,-2.2797,-2.2865,-2.2888,-2.2888,-2.2888,-2.2888,-2.2888,-2.2649,-2.2577,-2.2859,-2.2722,-2.2678,-2.2873,-2.2707,-2.2678,-2.2888,-2.2707,-2.2678,-2.2888,-2.2888,-2.2888,-2.2888,-2.3172,-2.3288,-2.327,-2.396,-2.4426,-2.4675,-2.4934,-2.515,-0.0784,-0.0917,0.0,0.0,0.0,-0.1287,-0.1376,0.0,-0.1531,-0.1614,-0.1667,-0.1743,-0.1883,-0.227,-0.2579,-0.2655,-0.2729,-0.2857,-0.3129,-0.3284,-0.3435,-0.3638,-0.3774,-0.3884,-0.395,-0.4078,-0.4206,-0.4294,-0.4294,-0.4294,-0.4294,-0.439,-0.4513,-0.4686,-0.4775,-0.4804,-0.4804,-0.4723,-0.4694,-0.469,-0.4654,-0.4625,-0.4625,-0.4625,-0.4625,-0.4625,-0.4625,-0.4662,-0.4694,-0.4694,-0.497,-0.5462,-0.6076,-0.6878,-0.7855,-0.8913,-1.001,-1.1096,-1.1922,-1.319,-1.4645,-1.5733,-1.6678,-1.7579,-1.8464,-1.896,-1.9384,-2.0245,-2.0684,-2.1115,-2.1864,-2.2137,-2.2208,-2.2208,-2.2208,-2.2208,-2.2208,-2.2208,-2.2231,-2.2324,-2.2324,-2.2394,-2.2638,-2.2797,-2.2888,-2.2888,-2.2888,-2.2888,-2.2888,-2.2888,-2.2888,-2.2888,-2.2888,-2.2888,-2.2888,-2.2888,-2.2888,-2.2888,-2.2888,-2.2888,-2.2888,-2.2888,-2.2888,-2.2888,-2.3105,-2.3312,-2.3437,-2.3955,-2.4281,-2.4456,-2.4619,-2.4879,0.0,0.0,0.0,0.0,0.0,0.0,-0.1194,0.0,-0.1491,-0.1495,-0.16,-0.1701,-0.1707,-0.1798,-0.1955,-0.2161,-0.2255,-0.2388,-0.2662,-0.2798,-0.2954,-0.317,-0.3306,-0.3461,-0.3678,-0.3814,-0.4012,-0.4276,-0.4294,-0.4294,-0.4294,-0.4298,-0.4365,-0.4493,-0.4686,-0.4792,-0.4788,-0.4597,-0.4493,-0.4489,-0.4357,-0.4294,-0.4294,-0.4294,-0.4294,-0.4294,-0.4294,-0.4373,-0.4493,-0.4493,-0.4689,-0.5069,-0.5799,-0.6627,-0.752,-0.8639,-0.9612,-1.0528,-1.159,-1.2751,-1.4021,-1.5426,-1.6481,-1.7357,-1.8317,-1.8869,-1.9344,-1.9991,-2.0498,-2.0932,-2.1626,-2.1996,-2.2208,-2.2208,-2.2208,-2.2208,-2.2208,-2.2208,-2.2208,-2.2208,-2.2208,-2.2208,-2.2208,-2.2578,-2.2865,-2.2888,-2.2888,-2.2888,-2.2888,-2.2888,-2.2888,-2.2888,-2.2888,-2.2888,-2.2888,-2.2888,-2.2888,-2.2888,-2.2888,-2.2888,-2.2888,-2.2917,-2.2917,-2.2888,-2.3052,-2.3105,-2.3105,-2.3689,-2.4009,-2.4099,-2.424,-2.4614,-0.0794,0.0,0.0,0.0,0.0,0.0,0.0,0.0,0.0,-0.1471,-0.1537,-0.1576,-0.1685,-0.1729,-0.1802,-0.1958,-0.2032,-0.2184,-0.2517,-0.2595,-0.2707,-0.2954,-0.3062,-0.3214,-0.3461,-0.3656,-0.3858,0.0,-0.4254,-0.4294,-0.4294,-0.4398,-0.4472,-0.4497,-0.4546,-0.4533,-0.4445,-0.4373,-0.4349,-0.4349,-0.4322,-0.4294,-0.4294,-0.4294,-0.4294,-0.4294,-0.4294,-0.4326,-0.4349,-0.4349,-0.4613,-0.5055,-0.5597,-0.6251,-0.6998,-0.7788,-0.8803,-0.9845,-1.0487,-1.192,-1.372,-1.4932,-1.6034,-1.7106,-1.8263,-1.8759,-1.9052,-1.9734,-2.0144,-2.0573,-2.1434,-2.1926,-2.2208,-2.2208,-2.2208,-2.2208,-2.2208,-2.2208,-2.2208,-2.2208,-2.2208,-2.2208,-2.2208,-2.2301,-2.2509,-2.2843,-2.2888,-2.2888,-2.2888,-2.2888,-2.2888,-2.2888,-2.2888,-2.2888,-2.2888,-2.2888,-2.2888,-2.2888,-2.2888,-2.2888,-2.2888,-2.336,-2.3389,-2.2902,-2.3512,-2.3595,-2.309,-2.3466,-2.3661,-2.3668,-2.4094,-2.4553,-0.0898,-0.0912,0.0,0.0,0.0,0.0,-0.1151,-0.1182,0.0,0.0,-0.1398,-0.1453,-0.1592,-0.1618,-0.1659,-0.1803,-0.1849,-0.1968,-0.2249,-0.2348,-0.2442,-0.26,-0.266,-0.2812,-0.3084,-0.3281,-0.3546,-0.3902,-0.4056,-0.4188,-0.4294,-0.4373,-0.4412,-0.4412,-0.4412,-0.4395,-0.4386,-0.4386,-0.4386,-0.4386,-0.4386,-0.4349,-0.4294,-0.4294,-0.4294,-0.4294,-0.4294,-0.4294,-0.4294,-0.4294,-0.4583,-0.505,-0.5507,-0.6081,-0.6683,-0.7335,-0.8325,-0.9414,-0.9902,-1.1494,-1.3512,-1.47,-1.5875,-1.7004,-1.8154,-1.8664,-1.8893,-1.9422,-2.0029,-2.0684,-2.1337,-2.1864,-2.2208,-2.2208,-2.2208,-2.2208,-2.2208,-2.2208,-2.2208,-2.2208,-2.2208,-2.2208,-2.2208,-2.2208,-2.2301,-2.2555,-2.2775,-2.2888,-2.2888,-2.2888,-2.2888,-2.2888,-2.2888,-2.2888,-2.2888,-2.2888,-2.2888,-2.2888,-2.2888,-2.3041,-2.3302,-2.3688,-2.3833,-2.3685,-2.3917,-2.3733,-2.3179,-2.34,-2.3494,-2.356,-2.4051,-2.4518,-0.1071,-0.1036,-0.0984,-0.1172,-0.1156,0.0,-0.1109,-0.1155,-0.1196,0.0,-0.1247,-0.1329,-0.145,-0.1483,-0.1517,-0.1639,-0.1679,-0.1755,-0.1956,-0.2104,-0.2184,-0.2184,-0.2233,-0.2393,-0.2662,-0.286,-0.3167,-0.3634,-0.3836,-0.4034,-0.4294,-0.4294,-0.4294,-0.4294,-0.4294,-0.4353,-0.4469,-0.4469,-0.4469,-0.4469,-0.4469,-0.4408,-0.4294,-0.4294,-0.4294,-0.4294,-0.4294,-0.4294,-0.4294,-0.4294,-0.4583,-0.505,-0.5507,-0.6023,-0.6568,-0.7139,-0.807,-0.9136,-0.9681,-1.132,-1.3368,-1.4673,-1.5875,-1.7004,-1.8057,-1.8556,-1.8825,-1.9107,-2.0042,-2.1031,-2.1288,-2.1769,-2.2208,-2.2208,-2.2208,-2.2208,-2.2208,-2.2208,-2.2208,-2.2208,-2.2208,-2.2208,-2.2208,-2.2208,-2.2208,-2.2208,-2.2555,-2.2843,-2.2888,-2.2888,-2.2888,-2.2888,-2.2888,-2.2888,-2.2888,-2.2888,-2.2888,-2.2888,-2.2888,-2.3171,-2.376,-2.392,-2.4196,-2.4592,-2.4065,-2.3637,-2.3297,-2.3422,-2.3516,-2.3595,-2.4073,-2.4519,-0.1255,-0.124,-0.1236,-0.1268,-0.1224,0.0,-0.1182,-0.1151,-0.113,0.0,-0.121,-0.1251,-0.1325,-0.1343,-0.1353,-0.1373,-0.1509,-0.1699,-0.1882,-0.1986,-0.2044,-0.2044,-0.2153,-0.2308,-0.2529,-0.2662,-0.2951,-0.342,-0.384,-0.4126,-0.4294,-0.4294,-0.4294,-0.4294,-0.4294,-0.4314,-0.4347,-0.4347,-0.4347,-0.4347,-0.4347,-0.4331,-0.4294,-0.4294,-0.4294,-0.4294,-0.4294,-0.4294,-0.4294,-0.4294,-0.4583,-0.505,-0.5507,-0.5986,-0.6474,-0.6922,-0.7843,-0.895,-0.9467,-1.1113,-1.3195,-1.4621,-1.5875,-1.7004,-1.8057,-1.8449,-1.8572,-1.9054,-1.9914,-2.0734,-2.1006,-2.1636,-2.2208,-2.2208,-2.2208,-2.2208,-2.2208,-2.2208,-2.2208,-2.2208,-2.2208,-2.2208,-2.2208,-2.2208,-2.2208,-2.2208,-2.2278,-2.2463,-2.2843,-2.2888,-2.2888,-2.2888,-2.2888,-2.2888,-2.2888,-2.2888,-2.2888,-2.2888,-2.2888,-2.2946,-2.3099,-2.4085,-2.4201,-2.3279,-2.3171,-2.3162,-2.3297,-2.3319,-2.3429,-2.3595,-2.4085,-2.4513,-0.1386,-0.1351,-0.1313,-0.1388,-0.1297,0.0,0.0,-0.1151,-0.1107,-0.1143,-0.1127,-0.1119,-0.1194,-0.117,-0.117,-0.124,-0.1331,-0.1462,-0.1627,-0.1816,-0.195,-0.195,-0.2031,-0.2151,-0.2234,-0.2407,-0.2704,-0.317,-0.3638,-0.3968,-0.41,-0.4232,-0.4294,-0.4294,-0.4294,-0.4339,-0.441,-0.441,-0.441,-0.441,-0.441,-0.4361,-0.4294,-0.4294,-0.4294,-0.4294,-0.4294,-0.4294,-0.4294,-0.4294,-0.4583,-0.505,-0.5507,-0.5986,-0.6453,-0.6859,-0.7748,-0.8819,-0.939,-1.1055,-1.3132,-1.4611,-1.5875,-1.6976,-1.7947,-1.8313,-1.8503,-1.896,-1.9669,-2.0371,-2.0696,-2.1396,-2.202,-2.2091,-2.2161,-2.2208,-2.2208,-2.2208,-2.2208,-2.2208,-2.2208,-2.2208,-2.2208,-2.2208,-2.2208,-2.2208,-2.2208,-2.237,-2.2843,-2.2888,-2.2888,-2.2888,-2.2888,-2.2888,-2.2888,-2.2888,-2.2888,-2.2888,-2.2888,-2.3055,-2.3374,-2.3998,-2.4041,-2.3403,-2.3389,-2.3321,-2.3201,-2.3201,-2.3341,-2.3595,-2.4019,-2.4404,-0.1535,-0.1477,-0.1409,-0.1515,-0.1396,-0.1262,0.0,0.0,0.0,-0.1137,-0.109,0.0,0.0,0.0,0.0,0.0,0.0,0.0,0.0,-0.1595,0.0,-0.185,-0.1935,-0.1972,-0.1972,-0.2163,-0.2464,-0.2873,-0.3355,-0.3698,-0.3854,-0.4146,-0.4294,-0.4294,-0.4294,-0.4345,-0.4468,-0.4472,-0.4472,-0.4472,-0.4472,-0.4395,-0.4294,-0.4294,-0.4294,-0.4294,-0.4294,-0.4294,-0.4294,-0.4294,-0.4583,-0.505,-0.5507,-0.5986,-0.6453,-0.6859,-0.7726,-0.8795,-0.939,-1.1055,-1.3132,-1.4611,-1.5982,-1.7172,-1.7893,-1.8232,-1.8476,-1.8827,-1.9422,-2.0016,-2.0384,-2.1104,-2.1746,-2.1902,-2.2067,-2.2208,-2.2208,-2.2208,-2.2208,-2.2208,-2.2208,-2.2208,-2.2208,-2.2208,-2.2208,-2.2208,-2.2208,-2.237,-2.2843,-2.2888,-2.2888,-2.2888,-2.2888,-2.2888,-2.2888,-2.2888,-2.2888,-2.2888,-2.2888,-2.3142,-2.3688,-2.3717,-2.376,-2.3891,-2.3775,-2.3501,-2.3105,-2.3105,-2.3246,-2.3566,-2.3861,-2.4176,-0.1811,-0.175,-0.1665,-0.1675,-0.1566,-0.1467,-0.1467,0.0,-0.1272,-0.1272,0.0,0.0,0.0,0.0,0.0,0.0,0.0,0.0,-0.103,-0.1238,-0.1463,-0.1695,-0.1841,-0.1916,-0.1916,-0.2085,-0.231,-0.2542,-0.3096,-0.3521,-0.3704,-0.4079,-0.4294,-0.4294,-0.4294,-0.4306,-0.4326,-0.4326,-0.4326,-0.4326,-0.4326,-0.4318,-0.4294,-0.4294,-0.4294,-0.4294,-0.4294,-0.4294,-0.4294,-0.4294,-0.4583,-0.505,-0.5507,-0.5986,-0.6453,-0.6859,-0.7748,-0.8873,-0.9413,-1.1055,-1.3132,-1.4611,-1.6384,-1.7975,-1.8057,-1.8232,-1.8422,-1.8587,-1.9133,-1.9708,-1.9991,-2.0759,-2.1496,-2.1616,-2.1926,-2.2208,-2.2208,-2.2208,-2.2208,-2.2208,-2.2208,-2.2208,-2.2208,-2.2208,-2.2208,-2.2208,-2.2208,-2.237,-2.2843,-2.2888,-2.2888,-2.2888,-2.2888,-2.2888,-2.2888,-2.2888,-2.2888,-2.2888,-2.2888,-2.2931,-2.3004,-2.3004,-2.3287,-2.3876,-2.3316,-2.3028,-2.3105,-2.3105,-2.3179,-2.3341,-2.3569,-2.3838,-0.1773,-0.1719,-0.1653,-0.1689,-0.1596,-0.1498,-0.1498,-0.1367,-0.1246,-0.1246,0.0,0.0,0.0,0.0,0.0,0.0,-0.0705,0.0,0.0,0.0,-0.116,0.0,0.0,0.0,-0.1889,-0.1909,-0.2033,-0.2307,-0.2807,-0.3232,-0.3509,-0.4024,-0.4294,-0.4294,-0.4294,-0.4294,-0.4294,-0.4294,-0.4294,-0.4294,-0.4294,-0.4294,-0.4294,-0.4294,-0.4294,-0.4294,-0.4294,-0.4294,-0.4294,-0.4294,-0.4583,-0.505,-0.5507,-0.5986,-0.6453,-0.6859,-0.7748,-0.8819,-0.939,-1.0894,-1.2895,-1.4993,-1.6774,-1.8084,-1.8084,-1.8166,-1.8259,-1.8437,-1.8854,-1.933,-1.9682,-2.0359,-2.1019,-2.1302,-2.1688,-2.1996,-2.2067,-2.2161,-2.2208,-2.2208,-2.2208,-2.2208,-2.2208,-2.2208,-2.2208,-2.2208,-2.2208,-2.2278,-2.2463,-2.2729,-2.2888,-2.2888,-2.2888,-2.2888,-2.2888,-2.2888,-2.2888,-2.2888,-2.2888,-2.2888,-2.2888,-2.2888,-2.3018,-2.3302,-2.3055,-2.2925,-2.2992,-2.2992,-2.3,-2.309,-2.3386,-2.3686,-0.1745,-0.1674,-0.1651,-0.1727,-0.1648,-0.1533,-0.1533,-0.1405,-0.1272,-0.1242,-0.1122,0.0,0.0,0.0,0.0,0.0,0.0,-0.0659,0.0,-0.0867,0.0,0.0,0.0,0.0,0.0,-0.164,-0.1711,-0.2008,-0.2496,-0.2892,-0.3222,-0.385,-0.4203,-0.4224,-0.4273,-0.4294,-0.4294,-0.4294,-0.4294,-0.4294,-0.4294,-0.4294,-0.4294,-0.4294,-0.4294,-0.4294,-0.4294,-0.4294,-0.4294,-0.4294,-0.4583,-0.505,-0.5507,-0.5986,-0.6453,-0.6859,-0.7726,-0.8819,-0.939,-1.105,-1.3216,-1.5408,-1.6932,-1.7928,-1.8077,-1.8084,-1.8139,-1.8286,-1.8598,-1.896,-1.9303,-1.9888,-2.0459,-2.0835,-2.1326,-2.1722,-2.1864,-2.2067,-2.2208,-2.2208,-2.2208,-2.2208,-2.2208,-2.2208,-2.2208,-2.2208,-2.2208,-2.2208,-2.2208,-2.2615,-2.2888,-2.2888,-2.2888,-2.2888,-2.2888,-2.2888,-2.2888,-2.2888,-2.2888,-2.2888,-2.2888,-2.2888,-2.2888,-2.2888,-2.2888,-2.2888,-2.2888,-2.2888,-2.2888,-2.2925,-2.3201,-2.3437,-0.1833,-0.1739,-0.172,-0.1857,-0.1739,-0.1605,-0.1605,-0.154,-0.1458,-0.1323,-0.1189,-0.1037,-0.0837,0.0,0.0,0.0,0.0,0.0,0.0,0.0,0.0,0.0,0.0,0.0,0.0,-0.132,-0.1396,0.0,-0.2119,-0.2532,-0.2802,-0.3514,-0.3942,-0.4004,-0.4208,-0.4294,-0.4294,-0.4294,-0.4294,-0.4294,-0.4294,-0.4294,-0.4294,-0.4294,-0.4294,-0.4294,-0.4294,-0.4294,-0.4294,-0.4294,-0.4583,-0.505,-0.5507,-0.5986,-0.6453,-0.6859,-0.7748,-0.8873,-0.9413,-1.1689,-1.4539,-1.5701,-1.67,-1.7522,-1.7962,-1.8084,-1.8084,-1.8111,-1.8356,-1.864,-1.8798,-1.933,-1.9875,-2.0182,-2.0835,-2.1447,-2.1592,-2.1926,-2.2208,-2.2208,-2.2208,-2.2208,-2.2208,-2.2208,-2.2208,-2.2208,-2.2208,-2.2208,-2.2208,-2.2615,-2.2888,-2.2888,-2.2888,-2.2888,-2.2888,-2.2888,-2.2888,-2.2888,-2.2888,-2.2888,-2.2888,-2.2888,-2.2888,-2.2888,-2.2888,-2.2888,-2.2888,-2.2888,-2.2888,-2.2888,-2.291,-2.3052,-0.163,-0.1546,-0.1588,-0.1678,-0.1586,-0.146,-0.1407,-0.1345,-0.1275,-0.1182,-0.1101,-0.0987,-0.0836,0.0,0.0,0.0,0.0,0.0,0.0,0.0,0.0,0.0,0.0,0.0,0.0,0.0,-0.1329,-0.158,-0.1978,-0.2318,-0.2588,-0.317,-0.3561,-0.3664,-0.395,-0.4105,-0.4105,-0.4237,-0.4294,-0.4294,-0.4294,-0.4294,-0.4294,-0.4294,-0.4294,-0.4294,-0.4294,-0.4294,-0.4294,-0.4294,-0.4583,-0.505,-0.5507,-0.5986,-0.6453,-0.6859,-0.7777,-0.9011,-1.0486,-1.2576,-1.4687,-1.5258,-1.6256,-1.7312,-1.7617,-1.7755,-1.7838,-1.7936,-1.8209,-1.853,-1.8744,-1.9093,-1.9526,-1.9952,-2.0472,-2.0932,-2.1155,-2.1447,-2.1688,-2.1688,-2.1688,-2.1722,-2.1973,-2.2114,-2.2208,-2.2208,-2.2208,-2.2208,-2.2208,-2.2532,-2.2775,-2.2775,-2.2843,-2.2888,-2.2888,-2.2888,-2.2888,-2.2888,-2.2888,-2.2888,-2.2888,-2.2888,-2.2888,-2.2888,-2.2888,-2.2888,-2.2888,-2.2888,-2.2888,-2.2888,-2.2888,-2.3045,-0.1411,-0.1325,-0.1377,-0.1478,-0.1417,-0.1313,-0.1247,-0.1179,-0.1111,-0.1036,-0.0981,-0.0889,-0.0762,0.0,0.0,0.0,0.0,0.0,0.0,-0.0596,0.0,0.0,0.0,0.0,0.0,0.0,-0.1314,-0.1578,-0.1894,0.0,0.0,-0.2943,-0.3294,-0.3429,-0.379,-0.3995,-0.3995,-0.4208,-0.4294,-0.4294,-0.4294,-0.4294,-0.4294,-0.4294,-0.4294,-0.4294,-0.4294,-0.4294,-0.4294,-0.4294,-0.4583,-0.505,-0.5507,-0.5986,-0.6453,-0.6859,-0.788,-0.9353,-1.1206,-1.2891,-1.4339,-1.4889,-1.5771,-1.6695,-1.7079,-1.7329,-1.7551,-1.7717,-1.8084,-1.8449,-1.861,-1.8866,-1.9172,-1.9539,-1.9991,-2.0384,-2.0598,-2.0896,-2.1118,-2.1118,-2.1118,-2.1191,-2.1468,-2.1722,-2.1996,-2.2184,-2.2208,-2.2208,-2.2208,-2.2417,-2.2615,-2.2661,-2.2797,-2.2888,-2.2888,-2.2888,-2.2888,-2.2888,-2.2888,-2.2888,-2.2888,-2.2888,-2.3004,-2.3244,-2.3004,-2.3026,-2.3258,-2.3026,-2.2888,-2.2888,-2.2888,-2.3023]}]]